Time,TemperatureF,DewpointF,PressureIn,WindDirection,WindDirectionDegrees,WindSpeedMPH,WindSpeedGustMPH,Humidity,HourlyPrecipIn,Conditions,Clouds,dailyrainin,SoftwareType,DateUTC
2013-05-17 00:00:00,44.5,38.7,29.77,ENE,71,0.0,1.0,80,0.00,,---,0.00,VWS V13.01,2013-05-17 06:00:00,
2013-05-17 00:01:00,44.5,38.7,29.77,ENE,71,0.0,0.0,80,0.00,,---,0.00,VWS V13.01,2013-05-17 06:01:00,
2013-05-17 00:02:00,44.5,38.7,29.77,ENE,71,0.0,0.0,80,0.00,,---,0.00,VWS V13.01,2013-05-17 06:02:00,
2013-05-17 00:03:00,44.5,38.7,29.77,ENE,71,0.0,0.0,80,0.00,,---,0.00,VWS V13.01,2013-05-17 06:03:00,
2013-05-17 00:04:00,44.5,38.7,29.77,ENE,71,0.0,0.0,80,0.00,,---,0.00,VWS V13.01,2013-05-17 06:04:00,
2013-05-17 00:05:00,44.5,38.7,29.77,ENE,71,0.0,0.0,80,0.00,,---,0.00,VWS V13.01,2013-05-17 06:05:00,
2013-05-17 00:06:00,44.5,38.7,29.77,ENE,71,0.0,0.0,80,0.00,,---,0.00,VWS V13.01,2013-05-17 06:06:00,
2013-05-17 00:07:00,44.5,38.7,29.77,ENE,71,0.0,0.0,80,0.00,,---,0.00,VWS V13.01,2013-05-17 06:07:00,
2013-05-17 00:08:00,44.5,38.7,29.77,ENE,71,0.0,0.0,80,0.00,,---,0.00,VWS V13.01,2013-05-17 06:08:00,
2013-05-17 00:09:00,44.5,38.7,29.77,ENE,71,0.0,0.0,80,0.00,,---,0.00,VWS V13.01,2013-05-17 06:09:00,
2013-05-17 00:10:00,44.5,38.7,29.77,ENE,71,0.0,0.0,80,0.00,,---,0.00,VWS V13.01,2013-05-17 06:10:00,
2013-05-17 00:11:00,44.3,38.5,29.77,ENE,71,0.0,0.0,80,0.00,,---,0.00,VWS V13.01,2013-05-17 06:11:00,
2013-05-17 00:12:00,44.3,38.5,29.77,ENE,71,0.0,0.0,80,0.00,,---,0.00,VWS V13.01,2013-05-17 06:12:00,
2013-05-17 00:13:00,44.3,38.5,29.77,ENE,71,0.0,0.0,80,0.00,,---,0.00,VWS V13.01,2013-05-17 06:13:00,
2013-05-17 00:14:00,44.3,38.5,29.80,ENE,71,0.0,0.0,80,0.00,,---,0.00,VWS V13.01,2013-05-17 06:14:00,
2013-05-17 00:15:00,44.3,38.5,29.80,ENE,71,0.0,0.0,80,0.00,,---,0.00,VWS V13.01,2013-05-17 06:15:00,
2013-05-17 00:16:00,44.3,38.5,29.80,ENE,71,0.0,0.0,80,0.00,,---,0.00,VWS V13.01,2013-05-17 06:16:00,
2013-05-17 00:17:00,44.3,38.5,29.80,ENE,71,0.0,0.0,80,0.00,,---,0.00,VWS V13.01,2013-05-17 06:17:00,
2013-05-17 00:18:00,44.3,38.8,29.80,ENE,71,0.0,0.0,81,0.00,,---,0.00,VWS V13.01,2013-05-17 06:18:00,
2013-05-17 00:19:00,44.3,38.8,29.80,ENE,71,0.0,0.0,81,0.00,,---,0.00,VWS V13.01,2013-05-17 06:19:00,
2013-05-17 00:20:00,44.3,38.5,29.80,ENE,71,0.0,0.0,80,0.00,,---,0.00,VWS V13.01,2013-05-17 06:20:00,
2013-05-17 00:21:00,44.3,38.5,29.80,ENE,71,0.0,0.0,80,0.00,,---,0.00,VWS V13.01,2013-05-17 06:21:00,
2013-05-17 00:22:00,44.3,38.5,29.80,ENE,71,0.0,0.0,80,0.00,,---,0.00,VWS V13.01,2013-05-17 06:22:00,
2013-05-17 00:23:00,44.3,38.5,29.80,ENE,71,0.0,0.0,80,0.00,,---,0.00,VWS V13.01,2013-05-17 06:23:00,
2013-05-17 00:24:00,44.3,38.5,29.80,ENE,71,0.0,0.0,80,0.00,,---,0.00,VWS V13.01,2013-05-17 06:24:00,
2013-05-17 00:25:00,44.3,38.5,29.80,ENE,71,0.0,0.0,80,0.00,,---,0.00,VWS V13.01,2013-05-17 06:25:00,
2013-05-17 00:26:00,44.3,38.5,29.80,ENE,71,0.0,0.0,80,0.00,,---,0.00,VWS V13.01,2013-05-17 06:26:00,
2013-05-17 00:27:00,44.2,38.4,29.80,ENE,71,0.0,0.0,80,0.00,,---,0.00,VWS V13.01,2013-05-17 06:27:00,
2013-05-17 00:28:00,44.2,38.4,29.80,ENE,71,0.0,0.0,80,0.00,,---,0.00,VWS V13.01,2013-05-17 06:28:00,
2013-05-17 00:29:00,44.2,38.4,29.80,ENE,71,0.0,0.0,80,0.00,,---,0.00,VWS V13.01,2013-05-17 06:29:00,
2013-05-17 00:30:00,44.2,38.4,29.80,ENE,71,0.0,0.0,80,0.00,,---,0.00,VWS V13.01,2013-05-17 06:30:00,
2013-05-17 00:31:00,44.1,38.3,29.80,ENE,71,0.0,0.0,80,0.00,,---,0.00,VWS V13.01,2013-05-17 06:31:00,
2013-05-17 00:32:00,44.1,38.3,29.80,ENE,71,0.0,0.0,80,0.00,,---,0.00,VWS V13.01,2013-05-17 06:32:00,
2013-05-17 00:33:00,44.1,38.3,29.80,ENE,71,0.0,0.0,80,0.00,,---,0.00,VWS V13.01,2013-05-17 06:33:00,
2013-05-17 00:34:00,44.1,38.3,29.80,ENE,71,0.0,0.0,80,0.00,,---,0.00,VWS V13.01,2013-05-17 06:34:00,
2013-05-17 00:35:00,44.1,38.3,29.80,ENE,71,0.0,0.0,80,0.00,,---,0.00,VWS V13.01,2013-05-17 06:35:00,
2013-05-17 00:36:00,43.9,38.5,29.80,ENE,71,0.0,0.0,81,0.00,,---,0.00,VWS V13.01,2013-05-17 06:36:00,
2013-05-17 00:37:00,43.9,38.5,29.80,ENE,71,0.0,0.0,81,0.00,,---,0.00,VWS V13.01,2013-05-17 06:37:00,
2013-05-17 00:38:00,43.9,38.5,29.80,ENE,71,0.0,0.0,81,0.00,,---,0.00,VWS V13.01,2013-05-17 06:38:00,
2013-05-17 00:39:00,43.9,38.5,29.80,ENE,71,0.0,0.0,81,0.00,,---,0.00,VWS V13.01,2013-05-17 06:39:00,
2013-05-17 00:40:00,43.9,38.5,29.80,ENE,71,0.0,0.0,81,0.00,,---,0.00,VWS V13.01,2013-05-17 06:40:00,
2013-05-17 00:41:00,43.9,38.5,29.80,ENE,71,0.0,0.0,81,0.00,,---,0.00,VWS V13.01,2013-05-17 06:41:00,
2013-05-17 00:42:00,43.9,38.5,29.80,ENE,71,0.0,1.0,81,0.00,,---,0.00,VWS V13.01,2013-05-17 06:42:00,
2013-05-17 00:43:00,43.9,38.5,29.80,ENE,71,1.0,1.0,81,0.00,,---,0.00,VWS V13.01,2013-05-17 06:43:00,
2013-05-17 00:44:00,43.9,38.5,29.80,ENE,71,0.0,1.0,81,0.00,,---,0.00,VWS V13.01,2013-05-17 06:44:00,
2013-05-17 00:45:00,43.9,38.5,29.80,ENE,71,0.0,1.0,81,0.00,,---,0.00,VWS V13.01,2013-05-17 06:45:00,
2013-05-17 00:46:00,43.9,38.5,29.80,ENE,71,0.0,0.0,81,0.00,,---,0.00,VWS V13.01,2013-05-17 06:46:00,
2013-05-17 00:47:00,43.8,38.4,29.80,ENE,71,0.0,0.0,81,0.00,,---,0.00,VWS V13.01,2013-05-17 06:47:00,
2013-05-17 00:48:00,43.8,38.4,29.80,ENE,71,0.0,0.0,81,0.00,,---,0.00,VWS V13.01,2013-05-17 06:48:00,
2013-05-17 00:49:00,43.8,38.4,29.80,ENE,71,0.0,0.0,81,0.00,,---,0.00,VWS V13.01,2013-05-17 06:49:00,
2013-05-17 00:50:00,43.8,38.4,29.80,ENE,71,0.0,0.0,81,0.00,,---,0.00,VWS V13.01,2013-05-17 06:50:00,
2013-05-17 00:51:00,43.8,38.4,29.80,ENE,71,0.0,0.0,81,0.00,,---,0.00,VWS V13.01,2013-05-17 06:51:00,
2013-05-17 00:52:00,43.8,38.7,29.80,ENE,71,0.0,0.0,82,0.00,,---,0.00,VWS V13.01,2013-05-17 06:52:00,
2013-05-17 00:53:00,43.8,38.7,29.80,ENE,71,0.0,0.0,82,0.00,,---,0.00,VWS V13.01,2013-05-17 06:53:00,
2013-05-17 00:54:00,43.8,38.7,29.80,ENE,71,0.0,0.0,82,0.00,,---,0.00,VWS V13.01,2013-05-17 06:54:00,
2013-05-17 00:55:00,43.8,38.7,29.80,ENE,71,0.0,0.0,82,0.00,,---,0.00,VWS V13.01,2013-05-17 06:55:00,
2013-05-17 00:56:00,43.8,38.7,29.80,ENE,71,0.0,0.0,82,0.00,,---,0.00,VWS V13.01,2013-05-17 06:56:00,
2013-05-17 00:57:00,43.8,38.7,29.80,ENE,71,0.0,0.0,82,0.00,,---,0.00,VWS V13.01,2013-05-17 06:57:00,
2013-05-17 00:58:00,43.9,38.8,29.80,ENE,71,0.0,0.0,82,0.00,,---,0.00,VWS V13.01,2013-05-17 06:58:00,
2013-05-17 00:59:00,43.9,38.8,29.80,ENE,71,0.0,0.0,82,0.00,,---,0.00,VWS V13.01,2013-05-17 06:59:00,
2013-05-17 01:00:00,43.9,38.8,29.80,ENE,71,0.0,0.0,82,0.00,,---,0.00,VWS V13.01,2013-05-17 07:00:00,
2013-05-17 01:01:00,43.9,38.8,29.80,ENE,71,0.0,0.0,82,0.00,,---,0.00,VWS V13.01,2013-05-17 07:01:00,
2013-05-17 01:02:00,43.9,38.8,29.80,ENE,71,0.0,0.0,82,0.00,,---,0.00,VWS V13.01,2013-05-17 07:02:00,
2013-05-17 01:03:00,43.9,38.8,29.80,ENE,71,0.0,0.0,82,0.00,,---,0.00,VWS V13.01,2013-05-17 07:03:00,
2013-05-17 01:04:00,43.9,38.8,29.80,ENE,71,0.0,0.0,82,0.00,,---,0.00,VWS V13.01,2013-05-17 07:04:00,
2013-05-17 01:05:00,43.9,38.8,29.80,ENE,71,0.0,0.0,82,0.00,,---,0.00,VWS V13.01,2013-05-17 07:05:00,
2013-05-17 01:06:00,43.9,38.8,29.80,ENE,71,0.0,0.0,82,0.00,,---,0.00,VWS V13.01,2013-05-17 07:06:00,
2013-05-17 01:07:00,44.1,39.0,29.80,ENE,71,0.0,0.0,82,0.00,,---,0.00,VWS V13.01,2013-05-17 07:07:00,
2013-05-17 01:08:00,44.1,39.0,29.80,ENE,71,0.0,0.0,82,0.00,,---,0.00,VWS V13.01,2013-05-17 07:08:00,
2013-05-17 01:09:00,44.1,39.0,29.80,ENE,71,0.0,0.0,82,0.00,,---,0.00,VWS V13.01,2013-05-17 07:09:00,
2013-05-17 01:10:00,44.1,39.0,29.80,ENE,71,0.0,0.0,82,0.00,,---,0.00,VWS V13.01,2013-05-17 07:10:00,
2013-05-17 01:11:00,44.1,39.0,29.80,ENE,71,0.0,0.0,82,0.00,,---,0.00,VWS V13.01,2013-05-17 07:11:00,
2013-05-17 01:12:00,44.1,39.0,29.80,ENE,71,0.0,0.0,82,0.00,,---,0.00,VWS V13.01,2013-05-17 07:12:00,
2013-05-17 01:13:00,44.1,39.0,29.80,ENE,71,0.0,0.0,82,0.00,,---,0.00,VWS V13.01,2013-05-17 07:13:00,
2013-05-17 01:14:00,44.1,39.0,29.78,ENE,71,0.0,0.0,82,0.00,,---,0.00,VWS V13.01,2013-05-17 07:14:00,
2013-05-17 01:15:00,44.1,39.0,29.78,ENE,71,0.0,0.0,82,0.00,,---,0.00,VWS V13.01,2013-05-17 07:15:00,
2013-05-17 01:16:00,44.1,39.0,29.78,ENE,71,0.0,0.0,82,0.00,,---,0.00,VWS V13.01,2013-05-17 07:16:00,
2013-05-17 01:17:00,44.1,39.0,29.78,ENE,71,0.0,0.0,82,0.00,,---,0.00,VWS V13.01,2013-05-17 07:17:00,
2013-05-17 01:18:00,44.1,39.0,29.78,ENE,71,0.0,0.0,82,0.00,,---,0.00,VWS V13.01,2013-05-17 07:18:00,
2013-05-17 01:19:00,44.1,39.0,29.78,ENE,71,0.0,0.0,82,0.00,,---,0.00,VWS V13.01,2013-05-17 07:19:00,
2013-05-17 01:20:00,44.1,39.0,29.78,ENE,71,0.0,0.0,82,0.00,,---,0.00,VWS V13.01,2013-05-17 07:20:00,
2013-05-17 01:21:00,44.1,39.0,29.78,ENE,71,0.0,0.0,82,0.00,,---,0.00,VWS V13.01,2013-05-17 07:21:00,
2013-05-17 01:22:00,44.1,39.0,29.78,ENE,71,0.0,0.0,82,0.00,,---,0.00,VWS V13.01,2013-05-17 07:22:00,
2013-05-17 01:23:00,43.9,38.8,29.78,ENE,71,0.0,0.0,82,0.00,,---,0.00,VWS V13.01,2013-05-17 07:23:00,
2013-05-17 01:24:00,43.9,38.8,29.78,ENE,71,0.0,0.0,82,0.00,,---,0.00,VWS V13.01,2013-05-17 07:24:00,
2013-05-17 01:25:00,43.9,38.8,29.78,ENE,71,0.0,0.0,82,0.00,,---,0.00,VWS V13.01,2013-05-17 07:25:00,
2013-05-17 01:26:00,43.9,38.8,29.78,ENE,71,0.0,0.0,82,0.00,,---,0.00,VWS V13.01,2013-05-17 07:26:00,
2013-05-17 01:27:00,43.9,38.8,29.78,ENE,71,0.0,0.0,82,0.00,,---,0.00,VWS V13.01,2013-05-17 07:27:00,
2013-05-17 01:28:00,43.9,38.8,29.78,ENE,71,0.0,0.0,82,0.00,,---,0.00,VWS V13.01,2013-05-17 07:28:00,
2013-05-17 01:29:00,43.9,38.8,29.77,ENE,71,0.0,0.0,82,0.00,,---,0.00,VWS V13.01,2013-05-17 07:29:00,
2013-05-17 01:30:00,43.8,38.7,29.77,ENE,71,0.0,0.0,82,0.00,,---,0.00,VWS V13.01,2013-05-17 07:30:00,
2013-05-17 01:31:00,43.8,38.7,29.77,ENE,71,0.0,0.0,82,0.00,,---,0.00,VWS V13.01,2013-05-17 07:31:00,
2013-05-17 01:32:00,43.8,38.7,29.77,ENE,71,0.0,0.0,82,0.00,,---,0.00,VWS V13.01,2013-05-17 07:32:00,
2013-05-17 01:33:00,43.8,38.7,29.77,ENE,71,0.0,0.0,82,0.00,,---,0.00,VWS V13.01,2013-05-17 07:33:00,
2013-05-17 01:34:00,43.8,38.7,29.77,ENE,71,0.0,0.0,82,0.00,,---,0.00,VWS V13.01,2013-05-17 07:34:00,
2013-05-17 01:35:00,43.6,38.5,29.77,ENE,71,0.0,0.0,82,0.00,,---,0.00,VWS V13.01,2013-05-17 07:35:00,
2013-05-17 01:36:00,43.6,38.5,29.77,ENE,71,0.0,0.0,82,0.00,,---,0.00,VWS V13.01,2013-05-17 07:36:00,
2013-05-17 01:37:00,43.6,38.2,29.77,ENE,71,0.0,0.0,81,0.00,,---,0.00,VWS V13.01,2013-05-17 07:37:00,
2013-05-17 01:38:00,43.6,38.2,29.77,ENE,71,0.0,0.0,81,0.00,,---,0.00,VWS V13.01,2013-05-17 07:38:00,
2013-05-17 01:39:00,43.5,38.1,29.77,ENE,71,0.0,0.0,81,0.00,,---,0.00,VWS V13.01,2013-05-17 07:39:00,
2013-05-17 01:40:00,43.5,38.1,29.77,ENE,71,0.0,0.0,81,0.00,,---,0.00,VWS V13.01,2013-05-17 07:40:00,
2013-05-17 01:41:00,43.5,38.1,29.77,ENE,71,0.0,0.0,81,0.00,,---,0.00,VWS V13.01,2013-05-17 07:41:00,
2013-05-17 01:42:00,43.5,38.1,29.77,ENE,71,0.0,0.0,81,0.00,,---,0.00,VWS V13.01,2013-05-17 07:42:00,
2013-05-17 01:43:00,43.3,37.9,29.77,ENE,71,0.0,0.0,81,0.00,,---,0.00,VWS V13.01,2013-05-17 07:43:00,
2013-05-17 01:44:00,43.3,37.9,29.78,ENE,71,0.0,0.0,81,0.00,,---,0.00,VWS V13.01,2013-05-17 07:44:00,
2013-05-17 01:45:00,43.3,37.9,29.78,ENE,71,0.0,0.0,81,0.00,,---,0.00,VWS V13.01,2013-05-17 07:45:00,
2013-05-17 01:46:00,43.3,37.9,29.78,ENE,71,0.0,0.0,81,0.00,,---,0.00,VWS V13.01,2013-05-17 07:46:00,
2013-05-17 01:47:00,43.2,37.8,29.78,ENE,71,0.0,0.0,81,0.00,,---,0.00,VWS V13.01,2013-05-17 07:47:00,
2013-05-17 01:48:00,43.2,37.8,29.78,ENE,71,0.0,0.0,81,0.00,,---,0.00,VWS V13.01,2013-05-17 07:48:00,
2013-05-17 01:49:00,43.2,37.8,29.78,ENE,71,0.0,0.0,81,0.00,,---,0.00,VWS V13.01,2013-05-17 07:49:00,
2013-05-17 01:50:00,43.2,37.8,29.78,ENE,71,0.0,0.0,81,0.00,,---,0.00,VWS V13.01,2013-05-17 07:50:00,
2013-05-17 01:51:00,43.1,38.0,29.78,ENE,71,0.0,0.0,82,0.00,,---,0.00,VWS V13.01,2013-05-17 07:51:00,
2013-05-17 01:52:00,43.1,38.0,29.78,ENE,71,0.0,0.0,82,0.00,,---,0.00,VWS V13.01,2013-05-17 07:52:00,
2013-05-17 01:53:00,43.1,38.0,29.78,ENE,71,0.0,0.0,82,0.00,,---,0.00,VWS V13.01,2013-05-17 07:53:00,
2013-05-17 01:54:00,43.1,38.0,29.78,ENE,71,0.0,0.0,82,0.00,,---,0.00,VWS V13.01,2013-05-17 07:54:00,
2013-05-17 01:55:00,42.9,37.8,29.78,ENE,71,0.0,0.0,82,0.00,,---,0.00,VWS V13.01,2013-05-17 07:55:00,
2013-05-17 01:56:00,42.9,37.8,29.78,ENE,71,0.0,0.0,82,0.00,,---,0.00,VWS V13.01,2013-05-17 07:56:00,
2013-05-17 01:57:00,42.9,37.8,29.78,ENE,71,0.0,0.0,82,0.00,,---,0.00,VWS V13.01,2013-05-17 07:57:00,
2013-05-17 01:58:00,42.9,37.8,29.78,ENE,71,0.0,0.0,82,0.00,,---,0.00,VWS V13.01,2013-05-17 07:58:00,
2013-05-17 01:59:00,42.8,37.7,29.78,ENE,71,0.0,0.0,82,0.00,,---,0.00,VWS V13.01,2013-05-17 07:59:00,
2013-05-17 02:00:00,42.8,38.0,29.78,ENE,71,0.0,0.0,83,0.00,,---,0.00,VWS V13.01,2013-05-17 08:00:00,
2013-05-17 02:01:00,42.8,38.0,29.78,ENE,71,0.0,0.0,83,0.00,,---,0.00,VWS V13.01,2013-05-17 08:01:00,
2013-05-17 02:02:00,42.8,38.0,29.78,ENE,71,0.0,0.0,83,0.00,,---,0.00,VWS V13.01,2013-05-17 08:02:00,
2013-05-17 02:03:00,42.6,37.8,29.78,ENE,71,0.0,0.0,83,0.00,,---,0.00,VWS V13.01,2013-05-17 08:03:00,
2013-05-17 02:04:00,42.6,37.8,29.78,ENE,71,0.0,0.0,83,0.00,,---,0.00,VWS V13.01,2013-05-17 08:04:00,
2013-05-17 02:05:00,42.6,37.8,29.78,ENE,71,0.0,0.0,83,0.00,,---,0.00,VWS V13.01,2013-05-17 08:05:00,
2013-05-17 02:06:00,42.6,37.8,29.78,ENE,71,0.0,0.0,83,0.00,,---,0.00,VWS V13.01,2013-05-17 08:06:00,
2013-05-17 02:07:00,42.6,37.8,29.78,ENE,71,0.0,0.0,83,0.00,,---,0.00,VWS V13.01,2013-05-17 08:07:00,
2013-05-17 02:08:00,42.6,38.1,29.78,ENE,71,0.0,0.0,84,0.00,,---,0.00,VWS V13.01,2013-05-17 08:08:00,
2013-05-17 02:09:00,42.5,38.0,29.78,ENE,71,0.0,0.0,84,0.00,,---,0.00,VWS V13.01,2013-05-17 08:09:00,
2013-05-17 02:10:00,42.5,38.0,29.78,ENE,71,0.0,0.0,84,0.00,,---,0.00,VWS V13.01,2013-05-17 08:10:00,
2013-05-17 02:11:00,42.5,38.0,29.78,ENE,71,0.0,0.0,84,0.00,,---,0.00,VWS V13.01,2013-05-17 08:11:00,
2013-05-17 02:12:00,42.5,38.0,29.78,ENE,71,0.0,0.0,84,0.00,,---,0.00,VWS V13.01,2013-05-17 08:12:00,
2013-05-17 02:13:00,42.5,38.0,29.78,ENE,71,0.0,0.0,84,0.00,,---,0.00,VWS V13.01,2013-05-17 08:13:00,
2013-05-17 02:14:00,42.5,37.7,29.79,ENE,71,0.0,0.0,83,0.00,,---,0.00,VWS V13.01,2013-05-17 08:14:00,
2013-05-17 02:15:00,42.5,37.7,29.79,ENE,71,0.0,0.0,83,0.00,,---,0.00,VWS V13.01,2013-05-17 08:15:00,
2013-05-17 02:16:00,42.5,37.7,29.79,ENE,71,0.0,0.0,83,0.00,,---,0.00,VWS V13.01,2013-05-17 08:16:00,
2013-05-17 02:17:00,42.5,37.7,29.79,ENE,71,0.0,0.0,83,0.00,,---,0.00,VWS V13.01,2013-05-17 08:17:00,
2013-05-17 02:18:00,42.5,37.7,29.79,ENE,71,0.0,0.0,83,0.00,,---,0.00,VWS V13.01,2013-05-17 08:18:00,
2013-05-17 02:19:00,42.3,37.5,29.79,ENE,71,0.0,0.0,83,0.00,,---,0.00,VWS V13.01,2013-05-17 08:19:00,
2013-05-17 02:20:00,42.3,37.5,29.79,ENE,71,0.0,0.0,83,0.00,,---,0.00,VWS V13.01,2013-05-17 08:20:00,
2013-05-17 02:21:00,42.3,37.5,29.79,ENE,71,0.0,0.0,83,0.00,,---,0.00,VWS V13.01,2013-05-17 08:21:00,
2013-05-17 02:22:00,42.3,37.5,29.79,ENE,71,0.0,0.0,83,0.00,,---,0.00,VWS V13.01,2013-05-17 08:22:00,
2013-05-17 02:23:00,42.3,37.8,29.79,ENE,71,0.0,0.0,84,0.00,,---,0.00,VWS V13.01,2013-05-17 08:23:00,
2013-05-17 02:24:00,42.3,37.8,29.79,ENE,71,0.0,0.0,84,0.00,,---,0.00,VWS V13.01,2013-05-17 08:24:00,
2013-05-17 02:25:00,42.3,37.8,29.79,ENE,71,0.0,0.0,84,0.00,,---,0.00,VWS V13.01,2013-05-17 08:25:00,
2013-05-17 02:26:00,42.2,37.7,29.79,ENE,71,0.0,0.0,84,0.00,,---,0.00,VWS V13.01,2013-05-17 08:26:00,
2013-05-17 02:27:00,42.2,37.7,29.79,ENE,71,0.0,0.0,84,0.00,,---,0.00,VWS V13.01,2013-05-17 08:27:00,
2013-05-17 02:28:00,42.2,37.7,29.79,ENE,71,0.0,0.0,84,0.00,,---,0.00,VWS V13.01,2013-05-17 08:28:00,
2013-05-17 02:29:00,42.2,37.7,29.79,ENE,71,0.0,0.0,84,0.00,,---,0.00,VWS V13.01,2013-05-17 08:29:00,
2013-05-17 02:30:00,42.2,37.7,29.79,ENE,71,0.0,0.0,84,0.00,,---,0.00,VWS V13.01,2013-05-17 08:30:00,
2013-05-17 02:31:00,42.2,37.7,29.79,ENE,71,0.0,0.0,84,0.00,,---,0.00,VWS V13.01,2013-05-17 08:31:00,
2013-05-17 02:32:00,42.2,37.7,29.79,ENE,71,0.0,0.0,84,0.00,,---,0.00,VWS V13.01,2013-05-17 08:32:00,
2013-05-17 02:33:00,42.2,37.7,29.79,ENE,71,0.0,0.0,84,0.00,,---,0.00,VWS V13.01,2013-05-17 08:33:00,
2013-05-17 02:34:00,42.2,37.7,29.79,ENE,71,0.0,0.0,84,0.00,,---,0.00,VWS V13.01,2013-05-17 08:34:00,
2013-05-17 02:35:00,42.2,37.7,29.79,ENE,71,0.0,0.0,84,0.00,,---,0.00,VWS V13.01,2013-05-17 08:35:00,
2013-05-17 02:36:00,42.2,37.7,29.79,ENE,71,0.0,0.0,84,0.00,,---,0.00,VWS V13.01,2013-05-17 08:36:00,
2013-05-17 02:37:00,42.1,37.6,29.79,ENE,71,0.0,0.0,84,0.00,,---,0.00,VWS V13.01,2013-05-17 08:37:00,
2013-05-17 02:38:00,42.1,37.6,29.79,ENE,71,0.0,0.0,84,0.00,,---,0.00,VWS V13.01,2013-05-17 08:38:00,
2013-05-17 02:39:00,42.1,37.6,29.79,ENE,71,0.0,0.0,84,0.00,,---,0.00,VWS V13.01,2013-05-17 08:39:00,
2013-05-17 02:40:00,42.1,37.6,29.79,ENE,71,0.0,0.0,84,0.00,,---,0.00,VWS V13.01,2013-05-17 08:40:00,
2013-05-17 02:41:00,42.1,37.6,29.79,ENE,71,0.0,0.0,84,0.00,,---,0.00,VWS V13.01,2013-05-17 08:41:00,
2013-05-17 02:42:00,42.1,37.6,29.79,ENE,71,0.0,0.0,84,0.00,,---,0.00,VWS V13.01,2013-05-17 08:42:00,
2013-05-17 02:43:00,42.1,37.6,29.79,ENE,71,0.0,0.0,84,0.00,,---,0.00,VWS V13.01,2013-05-17 08:43:00,
2013-05-17 02:44:00,42.1,37.6,29.79,ENE,71,0.0,0.0,84,0.00,,---,0.00,VWS V13.01,2013-05-17 08:44:00,
2013-05-17 02:45:00,42.1,37.6,29.79,ENE,71,0.0,0.0,84,0.00,,---,0.00,VWS V13.01,2013-05-17 08:45:00,
2013-05-17 02:46:00,42.1,37.6,29.79,ENE,71,0.0,0.0,84,0.00,,---,0.00,VWS V13.01,2013-05-17 08:46:00,
2013-05-17 02:47:00,42.1,37.6,29.79,ENE,71,0.0,0.0,84,0.00,,---,0.00,VWS V13.01,2013-05-17 08:47:00,
2013-05-17 02:48:00,42.1,37.6,29.79,ENE,71,0.0,0.0,84,0.00,,---,0.00,VWS V13.01,2013-05-17 08:48:00,
2013-05-17 02:49:00,42.1,37.6,29.79,ENE,71,0.0,0.0,84,0.00,,---,0.00,VWS V13.01,2013-05-17 08:49:00,
2013-05-17 02:50:00,42.1,37.6,29.79,ENE,71,0.0,0.0,84,0.00,,---,0.00,VWS V13.01,2013-05-17 08:50:00,
2013-05-17 02:51:00,42.1,37.6,29.79,ENE,71,0.0,0.0,84,0.00,,---,0.00,VWS V13.01,2013-05-17 08:51:00,
2013-05-17 02:52:00,42.1,37.6,29.79,ENE,71,0.0,0.0,84,0.00,,---,0.00,VWS V13.01,2013-05-17 08:52:00,
2013-05-17 02:53:00,42.1,37.6,29.79,ENE,71,0.0,0.0,84,0.00,,---,0.00,VWS V13.01,2013-05-17 08:53:00,
2013-05-17 02:54:00,41.9,37.4,29.79,ENE,71,0.0,0.0,84,0.00,,---,0.00,VWS V13.01,2013-05-17 08:54:00,
2013-05-17 02:55:00,41.9,37.4,29.79,ENE,71,0.0,0.0,84,0.00,,---,0.00,VWS V13.01,2013-05-17 08:55:00,
2013-05-17 02:56:00,41.9,37.4,29.79,ENE,71,0.0,0.0,84,0.00,,---,0.00,VWS V13.01,2013-05-17 08:56:00,
2013-05-17 02:57:00,41.9,37.1,29.79,ENE,71,0.0,0.0,83,0.00,,---,0.00,VWS V13.01,2013-05-17 08:57:00,
2013-05-17 02:58:00,41.8,37.0,29.79,ENE,71,0.0,0.0,83,0.00,,---,0.00,VWS V13.01,2013-05-17 08:58:00,
2013-05-17 02:59:00,41.8,37.0,29.79,ENE,71,0.0,0.0,83,0.00,,---,0.00,VWS V13.01,2013-05-17 08:59:00,
2013-05-17 03:00:00,41.6,36.8,29.79,ENE,71,0.0,0.0,83,0.00,,---,0.00,VWS V13.01,2013-05-17 09:00:00,
2013-05-17 03:01:00,41.6,36.8,29.79,ENE,71,0.0,0.0,83,0.00,,---,0.00,VWS V13.01,2013-05-17 09:01:00,
2013-05-17 03:02:00,41.5,36.7,29.79,ENE,71,0.0,0.0,83,0.00,,---,0.00,VWS V13.01,2013-05-17 09:02:00,
2013-05-17 03:03:00,41.5,36.7,29.79,ENE,71,0.0,0.0,83,0.00,,---,0.00,VWS V13.01,2013-05-17 09:03:00,
2013-05-17 03:04:00,41.3,36.5,29.79,ENE,71,0.0,0.0,83,0.00,,---,0.00,VWS V13.01,2013-05-17 09:04:00,
2013-05-17 03:05:00,41.3,36.5,29.79,ENE,71,0.0,0.0,83,0.00,,---,0.00,VWS V13.01,2013-05-17 09:05:00,
2013-05-17 03:06:00,41.2,36.4,29.79,ENE,71,0.0,0.0,83,0.00,,---,0.00,VWS V13.01,2013-05-17 09:06:00,
2013-05-17 03:07:00,41.2,36.4,29.79,ENE,71,0.0,0.0,83,0.00,,---,0.00,VWS V13.01,2013-05-17 09:07:00,
2013-05-17 03:08:00,41.2,36.7,29.79,ENE,71,0.0,0.0,84,0.00,,---,0.00,VWS V13.01,2013-05-17 09:08:00,
2013-05-17 03:09:00,41.2,36.7,29.79,ENE,71,0.0,0.0,84,0.00,,---,0.00,VWS V13.01,2013-05-17 09:09:00,
2013-05-17 03:10:00,41.2,36.7,29.79,ENE,71,0.0,0.0,84,0.00,,---,0.00,VWS V13.01,2013-05-17 09:10:00,
2013-05-17 03:11:00,41.1,36.6,29.79,ENE,71,0.0,0.0,84,0.00,,---,0.00,VWS V13.01,2013-05-17 09:11:00,
2013-05-17 03:12:00,41.1,36.6,29.79,ENE,71,0.0,0.0,84,0.00,,---,0.00,VWS V13.01,2013-05-17 09:12:00,
2013-05-17 03:13:00,41.1,36.6,29.79,ENE,71,0.0,0.0,84,0.00,,---,0.00,VWS V13.01,2013-05-17 09:13:00,
2013-05-17 03:14:00,41.1,36.6,29.79,ENE,71,0.0,0.0,84,0.00,,---,0.00,VWS V13.01,2013-05-17 09:14:00,
2013-05-17 03:15:00,41.1,36.6,29.79,ENE,71,0.0,0.0,84,0.00,,---,0.00,VWS V13.01,2013-05-17 09:15:00,
2013-05-17 03:16:00,40.9,36.5,29.79,ENE,71,0.0,0.0,84,0.00,,---,0.00,VWS V13.01,2013-05-17 09:16:00,
2013-05-17 03:17:00,40.9,36.8,29.79,ENE,71,0.0,0.0,85,0.00,,---,0.00,VWS V13.01,2013-05-17 09:17:00,
2013-05-17 03:18:00,40.9,36.8,29.79,ENE,71,0.0,0.0,85,0.00,,---,0.00,VWS V13.01,2013-05-17 09:18:00,
2013-05-17 03:19:00,40.9,36.8,29.79,ENE,71,0.0,0.0,85,0.00,,---,0.00,VWS V13.01,2013-05-17 09:19:00,
2013-05-17 03:20:00,40.9,36.8,29.79,ENE,71,0.0,0.0,85,0.00,,---,0.00,VWS V13.01,2013-05-17 09:20:00,
2013-05-17 03:21:00,40.9,36.8,29.79,ENE,71,0.0,0.0,85,0.00,,---,0.00,VWS V13.01,2013-05-17 09:21:00,
2013-05-17 03:22:00,40.9,36.8,29.79,ENE,71,0.0,0.0,85,0.00,,---,0.00,VWS V13.01,2013-05-17 09:22:00,
2013-05-17 03:23:00,40.9,36.8,29.79,ENE,71,0.0,0.0,85,0.00,,---,0.00,VWS V13.01,2013-05-17 09:23:00,
2013-05-17 03:24:00,40.8,36.7,29.79,ENE,71,0.0,0.0,85,0.00,,---,0.00,VWS V13.01,2013-05-17 09:24:00,
2013-05-17 03:25:00,40.8,36.7,29.79,ENE,71,0.0,0.0,85,0.00,,---,0.00,VWS V13.01,2013-05-17 09:25:00,
2013-05-17 03:26:00,40.8,36.7,29.79,ENE,71,0.0,0.0,85,0.00,,---,0.00,VWS V13.01,2013-05-17 09:26:00,
2013-05-17 03:27:00,40.8,36.7,29.79,ENE,71,0.0,0.0,85,0.00,,---,0.00,VWS V13.01,2013-05-17 09:27:00,
2013-05-17 03:28:00,40.8,36.9,29.79,ENE,71,0.0,0.0,86,0.00,,---,0.00,VWS V13.01,2013-05-17 09:28:00,
2013-05-17 03:29:00,40.8,36.9,29.79,ENE,71,0.0,0.0,86,0.00,,---,0.00,VWS V13.01,2013-05-17 09:29:00,
2013-05-17 03:30:00,40.8,36.9,29.79,ENE,71,0.0,0.0,86,0.00,,---,0.00,VWS V13.01,2013-05-17 09:30:00,
2013-05-17 03:31:00,40.8,36.7,29.79,ENE,71,0.0,0.0,85,0.00,,---,0.00,VWS V13.01,2013-05-17 09:31:00,
2013-05-17 03:32:00,40.8,36.7,29.79,ENE,71,0.0,0.0,85,0.00,,---,0.00,VWS V13.01,2013-05-17 09:32:00,
2013-05-17 03:33:00,40.8,36.7,29.79,ENE,71,0.0,0.0,85,0.00,,---,0.00,VWS V13.01,2013-05-17 09:33:00,
2013-05-17 03:34:00,40.6,36.5,29.79,ENE,71,0.0,0.0,85,0.00,,---,0.00,VWS V13.01,2013-05-17 09:34:00,
2013-05-17 03:35:00,40.6,36.5,29.79,ENE,71,0.0,0.0,85,0.00,,---,0.00,VWS V13.01,2013-05-17 09:35:00,
2013-05-17 03:36:00,40.6,36.5,29.79,ENE,71,0.0,0.0,85,0.00,,---,0.00,VWS V13.01,2013-05-17 09:36:00,
2013-05-17 03:37:00,40.6,36.5,29.79,ENE,71,0.0,0.0,85,0.00,,---,0.00,VWS V13.01,2013-05-17 09:37:00,
2013-05-17 03:38:00,40.5,36.3,29.79,ENE,71,0.0,0.0,85,0.00,,---,0.00,VWS V13.01,2013-05-17 09:38:00,
2013-05-17 03:39:00,40.5,36.3,29.79,ENE,71,0.0,0.0,85,0.00,,---,0.00,VWS V13.01,2013-05-17 09:39:00,
2013-05-17 03:40:00,40.5,36.3,29.79,ENE,71,0.0,0.0,85,0.00,,---,0.00,VWS V13.01,2013-05-17 09:40:00,
2013-05-17 03:41:00,40.5,36.3,29.79,ENE,71,0.0,0.0,85,0.00,,---,0.00,VWS V13.01,2013-05-17 09:41:00,
2013-05-17 03:42:00,40.5,36.7,29.79,ENE,71,0.0,0.0,86,0.00,,---,0.00,VWS V13.01,2013-05-17 09:42:00,
2013-05-17 03:43:00,40.5,36.7,29.79,ENE,71,0.0,0.0,86,0.00,,---,0.00,VWS V13.01,2013-05-17 09:43:00,
2013-05-17 03:44:00,40.5,36.7,29.79,ENE,71,0.0,0.0,86,0.00,,---,0.00,VWS V13.01,2013-05-17 09:44:00,
2013-05-17 03:45:00,40.5,36.7,29.79,ENE,71,0.0,0.0,86,0.00,,---,0.00,VWS V13.01,2013-05-17 09:45:00,
2013-05-17 03:46:00,40.5,36.7,29.79,ENE,71,0.0,0.0,86,0.00,,---,0.00,VWS V13.01,2013-05-17 09:46:00,
2013-05-17 03:47:00,40.5,36.3,29.79,ENE,71,0.0,0.0,85,0.00,,---,0.00,VWS V13.01,2013-05-17 09:47:00,
2013-05-17 03:48:00,40.3,36.2,29.79,ENE,71,0.0,0.0,85,0.00,,---,0.00,VWS V13.01,2013-05-17 09:48:00,
2013-05-17 03:49:00,40.3,36.2,29.79,ENE,71,0.0,0.0,85,0.00,,---,0.00,VWS V13.01,2013-05-17 09:49:00,
2013-05-17 03:50:00,40.3,36.2,29.79,ENE,71,0.0,0.0,85,0.00,,---,0.00,VWS V13.01,2013-05-17 09:50:00,
2013-05-17 03:51:00,40.3,36.2,29.79,ENE,71,0.0,0.0,85,0.00,,---,0.00,VWS V13.01,2013-05-17 09:51:00,
2013-05-17 03:52:00,40.3,36.2,29.79,ENE,71,0.0,0.0,85,0.00,,---,0.00,VWS V13.01,2013-05-17 09:52:00,
2013-05-17 03:53:00,40.3,36.5,29.79,ENE,71,0.0,0.0,86,0.00,,---,0.00,VWS V13.01,2013-05-17 09:53:00,
2013-05-17 03:54:00,40.3,36.5,29.79,ENE,71,0.0,0.0,86,0.00,,---,0.00,VWS V13.01,2013-05-17 09:54:00,
2013-05-17 03:55:00,40.2,36.3,29.79,ENE,71,0.0,0.0,86,0.00,,---,0.00,VWS V13.01,2013-05-17 09:55:00,
2013-05-17 03:56:00,40.2,36.3,29.79,ENE,71,0.0,0.0,86,0.00,,---,0.00,VWS V13.01,2013-05-17 09:56:00,
2013-05-17 03:57:00,40.2,36.3,29.79,ENE,71,0.0,0.0,86,0.00,,---,0.00,VWS V13.01,2013-05-17 09:57:00,
2013-05-17 03:58:00,40.2,36.3,29.79,ENE,71,0.0,0.0,86,0.00,,---,0.00,VWS V13.01,2013-05-17 09:58:00,
2013-05-17 03:59:00,40.2,36.3,29.80,ENE,71,0.0,0.0,86,0.00,,---,0.00,VWS V13.01,2013-05-17 09:59:00,
2013-05-17 04:00:00,40.2,36.3,29.80,ENE,71,0.0,0.0,86,0.00,,---,0.00,VWS V13.01,2013-05-17 10:00:00,
2013-05-17 04:01:00,40.2,36.3,29.80,ENE,71,0.0,0.0,86,0.00,,---,0.00,VWS V13.01,2013-05-17 10:01:00,
2013-05-17 04:02:00,40.2,36.3,29.80,ENE,71,0.0,0.0,86,0.00,,---,0.00,VWS V13.01,2013-05-17 10:02:00,
2013-05-17 04:03:00,40.1,36.3,29.80,ENE,71,0.0,0.0,86,0.00,,---,0.00,VWS V13.01,2013-05-17 10:03:00,
2013-05-17 04:04:00,40.1,36.3,29.80,ENE,71,0.0,0.0,86,0.00,,---,0.00,VWS V13.01,2013-05-17 10:04:00,
2013-05-17 04:05:00,40.1,36.3,29.80,ENE,71,0.0,0.0,86,0.00,,---,0.00,VWS V13.01,2013-05-17 10:05:00,
2013-05-17 04:06:00,40.1,36.3,29.80,ENE,71,0.0,0.0,86,0.00,,---,0.00,VWS V13.01,2013-05-17 10:06:00,
2013-05-17 04:07:00,40.1,36.3,29.80,ENE,71,0.0,0.0,86,0.00,,---,0.00,VWS V13.01,2013-05-17 10:07:00,
2013-05-17 04:08:00,40.1,36.3,29.80,ENE,71,0.0,0.0,86,0.00,,---,0.00,VWS V13.01,2013-05-17 10:08:00,
2013-05-17 04:09:00,40.1,36.3,29.80,ENE,71,0.0,0.0,86,0.00,,---,0.00,VWS V13.01,2013-05-17 10:09:00,
2013-05-17 04:10:00,39.9,36.1,29.80,ENE,71,0.0,0.0,86,0.00,,---,0.00,VWS V13.01,2013-05-17 10:10:00,
2013-05-17 04:11:00,39.9,36.1,29.80,ENE,71,0.0,0.0,86,0.00,,---,0.00,VWS V13.01,2013-05-17 10:11:00,
2013-05-17 04:12:00,39.9,36.1,29.80,ENE,71,0.0,0.0,86,0.00,,---,0.00,VWS V13.01,2013-05-17 10:12:00,
2013-05-17 04:13:00,39.9,36.1,29.80,ENE,71,0.0,0.0,86,0.00,,---,0.00,VWS V13.01,2013-05-17 10:13:00,
2013-05-17 04:14:00,39.9,35.8,29.81,ENE,71,0.0,0.0,85,0.00,,---,0.00,VWS V13.01,2013-05-17 10:14:00,
2013-05-17 04:15:00,39.9,35.8,29.81,ENE,71,0.0,0.0,85,0.00,,---,0.00,VWS V13.01,2013-05-17 10:15:00,
2013-05-17 04:16:00,39.9,35.8,29.81,ENE,71,0.0,0.0,85,0.00,,---,0.00,VWS V13.01,2013-05-17 10:16:00,
2013-05-17 04:17:00,39.8,35.7,29.81,ENE,71,0.0,0.0,85,0.00,,---,0.00,VWS V13.01,2013-05-17 10:17:00,
2013-05-17 04:18:00,39.8,35.7,29.81,ENE,71,0.0,0.0,85,0.00,,---,0.00,VWS V13.01,2013-05-17 10:18:00,
2013-05-17 04:19:00,39.8,35.7,29.81,ENE,71,0.0,0.0,85,0.00,,---,0.00,VWS V13.01,2013-05-17 10:19:00,
2013-05-17 04:20:00,39.6,35.5,29.81,ENE,71,0.0,0.0,85,0.00,,---,0.00,VWS V13.01,2013-05-17 10:20:00,
2013-05-17 04:21:00,39.6,35.5,29.81,ENE,71,0.0,0.0,85,0.00,,---,0.00,VWS V13.01,2013-05-17 10:21:00,
2013-05-17 04:22:00,39.6,35.5,29.81,ENE,71,0.0,0.0,85,0.00,,---,0.00,VWS V13.01,2013-05-17 10:22:00,
2013-05-17 04:23:00,39.6,35.5,29.81,ENE,71,0.0,0.0,85,0.00,,---,0.00,VWS V13.01,2013-05-17 10:23:00,
2013-05-17 04:24:00,39.6,35.5,29.81,ENE,71,0.0,0.0,85,0.00,,---,0.00,VWS V13.01,2013-05-17 10:24:00,
2013-05-17 04:25:00,39.5,35.4,29.81,ENE,71,0.0,0.0,85,0.00,,---,0.00,VWS V13.01,2013-05-17 10:25:00,
2013-05-17 04:26:00,39.5,35.4,29.81,ENE,71,0.0,0.0,85,0.00,,---,0.00,VWS V13.01,2013-05-17 10:26:00,
2013-05-17 04:27:00,39.5,35.4,29.81,ENE,71,0.0,0.0,85,0.00,,---,0.00,VWS V13.01,2013-05-17 10:27:00,
2013-05-17 04:28:00,39.5,35.4,29.81,ENE,71,0.0,0.0,85,0.00,,---,0.00,VWS V13.01,2013-05-17 10:28:00,
2013-05-17 04:29:00,39.3,35.2,29.81,ENE,71,0.0,0.0,85,0.00,,---,0.00,VWS V13.01,2013-05-17 10:29:00,
2013-05-17 04:30:00,39.3,35.2,29.82,ENE,71,0.0,0.0,85,0.00,,---,0.00,VWS V13.01,2013-05-17 10:30:00,
2013-05-17 04:31:00,39.3,35.5,29.82,ENE,71,0.0,0.0,86,0.00,,---,0.00,VWS V13.01,2013-05-17 10:31:00,
2013-05-17 04:32:00,39.3,35.5,29.82,ENE,71,0.0,0.0,86,0.00,,---,0.00,VWS V13.01,2013-05-17 10:32:00,
2013-05-17 04:33:00,39.3,35.5,29.82,ENE,71,0.0,0.0,86,0.00,,---,0.00,VWS V13.01,2013-05-17 10:33:00,
2013-05-17 04:34:00,39.3,35.5,29.82,ENE,71,0.0,0.0,86,0.00,,---,0.00,VWS V13.01,2013-05-17 10:34:00,
2013-05-17 04:35:00,39.3,35.5,29.82,ENE,71,0.0,0.0,86,0.00,,---,0.00,VWS V13.01,2013-05-17 10:35:00,
2013-05-17 04:36:00,39.3,35.8,29.82,ENE,71,0.0,0.0,87,0.00,,---,0.00,VWS V13.01,2013-05-17 10:36:00,
2013-05-17 04:37:00,39.3,35.8,29.82,ENE,71,0.0,0.0,87,0.00,,---,0.00,VWS V13.01,2013-05-17 10:37:00,
2013-05-17 04:38:00,39.3,35.8,29.82,ENE,71,0.0,0.0,87,0.00,,---,0.00,VWS V13.01,2013-05-17 10:38:00,
2013-05-17 04:39:00,39.3,35.8,29.82,ENE,71,0.0,0.0,87,0.00,,---,0.00,VWS V13.01,2013-05-17 10:39:00,
2013-05-17 04:40:00,39.3,35.8,29.82,ENE,71,0.0,0.0,87,0.00,,---,0.00,VWS V13.01,2013-05-17 10:40:00,
2013-05-17 04:41:00,39.3,35.8,29.82,ENE,71,0.0,0.0,87,0.00,,---,0.00,VWS V13.01,2013-05-17 10:41:00,
2013-05-17 04:42:00,39.5,36.0,29.82,ENE,71,0.0,0.0,87,0.00,,---,0.00,VWS V13.01,2013-05-17 10:42:00,
2013-05-17 04:43:00,39.5,36.0,29.82,ENE,71,0.0,0.0,87,0.00,,---,0.00,VWS V13.01,2013-05-17 10:43:00,
2013-05-17 04:44:00,39.3,35.8,29.82,ENE,71,0.0,0.0,87,0.00,,---,0.00,VWS V13.01,2013-05-17 10:44:00,
2013-05-17 04:45:00,39.3,35.5,29.82,ENE,71,0.0,0.0,86,0.00,,---,0.00,VWS V13.01,2013-05-17 10:45:00,
2013-05-17 04:46:00,39.3,35.5,29.82,ENE,71,0.0,0.0,86,0.00,,---,0.00,VWS V13.01,2013-05-17 10:46:00,
2013-05-17 04:47:00,39.3,35.5,29.82,ENE,71,0.0,0.0,86,0.00,,---,0.00,VWS V13.01,2013-05-17 10:47:00,
2013-05-17 04:48:00,39.3,35.5,29.82,ENE,71,0.0,0.0,86,0.00,,---,0.00,VWS V13.01,2013-05-17 10:48:00,
2013-05-17 04:49:00,39.2,35.4,29.82,ENE,71,0.0,0.0,86,0.00,,---,0.00,VWS V13.01,2013-05-17 10:49:00,
2013-05-17 04:50:00,39.2,35.4,29.82,ENE,71,0.0,0.0,86,0.00,,---,0.00,VWS V13.01,2013-05-17 10:50:00,
2013-05-17 04:51:00,39.2,35.4,29.82,ENE,71,0.0,0.0,86,0.00,,---,0.00,VWS V13.01,2013-05-17 10:51:00,
2013-05-17 04:52:00,39.2,35.4,29.82,ENE,71,0.0,0.0,86,0.00,,---,0.00,VWS V13.01,2013-05-17 10:52:00,
2013-05-17 04:53:00,39.2,35.4,29.82,ENE,71,0.0,0.0,86,0.00,,---,0.00,VWS V13.01,2013-05-17 10:53:00,
2013-05-17 04:54:00,39.1,35.3,29.82,ENE,71,0.0,0.0,86,0.00,,---,0.00,VWS V13.01,2013-05-17 10:54:00,
2013-05-17 04:55:00,39.1,35.3,29.82,ENE,71,0.0,0.0,86,0.00,,---,0.00,VWS V13.01,2013-05-17 10:55:00,
2013-05-17 04:56:00,39.1,35.3,29.82,ENE,71,0.0,0.0,86,0.00,,---,0.00,VWS V13.01,2013-05-17 10:56:00,
2013-05-17 04:57:00,39.1,35.3,29.82,ENE,71,0.0,0.0,86,0.00,,---,0.00,VWS V13.01,2013-05-17 10:57:00,
2013-05-17 04:58:00,39.1,35.3,29.82,ENE,71,0.0,0.0,86,0.00,,---,0.00,VWS V13.01,2013-05-17 10:58:00,
2013-05-17 04:59:00,39.1,35.3,29.83,ENE,71,0.0,0.0,86,0.00,,---,0.00,VWS V13.01,2013-05-17 10:59:00,
2013-05-17 05:00:00,39.1,35.3,29.83,ENE,71,0.0,0.0,86,0.00,,---,0.00,VWS V13.01,2013-05-17 11:00:00,
2013-05-17 05:01:00,38.9,35.1,29.83,ENE,71,0.0,0.0,86,0.00,,---,0.00,VWS V13.01,2013-05-17 11:01:00,
2013-05-17 05:02:00,38.9,35.1,29.83,ENE,71,0.0,0.0,86,0.00,,---,0.00,VWS V13.01,2013-05-17 11:02:00,
2013-05-17 05:03:00,38.9,35.1,29.83,ENE,71,0.0,0.0,86,0.00,,---,0.00,VWS V13.01,2013-05-17 11:03:00,
2013-05-17 05:04:00,38.9,35.4,29.83,ENE,71,0.0,0.0,87,0.00,,---,0.00,VWS V13.01,2013-05-17 11:04:00,
2013-05-17 05:05:00,38.9,35.4,29.83,ENE,71,0.0,0.0,87,0.00,,---,0.00,VWS V13.01,2013-05-17 11:05:00,
2013-05-17 05:06:00,38.9,35.4,29.83,ENE,71,0.0,0.0,87,0.00,,---,0.00,VWS V13.01,2013-05-17 11:06:00,
2013-05-17 05:07:00,38.9,35.4,29.83,ENE,71,0.0,0.0,87,0.00,,---,0.00,VWS V13.01,2013-05-17 11:07:00,
2013-05-17 05:08:00,38.9,35.4,29.83,ENE,71,0.0,0.0,87,0.00,,---,0.00,VWS V13.01,2013-05-17 11:08:00,
2013-05-17 05:09:00,38.9,35.4,29.83,ENE,71,0.0,0.0,87,0.00,,---,0.00,VWS V13.01,2013-05-17 11:09:00,
2013-05-17 05:10:00,38.9,35.4,29.83,ENE,71,0.0,0.0,87,0.00,,---,0.00,VWS V13.01,2013-05-17 11:10:00,
2013-05-17 05:11:00,38.9,35.4,29.83,ENE,71,0.0,0.0,87,0.00,,---,0.00,VWS V13.01,2013-05-17 11:11:00,
2013-05-17 05:12:00,38.9,35.4,29.83,ENE,71,0.0,0.0,87,0.00,,---,0.00,VWS V13.01,2013-05-17 11:12:00,
2013-05-17 05:13:00,38.9,35.4,29.83,ENE,71,0.0,0.0,87,0.00,,---,0.00,VWS V13.01,2013-05-17 11:13:00,
2013-05-17 05:14:00,38.9,35.4,29.84,ENE,71,0.0,0.0,87,0.00,,---,0.00,VWS V13.01,2013-05-17 11:14:00,
2013-05-17 05:15:00,38.9,35.4,29.84,ENE,71,0.0,0.0,87,0.00,,---,0.00,VWS V13.01,2013-05-17 11:15:00,
2013-05-17 05:16:00,39.1,35.6,29.84,ENE,71,0.0,0.0,87,0.00,,---,0.00,VWS V13.01,2013-05-17 11:16:00,
2013-05-17 05:17:00,39.1,35.8,29.84,ENE,71,0.0,0.0,88,0.00,,---,0.00,VWS V13.01,2013-05-17 11:17:00,
2013-05-17 05:18:00,39.1,35.8,29.84,ENE,71,0.0,0.0,88,0.00,,---,0.00,VWS V13.01,2013-05-17 11:18:00,
2013-05-17 05:19:00,39.1,35.8,29.84,ENE,71,0.0,0.0,88,0.00,,---,0.00,VWS V13.01,2013-05-17 11:19:00,
2013-05-17 05:20:00,39.2,35.7,29.84,ENE,71,0.0,0.0,87,0.00,,---,0.00,VWS V13.01,2013-05-17 11:20:00,
2013-05-17 05:21:00,39.2,35.7,29.84,ENE,71,0.0,0.0,87,0.00,,---,0.00,VWS V13.01,2013-05-17 11:21:00,
2013-05-17 05:22:00,39.2,35.7,29.84,ENE,71,0.0,0.0,87,0.00,,---,0.00,VWS V13.01,2013-05-17 11:22:00,
2013-05-17 05:23:00,39.1,35.6,29.84,ENE,71,0.0,0.0,87,0.00,,---,0.00,VWS V13.01,2013-05-17 11:23:00,
2013-05-17 05:24:00,39.1,35.6,29.84,ENE,71,0.0,0.0,87,0.00,,---,0.00,VWS V13.01,2013-05-17 11:24:00,
2013-05-17 05:25:00,39.1,35.6,29.84,ENE,71,0.0,0.0,87,0.00,,---,0.00,VWS V13.01,2013-05-17 11:25:00,
2013-05-17 05:26:00,39.1,35.6,29.84,ENE,71,0.0,0.0,87,0.00,,---,0.00,VWS V13.01,2013-05-17 11:26:00,
2013-05-17 05:27:00,39.1,35.6,29.84,ENE,71,0.0,0.0,87,0.00,,---,0.00,VWS V13.01,2013-05-17 11:27:00,
2013-05-17 05:28:00,39.1,35.6,29.84,ENE,71,0.0,0.0,87,0.00,,---,0.00,VWS V13.01,2013-05-17 11:28:00,
2013-05-17 05:29:00,39.1,35.6,29.84,ENE,71,0.0,0.0,87,0.00,,---,0.00,VWS V13.01,2013-05-17 11:29:00,
2013-05-17 05:30:00,39.1,35.6,29.84,ENE,71,0.0,0.0,87,0.00,,---,0.00,VWS V13.01,2013-05-17 11:30:00,
2013-05-17 05:31:00,39.1,35.6,29.84,ENE,71,0.0,0.0,87,0.00,,---,0.00,VWS V13.01,2013-05-17 11:31:00,
2013-05-17 05:32:00,39.1,35.6,29.84,ENE,71,0.0,0.0,87,0.00,,---,0.00,VWS V13.01,2013-05-17 11:32:00,
2013-05-17 05:33:00,39.1,35.6,29.84,ENE,71,0.0,0.0,87,0.00,,---,0.00,VWS V13.01,2013-05-17 11:33:00,
2013-05-17 05:34:00,39.1,35.6,29.84,ENE,71,0.0,0.0,87,0.00,,---,0.00,VWS V13.01,2013-05-17 11:34:00,
2013-05-17 05:35:00,39.2,35.7,29.84,ENE,71,0.0,0.0,87,0.00,,---,0.00,VWS V13.01,2013-05-17 11:35:00,
2013-05-17 05:36:00,39.2,35.7,29.84,ENE,71,0.0,0.0,87,0.00,,---,0.00,VWS V13.01,2013-05-17 11:36:00,
2013-05-17 05:37:00,39.2,36.0,29.84,ENE,71,0.0,0.0,88,0.00,,---,0.00,VWS V13.01,2013-05-17 11:37:00,
2013-05-17 05:38:00,39.3,36.0,29.84,ENE,71,0.0,0.0,88,0.00,,---,0.00,VWS V13.01,2013-05-17 11:38:00,
2013-05-17 05:39:00,39.3,36.0,29.84,ENE,71,0.0,0.0,88,0.00,,---,0.00,VWS V13.01,2013-05-17 11:39:00,
2013-05-17 05:40:00,39.3,36.0,29.84,ENE,71,0.0,0.0,88,0.00,,---,0.00,VWS V13.01,2013-05-17 11:40:00,
2013-05-17 05:41:00,39.5,36.2,29.84,ENE,71,0.0,0.0,88,0.00,,---,0.00,VWS V13.01,2013-05-17 11:41:00,
2013-05-17 05:42:00,39.5,36.2,29.84,ENE,71,0.0,0.0,88,0.00,,---,0.00,VWS V13.01,2013-05-17 11:42:00,
2013-05-17 05:43:00,39.5,36.2,29.84,ENE,71,0.0,0.0,88,0.00,,---,0.00,VWS V13.01,2013-05-17 11:43:00,
2013-05-17 05:44:00,39.6,36.3,29.84,ENE,71,0.0,0.0,88,0.00,,---,0.00,VWS V13.01,2013-05-17 11:44:00,
2013-05-17 05:45:00,39.6,36.3,29.83,ENE,71,0.0,0.0,88,0.00,,---,0.00,VWS V13.01,2013-05-17 11:45:00,
2013-05-17 05:46:00,39.8,36.8,29.83,ENE,71,0.0,0.0,89,0.00,,---,0.00,VWS V13.01,2013-05-17 11:46:00,
2013-05-17 05:47:00,39.9,36.9,29.83,ENE,71,0.0,0.0,89,0.00,,---,0.00,VWS V13.01,2013-05-17 11:47:00,
2013-05-17 05:48:00,39.9,36.9,29.83,ENE,71,0.0,0.0,89,0.00,,---,0.00,VWS V13.01,2013-05-17 11:48:00,
2013-05-17 05:49:00,40.1,37.1,29.83,ENE,71,0.0,0.0,89,0.00,,---,0.00,VWS V13.01,2013-05-17 11:49:00,
2013-05-17 05:50:00,40.2,37.2,29.83,ENE,71,0.0,0.0,89,0.00,,---,0.00,VWS V13.01,2013-05-17 11:50:00,
2013-05-17 05:51:00,40.2,37.2,29.83,ENE,71,0.0,0.0,89,0.00,,---,0.00,VWS V13.01,2013-05-17 11:51:00,
2013-05-17 05:52:00,40.3,37.3,29.83,ENE,71,0.0,0.0,89,0.00,,---,0.00,VWS V13.01,2013-05-17 11:52:00,
2013-05-17 05:53:00,40.3,37.3,29.83,ENE,71,0.0,0.0,89,0.00,,---,0.00,VWS V13.01,2013-05-17 11:53:00,
2013-05-17 05:54:00,40.3,37.3,29.83,ENE,71,0.0,0.0,89,0.00,,---,0.00,VWS V13.01,2013-05-17 11:54:00,
2013-05-17 05:55:00,40.5,37.5,29.83,ENE,71,0.0,0.0,89,0.00,,---,0.00,VWS V13.01,2013-05-17 11:55:00,
2013-05-17 05:56:00,40.5,37.2,29.83,ENE,71,0.0,0.0,88,0.00,,---,0.00,VWS V13.01,2013-05-17 11:56:00,
2013-05-17 05:57:00,40.5,37.2,29.83,ENE,71,0.0,0.0,88,0.00,,---,0.00,VWS V13.01,2013-05-17 11:57:00,
2013-05-17 05:58:00,40.5,37.2,29.83,ENE,71,0.0,0.0,88,0.00,,---,0.00,VWS V13.01,2013-05-17 11:58:00,
2013-05-17 05:59:00,40.6,37.3,29.83,ENE,71,0.0,0.0,88,0.00,,---,0.00,VWS V13.01,2013-05-17 11:59:00,
2013-05-17 06:00:00,40.6,37.3,29.83,ENE,71,0.0,0.0,88,0.00,,---,0.00,VWS V13.01,2013-05-17 12:00:00,
2013-05-17 06:01:00,40.6,37.3,29.83,ENE,71,0.0,0.0,88,0.00,,---,0.00,VWS V13.01,2013-05-17 12:01:00,
2013-05-17 06:02:00,40.6,37.3,29.83,ENE,71,0.0,0.0,88,0.00,,---,0.00,VWS V13.01,2013-05-17 12:02:00,
2013-05-17 06:03:00,40.6,37.3,29.83,ENE,71,0.0,0.0,88,0.00,,---,0.00,VWS V13.01,2013-05-17 12:03:00,
2013-05-17 06:04:00,40.6,37.3,29.83,ENE,71,0.0,0.0,88,0.00,,---,0.00,VWS V13.01,2013-05-17 12:04:00,
2013-05-17 06:05:00,40.8,37.5,29.83,ENE,71,0.0,0.0,88,0.00,,---,0.00,VWS V13.01,2013-05-17 12:05:00,
2013-05-17 06:06:00,40.8,37.5,29.83,ENE,71,0.0,0.0,88,0.00,,---,0.00,VWS V13.01,2013-05-17 12:06:00,
2013-05-17 06:07:00,40.8,37.5,29.83,ENE,71,0.0,0.0,88,0.00,,---,0.00,VWS V13.01,2013-05-17 12:07:00,
2013-05-17 06:08:00,40.8,37.5,29.83,ENE,71,0.0,0.0,88,0.00,,---,0.00,VWS V13.01,2013-05-17 12:08:00,
2013-05-17 06:09:00,40.9,37.6,29.83,ENE,71,0.0,0.0,88,0.00,,---,0.00,VWS V13.01,2013-05-17 12:09:00,
2013-05-17 06:10:00,40.9,37.6,29.83,ENE,71,0.0,0.0,88,0.00,,---,0.00,VWS V13.01,2013-05-17 12:10:00,
2013-05-17 06:11:00,40.9,37.6,29.83,ENE,71,0.0,0.0,88,0.00,,---,0.00,VWS V13.01,2013-05-17 12:11:00,
2013-05-17 06:12:00,41.1,37.8,29.83,ENE,71,0.0,0.0,88,0.00,,---,0.00,VWS V13.01,2013-05-17 12:12:00,
2013-05-17 06:13:00,41.1,37.8,29.83,ENE,71,0.0,0.0,88,0.00,,---,0.00,VWS V13.01,2013-05-17 12:13:00,
2013-05-17 06:14:00,41.1,37.8,29.84,ENE,71,0.0,0.0,88,0.00,,---,0.00,VWS V13.01,2013-05-17 12:14:00,
2013-05-17 06:15:00,41.2,37.9,29.84,ENE,71,0.0,0.0,88,0.00,,---,0.00,VWS V13.01,2013-05-17 12:15:00,
2013-05-17 06:16:00,41.2,37.9,29.84,ENE,71,0.0,0.0,88,0.00,,---,0.00,VWS V13.01,2013-05-17 12:16:00,
2013-05-17 06:17:00,41.2,37.9,29.84,ENE,71,0.0,0.0,88,0.00,,---,0.00,VWS V13.01,2013-05-17 12:17:00,
2013-05-17 06:18:00,41.2,37.9,29.84,ENE,71,0.0,0.0,88,0.00,,---,0.00,VWS V13.01,2013-05-17 12:18:00,
2013-05-17 06:19:00,41.3,38.0,29.84,ENE,71,0.0,0.0,88,0.00,,---,0.00,VWS V13.01,2013-05-17 12:19:00,
2013-05-17 06:20:00,41.3,38.0,29.84,ENE,71,0.0,0.0,88,0.00,,---,0.00,VWS V13.01,2013-05-17 12:20:00,
2013-05-17 06:21:00,41.3,38.0,29.84,ENE,71,0.0,0.0,88,0.00,,---,0.00,VWS V13.01,2013-05-17 12:21:00,
2013-05-17 06:22:00,41.5,38.2,29.84,ENE,71,0.0,0.0,88,0.00,,---,0.00,VWS V13.01,2013-05-17 12:22:00,
2013-05-17 06:23:00,41.5,38.2,29.84,ENE,71,0.0,0.0,88,0.00,,---,0.00,VWS V13.01,2013-05-17 12:23:00,
2013-05-17 06:24:00,41.5,38.2,29.84,ENE,71,0.0,0.0,88,0.00,,---,0.00,VWS V13.01,2013-05-17 12:24:00,
2013-05-17 06:25:00,41.6,38.3,29.84,ENE,71,0.0,0.0,88,0.00,,---,0.00,VWS V13.01,2013-05-17 12:25:00,
2013-05-17 06:26:00,41.6,38.3,29.84,ENE,71,0.0,0.0,88,0.00,,---,0.00,VWS V13.01,2013-05-17 12:26:00,
2013-05-17 06:27:00,41.6,38.3,29.84,ENE,71,0.0,0.0,88,0.00,,---,0.00,VWS V13.01,2013-05-17 12:27:00,
2013-05-17 06:28:00,41.8,38.5,29.84,ENE,71,0.0,0.0,88,0.00,,---,0.00,VWS V13.01,2013-05-17 12:28:00,
2013-05-17 06:29:00,41.8,38.5,29.84,ENE,71,0.0,0.0,88,0.00,,---,0.00,VWS V13.01,2013-05-17 12:29:00,
2013-05-17 06:30:00,41.8,38.5,29.84,ENE,71,0.0,0.0,88,0.00,,---,0.00,VWS V13.01,2013-05-17 12:30:00,
2013-05-17 06:31:00,41.8,38.5,29.84,ENE,71,0.0,0.0,88,0.00,,---,0.00,VWS V13.01,2013-05-17 12:31:00,
2013-05-17 06:32:00,41.9,38.6,29.84,ENE,71,0.0,0.0,88,0.00,,---,0.00,VWS V13.01,2013-05-17 12:32:00,
2013-05-17 06:33:00,41.9,38.6,29.84,ENE,71,0.0,0.0,88,0.00,,---,0.00,VWS V13.01,2013-05-17 12:33:00,
2013-05-17 06:34:00,41.9,38.6,29.84,ENE,71,0.0,0.0,88,0.00,,---,0.00,VWS V13.01,2013-05-17 12:34:00,
2013-05-17 06:35:00,41.9,38.6,29.84,ENE,71,0.0,0.0,88,0.00,,---,0.00,VWS V13.01,2013-05-17 12:35:00,
2013-05-17 06:36:00,42.1,38.8,29.84,ENE,71,0.0,0.0,88,0.00,,---,0.00,VWS V13.01,2013-05-17 12:36:00,
2013-05-17 06:37:00,42.1,38.8,29.84,ENE,71,0.0,0.0,88,0.00,,---,0.00,VWS V13.01,2013-05-17 12:37:00,
2013-05-17 06:38:00,42.2,38.9,29.84,ENE,71,0.0,0.0,88,0.00,,---,0.00,VWS V13.01,2013-05-17 12:38:00,
2013-05-17 06:39:00,42.2,38.9,29.84,ENE,71,0.0,0.0,88,0.00,,---,0.00,VWS V13.01,2013-05-17 12:39:00,
2013-05-17 06:40:00,42.2,38.9,29.84,ENE,71,0.0,0.0,88,0.00,,---,0.00,VWS V13.01,2013-05-17 12:40:00,
2013-05-17 06:41:00,42.2,38.9,29.84,ENE,71,0.0,0.0,88,0.00,,---,0.00,VWS V13.01,2013-05-17 12:41:00,
2013-05-17 06:42:00,42.3,39.0,29.84,ENE,71,0.0,0.0,88,0.00,,---,0.00,VWS V13.01,2013-05-17 12:42:00,
2013-05-17 06:43:00,42.3,39.0,29.84,ENE,71,0.0,0.0,88,0.00,,---,0.00,VWS V13.01,2013-05-17 12:43:00,
2013-05-17 06:44:00,42.5,39.2,29.84,ENE,71,0.0,0.0,88,0.00,,---,0.00,VWS V13.01,2013-05-17 12:44:00,
2013-05-17 06:45:00,42.5,39.2,29.84,ENE,71,0.0,0.0,88,0.00,,---,0.00,VWS V13.01,2013-05-17 12:45:00,
2013-05-17 06:46:00,42.5,39.2,29.84,ENE,71,0.0,0.0,88,0.00,,---,0.00,VWS V13.01,2013-05-17 12:46:00,
2013-05-17 06:47:00,42.6,39.3,29.84,ENE,71,0.0,0.0,88,0.00,,---,0.00,VWS V13.01,2013-05-17 12:47:00,
2013-05-17 06:48:00,42.6,39.3,29.84,ENE,71,0.0,0.0,88,0.00,,---,0.00,VWS V13.01,2013-05-17 12:48:00,
2013-05-17 06:49:00,42.8,39.5,29.84,ENE,71,0.0,0.0,88,0.00,,---,0.00,VWS V13.01,2013-05-17 12:49:00,
2013-05-17 06:50:00,42.8,39.5,29.84,ENE,71,0.0,0.0,88,0.00,,---,0.00,VWS V13.01,2013-05-17 12:50:00,
2013-05-17 06:51:00,42.9,39.6,29.84,ENE,71,0.0,0.0,88,0.00,,---,0.00,VWS V13.01,2013-05-17 12:51:00,
2013-05-17 06:52:00,42.9,39.6,29.84,ENE,71,0.0,0.0,88,0.00,,---,0.00,VWS V13.01,2013-05-17 12:52:00,
2013-05-17 06:53:00,43.1,39.8,29.84,ENE,71,0.0,0.0,88,0.00,,---,0.00,VWS V13.01,2013-05-17 12:53:00,
2013-05-17 06:54:00,43.1,39.8,29.84,ENE,71,0.0,0.0,88,0.00,,---,0.00,VWS V13.01,2013-05-17 12:54:00,
2013-05-17 06:55:00,43.1,39.8,29.84,ENE,71,0.0,0.0,88,0.00,,---,0.00,VWS V13.01,2013-05-17 12:55:00,
2013-05-17 06:56:00,43.2,39.9,29.84,ENE,71,0.0,0.0,88,0.00,,---,0.00,VWS V13.01,2013-05-17 12:56:00,
2013-05-17 06:57:00,43.3,40.0,29.84,ENE,71,0.0,0.0,88,0.00,,---,0.00,VWS V13.01,2013-05-17 12:57:00,
2013-05-17 06:58:00,43.3,40.0,29.84,ENE,71,0.0,0.0,88,0.00,,---,0.00,VWS V13.01,2013-05-17 12:58:00,
2013-05-17 06:59:00,43.3,40.0,29.83,ENE,71,0.0,0.0,88,0.00,,---,0.00,VWS V13.01,2013-05-17 12:59:00,
2013-05-17 07:00:00,43.5,40.2,29.83,ENE,71,0.0,0.0,88,0.00,,---,0.00,VWS V13.01,2013-05-17 13:00:00,
2013-05-17 07:01:00,43.6,40.3,29.83,ENE,71,0.0,0.0,88,0.00,,---,0.00,VWS V13.01,2013-05-17 13:01:00,
2013-05-17 07:02:00,43.6,40.3,29.83,ENE,71,0.0,0.0,88,0.00,,---,0.00,VWS V13.01,2013-05-17 13:02:00,
2013-05-17 07:03:00,43.8,40.5,29.83,ENE,71,0.0,0.0,88,0.00,,---,0.00,VWS V13.01,2013-05-17 13:03:00,
2013-05-17 07:04:00,43.8,40.5,29.83,ENE,71,0.0,0.0,88,0.00,,---,0.00,VWS V13.01,2013-05-17 13:04:00,
2013-05-17 07:05:00,43.9,40.6,29.83,ENE,71,0.0,0.0,88,0.00,,---,0.00,VWS V13.01,2013-05-17 13:05:00,
2013-05-17 07:06:00,43.9,40.6,29.83,ENE,71,0.0,0.0,88,0.00,,---,0.00,VWS V13.01,2013-05-17 13:06:00,
2013-05-17 07:07:00,44.1,40.8,29.83,ENE,71,0.0,0.0,88,0.00,,---,0.00,VWS V13.01,2013-05-17 13:07:00,
2013-05-17 07:08:00,44.1,40.8,29.83,ENE,71,0.0,0.0,88,0.00,,---,0.00,VWS V13.01,2013-05-17 13:08:00,
2013-05-17 07:09:00,44.2,40.9,29.83,ENE,71,0.0,0.0,88,0.00,,---,0.00,VWS V13.01,2013-05-17 13:09:00,
2013-05-17 07:10:00,44.2,40.9,29.83,ENE,71,0.0,0.0,88,0.00,,---,0.00,VWS V13.01,2013-05-17 13:10:00,
2013-05-17 07:11:00,44.3,40.7,29.83,ENE,71,0.0,0.0,87,0.00,,---,0.00,VWS V13.01,2013-05-17 13:11:00,
2013-05-17 07:12:00,44.3,40.4,29.83,ENE,71,0.0,0.0,86,0.00,,---,0.00,VWS V13.01,2013-05-17 13:12:00,
2013-05-17 07:13:00,44.5,40.3,29.83,ENE,71,0.0,0.0,85,0.00,,---,0.00,VWS V13.01,2013-05-17 13:13:00,
2013-05-17 07:14:00,44.5,40.0,29.83,ENE,71,0.0,0.0,84,0.00,,---,0.00,VWS V13.01,2013-05-17 13:14:00,
2013-05-17 07:15:00,44.5,39.7,29.83,ENE,71,0.0,0.0,83,0.00,,---,0.00,VWS V13.01,2013-05-17 13:15:00,
2013-05-17 07:16:00,44.6,39.5,29.83,ENE,71,0.0,0.0,82,0.00,,---,0.00,VWS V13.01,2013-05-17 13:16:00,
2013-05-17 07:17:00,44.8,40.0,29.83,ENE,71,0.0,0.0,83,0.00,,---,0.00,VWS V13.01,2013-05-17 13:17:00,
2013-05-17 07:18:00,44.8,40.0,29.83,ENE,71,0.0,0.0,83,0.00,,---,0.00,VWS V13.01,2013-05-17 13:18:00,
2013-05-17 07:19:00,44.9,40.1,29.83,ENE,71,0.0,0.0,83,0.00,,---,0.00,VWS V13.01,2013-05-17 13:19:00,
2013-05-17 07:20:00,44.9,39.8,29.83,ENE,71,1.0,1.0,82,0.00,,---,0.00,VWS V13.01,2013-05-17 13:20:00,
2013-05-17 07:21:00,45.1,40.2,29.83,ENE,71,0.0,1.0,83,0.00,,---,0.00,VWS V13.01,2013-05-17 13:21:00,
2013-05-17 07:22:00,45.2,40.0,29.83,ENE,71,0.0,1.0,82,0.00,,---,0.00,VWS V13.01,2013-05-17 13:22:00,
2013-05-17 07:23:00,45.4,39.9,29.83,ENE,71,0.0,1.0,81,0.00,,---,0.00,VWS V13.01,2013-05-17 13:23:00,
2013-05-17 07:24:00,45.5,40.0,29.83,ENE,71,0.0,1.0,81,0.00,,---,0.00,VWS V13.01,2013-05-17 13:24:00,
2013-05-17 07:25:00,45.5,39.7,29.83,ENE,71,0.0,1.0,80,0.00,,---,0.00,VWS V13.01,2013-05-17 13:25:00,
2013-05-17 07:26:00,45.7,40.2,29.83,ENE,71,0.0,1.0,81,0.00,,---,0.00,VWS V13.01,2013-05-17 13:26:00,
2013-05-17 07:27:00,45.8,40.3,29.83,ENE,71,0.0,1.0,81,0.00,,---,0.00,VWS V13.01,2013-05-17 13:27:00,
2013-05-17 07:28:00,45.8,40.3,29.83,ENE,71,0.0,1.0,81,0.00,,---,0.00,VWS V13.01,2013-05-17 13:28:00,
2013-05-17 07:29:00,46.0,40.2,29.82,ENE,71,0.0,1.0,80,0.00,,---,0.00,VWS V13.01,2013-05-17 13:29:00,
2013-05-17 07:30:00,46.1,40.3,29.82,ENE,71,0.0,1.0,80,0.00,,---,0.00,VWS V13.01,2013-05-17 13:30:00,
2013-05-17 07:31:00,46.2,40.1,29.82,ENE,71,0.0,1.0,79,0.00,,---,0.00,VWS V13.01,2013-05-17 13:31:00,
2013-05-17 07:32:00,46.2,39.7,29.82,ENE,71,0.0,1.0,78,0.00,,---,0.00,VWS V13.01,2013-05-17 13:32:00,
2013-05-17 07:33:00,46.4,39.3,29.82,ENE,71,1.0,1.0,76,0.00,,---,0.00,VWS V13.01,2013-05-17 13:33:00,
2013-05-17 07:34:00,46.4,39.3,29.82,ENE,71,0.0,1.0,76,0.00,,---,0.00,VWS V13.01,2013-05-17 13:34:00,
2013-05-17 07:35:00,46.4,39.3,29.82,ENE,71,0.0,1.0,76,0.00,,---,0.00,VWS V13.01,2013-05-17 13:35:00,
2013-05-17 07:36:00,46.5,38.7,29.82,ENE,71,0.0,0.0,74,0.00,,---,0.00,VWS V13.01,2013-05-17 13:36:00,
2013-05-17 07:37:00,46.5,38.7,29.82,ENE,71,0.0,0.0,74,0.00,,---,0.00,VWS V13.01,2013-05-17 13:37:00,
2013-05-17 07:38:00,46.7,39.2,29.82,ENE,71,0.0,0.0,75,0.00,,---,0.00,VWS V13.01,2013-05-17 13:38:00,
2013-05-17 07:39:00,46.7,39.2,29.82,ENE,71,0.0,0.0,75,0.00,,---,0.00,VWS V13.01,2013-05-17 13:39:00,
2013-05-17 07:40:00,46.8,39.3,29.82,ENE,71,0.0,0.0,75,0.00,,---,0.00,VWS V13.01,2013-05-17 13:40:00,
2013-05-17 07:41:00,46.8,39.3,29.82,ENE,71,0.0,0.0,75,0.00,,---,0.00,VWS V13.01,2013-05-17 13:41:00,
2013-05-17 07:42:00,47.0,39.5,29.82,ENE,71,0.0,0.0,75,0.00,,---,0.00,VWS V13.01,2013-05-17 13:42:00,
2013-05-17 07:43:00,47.0,39.2,29.82,ENE,71,0.0,1.0,74,0.00,,---,0.00,VWS V13.01,2013-05-17 13:43:00,
2013-05-17 07:44:00,47.1,38.9,29.82,ENE,71,0.0,1.0,73,0.00,,---,0.00,VWS V13.01,2013-05-17 13:44:00,
2013-05-17 07:45:00,47.1,38.5,29.82,ENE,71,0.0,2.0,72,0.00,,---,0.00,VWS V13.01,2013-05-17 13:45:00,
2013-05-17 07:46:00,47.3,38.7,29.82,ENE,71,0.0,0.0,72,0.00,,---,0.00,VWS V13.01,2013-05-17 13:46:00,
2013-05-17 07:47:00,47.4,38.8,29.82,ENE,71,0.0,0.0,72,0.00,,---,0.00,VWS V13.01,2013-05-17 13:47:00,
2013-05-17 07:48:00,47.4,38.8,29.82,ENE,71,0.0,1.0,72,0.00,,---,0.00,VWS V13.01,2013-05-17 13:48:00,
2013-05-17 07:49:00,47.4,38.5,29.82,ENE,71,1.0,1.0,71,0.00,,---,0.00,VWS V13.01,2013-05-17 13:49:00,
2013-05-17 07:50:00,47.6,38.7,29.82,ENE,71,0.0,1.0,71,0.00,,---,0.00,VWS V13.01,2013-05-17 13:50:00,
2013-05-17 07:51:00,47.6,37.6,29.82,WNW,282,0.0,2.0,68,0.00,,---,0.00,VWS V13.01,2013-05-17 13:51:00,
2013-05-17 07:52:00,47.6,37.2,29.82,WNW,282,0.0,2.0,67,0.00,,---,0.00,VWS V13.01,2013-05-17 13:52:00,
2013-05-17 07:53:00,47.6,37.6,29.82,WNW,282,0.0,2.0,68,0.00,,---,0.00,VWS V13.01,2013-05-17 13:53:00,
2013-05-17 07:54:00,47.7,38.0,29.82,WNW,282,0.0,2.0,69,0.00,,---,0.00,VWS V13.01,2013-05-17 13:54:00,
2013-05-17 07:55:00,47.7,38.0,29.82,West,281,0.0,2.0,69,0.00,,---,0.00,VWS V13.01,2013-05-17 13:55:00,
2013-05-17 07:56:00,47.7,37.7,29.82,West,281,0.0,2.0,68,0.00,,---,0.00,VWS V13.01,2013-05-17 13:56:00,
2013-05-17 07:57:00,47.7,37.7,29.82,West,279,0.0,2.0,68,0.00,,---,0.00,VWS V13.01,2013-05-17 13:57:00,
2013-05-17 07:58:00,47.7,37.7,29.82,West,279,0.0,2.0,68,0.00,,---,0.00,VWS V13.01,2013-05-17 13:58:00,
2013-05-17 07:59:00,47.7,37.7,29.82,West,279,0.0,2.0,68,0.00,,---,0.00,VWS V13.01,2013-05-17 13:59:00,
2013-05-17 08:00:00,47.7,37.3,29.81,West,260,0.0,2.0,67,0.00,,---,0.00,VWS V13.01,2013-05-17 14:00:00,
2013-05-17 08:01:00,47.7,37.7,29.81,West,269,0.0,3.0,68,0.00,,---,0.00,VWS V13.01,2013-05-17 14:01:00,
2013-05-17 08:02:00,47.7,37.3,29.81,WSW,252,0.0,3.0,67,0.00,,---,0.00,VWS V13.01,2013-05-17 14:02:00,
2013-05-17 08:03:00,47.7,37.7,29.81,NW,304,1.0,3.0,68,0.00,,---,0.00,VWS V13.01,2013-05-17 14:03:00,
2013-05-17 08:04:00,47.7,38.0,29.81,NW,306,0.0,3.0,69,0.00,,---,0.00,VWS V13.01,2013-05-17 14:04:00,
2013-05-17 08:05:00,47.9,38.2,29.81,NW,306,0.0,3.0,69,0.00,,---,0.00,VWS V13.01,2013-05-17 14:05:00,
2013-05-17 08:06:00,47.9,37.9,29.81,NW,306,0.0,0.0,68,0.00,,---,0.00,VWS V13.01,2013-05-17 14:06:00,
2013-05-17 08:07:00,47.9,38.2,29.81,ENE,67,0.0,1.0,69,0.00,,---,0.00,VWS V13.01,2013-05-17 14:07:00,
2013-05-17 08:08:00,48.0,38.3,29.81,ENE,67,0.0,1.0,69,0.00,,---,0.00,VWS V13.01,2013-05-17 14:08:00,
2013-05-17 08:09:00,48.0,37.6,29.81,ENE,67,0.0,1.0,67,0.00,,---,0.00,VWS V13.01,2013-05-17 14:09:00,
2013-05-17 08:10:00,48.0,38.0,29.81,West,274,0.0,1.0,68,0.00,,---,0.00,VWS V13.01,2013-05-17 14:10:00,
2013-05-17 08:11:00,48.0,37.6,29.81,West,274,0.0,0.0,67,0.00,,---,0.00,VWS V13.01,2013-05-17 14:11:00,
2013-05-17 08:12:00,48.0,37.6,29.81,West,272,0.0,1.0,67,0.00,,---,0.00,VWS V13.01,2013-05-17 14:12:00,
2013-05-17 08:13:00,48.0,37.2,29.81,West,272,0.0,1.0,66,0.00,,---,0.00,VWS V13.01,2013-05-17 14:13:00,
2013-05-17 08:14:00,48.0,37.6,29.85,West,272,0.0,1.0,67,0.00,,---,0.00,VWS V13.01,2013-05-17 14:14:00,
2013-05-17 08:15:00,48.0,37.2,29.85,West,272,0.0,1.0,66,0.00,,---,0.00,VWS V13.01,2013-05-17 14:15:00,
2013-05-17 08:16:00,48.0,37.2,29.85,West,272,0.0,0.0,66,0.00,,---,0.00,VWS V13.01,2013-05-17 14:16:00,
2013-05-17 08:17:00,48.0,37.6,29.85,West,261,0.0,1.0,67,0.00,,---,0.00,VWS V13.01,2013-05-17 14:17:00,
2013-05-17 08:18:00,47.9,37.1,29.85,West,261,0.0,1.0,66,0.00,,---,0.00,VWS V13.01,2013-05-17 14:18:00,
2013-05-17 08:19:00,47.9,37.1,29.85,WSW,253,0.0,2.0,66,0.00,,---,0.00,VWS V13.01,2013-05-17 14:19:00,
2013-05-17 08:20:00,47.9,37.5,29.85,WSW,253,0.0,2.0,67,0.00,,---,0.00,VWS V13.01,2013-05-17 14:20:00,
2013-05-17 08:21:00,47.7,37.3,29.85,WSW,254,0.0,1.0,67,0.00,,---,0.00,VWS V13.01,2013-05-17 14:21:00,
2013-05-17 08:22:00,47.7,37.7,29.85,WSW,254,1.0,1.0,68,0.00,,---,0.00,VWS V13.01,2013-05-17 14:22:00,
2013-05-17 08:23:00,47.6,37.2,29.85,WSW,254,0.0,1.0,67,0.00,,---,0.00,VWS V13.01,2013-05-17 14:23:00,
2013-05-17 08:24:00,47.6,37.2,29.85,WSW,254,0.0,1.0,67,0.00,,---,0.00,VWS V13.01,2013-05-17 14:24:00,
2013-05-17 08:25:00,47.6,37.2,29.85,WSW,254,1.0,1.0,67,0.00,,---,0.00,VWS V13.01,2013-05-17 14:25:00,
2013-05-17 08:26:00,47.6,37.2,29.85,WSW,254,0.0,1.0,67,0.00,,---,0.00,VWS V13.01,2013-05-17 14:26:00,
2013-05-17 08:27:00,47.4,37.0,29.85,WSW,254,0.0,1.0,67,0.00,,---,0.00,VWS V13.01,2013-05-17 14:27:00,
2013-05-17 08:28:00,47.4,37.0,29.85,WSW,254,0.0,1.0,67,0.00,,---,0.00,VWS V13.01,2013-05-17 14:28:00,
2013-05-17 08:29:00,47.4,37.0,29.85,WSW,254,0.0,1.0,67,0.00,,---,0.00,VWS V13.01,2013-05-17 14:29:00,
2013-05-17 08:30:00,47.4,37.4,29.84,WSW,254,0.0,1.0,68,0.00,,---,0.00,VWS V13.01,2013-05-17 14:30:00,
2013-05-17 08:31:00,47.4,37.8,29.84,WSW,254,0.0,0.0,69,0.00,,---,0.00,VWS V13.01,2013-05-17 14:31:00,
2013-05-17 08:32:00,47.4,37.8,29.84,WSW,254,0.0,0.0,69,0.00,,---,0.00,VWS V13.01,2013-05-17 14:32:00,
2013-05-17 08:33:00,47.4,37.8,29.84,WSW,258,0.0,1.0,69,0.00,,---,0.00,VWS V13.01,2013-05-17 14:33:00,
2013-05-17 08:34:00,47.4,37.4,29.84,WSW,258,0.0,1.0,68,0.00,,---,0.00,VWS V13.01,2013-05-17 14:34:00,
2013-05-17 08:35:00,47.6,37.2,29.84,WSW,258,0.0,1.0,67,0.00,,---,0.00,VWS V13.01,2013-05-17 14:35:00,
2013-05-17 08:36:00,47.6,38.0,29.84,NNW,327,0.0,1.0,69,0.00,,---,0.00,VWS V13.01,2013-05-17 14:36:00,
2013-05-17 08:37:00,47.6,37.6,29.84,NNW,327,0.0,1.0,68,0.00,,---,0.00,VWS V13.01,2013-05-17 14:37:00,
2013-05-17 08:38:00,47.6,38.0,29.84,NNW,327,0.0,1.0,69,0.00,,---,0.00,VWS V13.01,2013-05-17 14:38:00,
2013-05-17 08:39:00,47.7,37.7,29.84,NNW,329,0.0,1.0,68,0.00,,---,0.00,VWS V13.01,2013-05-17 14:39:00,
2013-05-17 08:40:00,47.7,37.7,29.84,NNW,334,1.0,1.0,68,0.00,,---,0.00,VWS V13.01,2013-05-17 14:40:00,
2013-05-17 08:41:00,47.7,37.3,29.84,NNW,342,0.0,1.0,67,0.00,,---,0.00,VWS V13.01,2013-05-17 14:41:00,
2013-05-17 08:42:00,47.9,37.5,29.84,NNW,342,0.0,1.0,67,0.00,,---,0.00,VWS V13.01,2013-05-17 14:42:00,
2013-05-17 08:43:00,47.9,37.9,29.84,NNW,342,0.0,1.0,68,0.00,,---,0.00,VWS V13.01,2013-05-17 14:43:00,
2013-05-17 08:44:00,47.9,37.5,29.84,NNW,342,0.0,1.0,67,0.00,,---,0.00,VWS V13.01,2013-05-17 14:44:00,
2013-05-17 08:45:00,48.0,38.0,29.84,NNW,342,0.0,1.0,68,0.00,,---,0.00,VWS V13.01,2013-05-17 14:45:00,
2013-05-17 08:46:00,48.0,37.6,29.84,North,350,0.0,1.0,67,0.00,,---,0.00,VWS V13.01,2013-05-17 14:46:00,
2013-05-17 08:47:00,48.0,37.2,29.84,North,350,0.0,1.0,66,0.00,,---,0.00,VWS V13.01,2013-05-17 14:47:00,
2013-05-17 08:48:00,48.2,37.0,29.84,North,350,0.0,1.0,65,0.00,,---,0.00,VWS V13.01,2013-05-17 14:48:00,
2013-05-17 08:49:00,48.2,37.0,29.84,NNW,344,0.0,1.0,65,0.00,,---,0.00,VWS V13.01,2013-05-17 14:49:00,
2013-05-17 08:50:00,48.2,37.4,29.84,NNW,338,0.0,1.0,66,0.00,,---,0.00,VWS V13.01,2013-05-17 14:50:00,
2013-05-17 08:51:00,48.2,37.4,29.84,NNW,338,0.0,0.0,66,0.00,,---,0.00,VWS V13.01,2013-05-17 14:51:00,
2013-05-17 08:52:00,48.2,36.6,29.84,NNW,338,0.0,0.0,64,0.00,,---,0.00,VWS V13.01,2013-05-17 14:52:00,
2013-05-17 08:53:00,48.0,36.4,29.84,NNW,338,0.0,0.0,64,0.00,,---,0.00,VWS V13.01,2013-05-17 14:53:00,
2013-05-17 08:54:00,48.0,37.2,29.84,NNW,338,0.0,0.0,66,0.00,,---,0.00,VWS V13.01,2013-05-17 14:54:00,
2013-05-17 08:55:00,48.0,37.2,29.84,NNW,338,0.0,0.0,66,0.00,,---,0.00,VWS V13.01,2013-05-17 14:55:00,
2013-05-17 08:56:00,48.0,36.8,29.84,NNW,338,0.0,0.0,65,0.00,,---,0.00,VWS V13.01,2013-05-17 14:56:00,
2013-05-17 08:57:00,48.0,36.8,29.84,NNW,338,0.0,0.0,65,0.00,,---,0.00,VWS V13.01,2013-05-17 14:57:00,
2013-05-17 08:58:00,48.0,37.2,29.84,NNW,338,0.0,0.0,66,0.00,,---,0.00,VWS V13.01,2013-05-17 14:58:00,
2013-05-17 08:59:00,48.2,37.0,29.84,NNW,338,0.0,1.0,65,0.00,,---,0.00,VWS V13.01,2013-05-17 14:59:00,
2013-05-17 09:00:00,48.0,37.2,29.84,NW,306,0.0,2.0,66,0.00,,---,0.00,VWS V13.01,2013-05-17 15:00:00,
2013-05-17 09:01:00,48.0,37.6,29.84,NW,306,0.0,0.0,67,0.00,,---,0.00,VWS V13.01,2013-05-17 15:01:00,
2013-05-17 09:02:00,48.0,38.0,29.84,NW,306,0.0,0.0,68,0.00,,---,0.00,VWS V13.01,2013-05-17 15:02:00,
2013-05-17 09:03:00,48.0,37.2,29.84,SSW,205,0.0,2.0,66,0.00,,---,0.00,VWS V13.01,2013-05-17 15:03:00,
2013-05-17 09:04:00,48.0,37.2,29.84,SSW,205,0.0,2.0,66,0.00,,---,0.00,VWS V13.01,2013-05-17 15:04:00,
2013-05-17 09:05:00,48.2,37.4,29.84,SSW,205,0.0,2.0,66,0.00,,---,0.00,VWS V13.01,2013-05-17 15:05:00,
2013-05-17 09:06:00,48.2,37.8,29.84,SSW,205,0.0,0.0,67,0.00,,---,0.00,VWS V13.01,2013-05-17 15:06:00,
2013-05-17 09:07:00,48.2,37.0,29.84,SSW,205,0.0,0.0,65,0.00,,---,0.00,VWS V13.01,2013-05-17 15:07:00,
2013-05-17 09:08:00,48.3,37.1,29.84,SSW,205,0.0,0.0,65,0.00,,---,0.00,VWS V13.01,2013-05-17 15:08:00,
2013-05-17 09:09:00,48.3,37.1,29.84,NE,42,0.0,2.0,65,0.00,,---,0.00,VWS V13.01,2013-05-17 15:09:00,
2013-05-17 09:10:00,48.3,37.5,29.84,NE,42,0.0,2.0,66,0.00,,---,0.00,VWS V13.01,2013-05-17 15:10:00,
2013-05-17 09:11:00,48.5,37.3,29.84,NE,42,0.0,0.0,65,0.00,,---,0.00,VWS V13.01,2013-05-17 15:11:00,
2013-05-17 09:12:00,48.5,36.9,29.84,NE,42,0.0,0.0,64,0.00,,---,0.00,VWS V13.01,2013-05-17 15:12:00,
2013-05-17 09:13:00,48.6,37.4,29.84,NE,42,0.0,0.0,65,0.00,,---,0.00,VWS V13.01,2013-05-17 15:13:00,
2013-05-17 09:14:00,48.6,37.4,29.84,NNE,29,0.0,1.0,65,0.00,,---,0.00,VWS V13.01,2013-05-17 15:14:00,
2013-05-17 09:15:00,48.8,37.6,29.84,NNE,31,0.0,1.0,65,0.00,,---,0.00,VWS V13.01,2013-05-17 15:15:00,
2013-05-17 09:16:00,48.9,38.1,29.84,NNE,31,0.0,0.0,66,0.00,,---,0.00,VWS V13.01,2013-05-17 15:16:00,
2013-05-17 09:17:00,48.9,37.7,29.84,NNE,31,0.0,0.0,65,0.00,,---,0.00,VWS V13.01,2013-05-17 15:17:00,
2013-05-17 09:18:00,49.1,37.9,29.84,NNE,31,0.0,0.0,65,0.00,,---,0.00,VWS V13.01,2013-05-17 15:18:00,
2013-05-17 09:19:00,49.2,37.6,29.84,NNE,31,0.0,0.0,64,0.00,,---,0.00,VWS V13.01,2013-05-17 15:19:00,
2013-05-17 09:20:00,49.2,37.2,29.84,NNE,31,0.0,0.0,63,0.00,,---,0.00,VWS V13.01,2013-05-17 15:20:00,
2013-05-17 09:21:00,49.4,37.3,29.84,NNE,31,0.0,0.0,63,0.00,,---,0.00,VWS V13.01,2013-05-17 15:21:00,
2013-05-17 09:22:00,49.5,37.8,29.84,NNE,31,0.0,0.0,64,0.00,,---,0.00,VWS V13.01,2013-05-17 15:22:00,
2013-05-17 09:23:00,49.5,37.8,29.84,NNE,31,0.0,1.0,64,0.00,,---,0.00,VWS V13.01,2013-05-17 15:23:00,
2013-05-17 09:24:00,49.6,37.9,29.84,NNE,31,0.0,1.0,64,0.00,,---,0.00,VWS V13.01,2013-05-17 15:24:00,
2013-05-17 09:25:00,49.6,37.9,29.84,NNE,31,0.0,1.0,64,0.00,,---,0.00,VWS V13.01,2013-05-17 15:25:00,
2013-05-17 09:26:00,49.8,37.3,29.84,NNE,31,0.0,0.0,62,0.00,,---,0.00,VWS V13.01,2013-05-17 15:26:00,
2013-05-17 09:27:00,49.9,37.0,29.84,NNE,31,0.0,0.0,61,0.00,,---,0.00,VWS V13.01,2013-05-17 15:27:00,
2013-05-17 09:28:00,49.9,37.4,29.84,NNE,30,0.0,1.0,62,0.00,,---,0.00,VWS V13.01,2013-05-17 15:28:00,
2013-05-17 09:29:00,49.9,37.0,29.83,NNE,30,0.0,1.0,61,0.00,,---,0.00,VWS V13.01,2013-05-17 15:29:00,
2013-05-17 09:30:00,49.9,37.0,29.83,NNE,30,0.0,1.0,61,0.00,,---,0.00,VWS V13.01,2013-05-17 15:30:00,
2013-05-17 09:31:00,50.1,37.6,29.83,NNE,30,0.0,0.0,62,0.00,,---,0.00,VWS V13.01,2013-05-17 15:31:00,
2013-05-17 09:32:00,50.1,38.4,29.83,NNE,30,0.0,0.0,64,0.00,,---,0.00,VWS V13.01,2013-05-17 15:32:00,
2013-05-17 09:33:00,50.1,37.2,29.83,NNE,30,0.0,0.0,61,0.00,,---,0.00,VWS V13.01,2013-05-17 15:33:00,
2013-05-17 09:34:00,50.1,38.0,29.83,NNE,30,0.0,0.0,63,0.00,,---,0.00,VWS V13.01,2013-05-17 15:34:00,
2013-05-17 09:35:00,50.1,38.0,29.83,NNE,30,0.0,0.0,63,0.00,,---,0.00,VWS V13.01,2013-05-17 15:35:00,
2013-05-17 09:36:00,50.2,38.5,29.83,NNE,30,0.0,0.0,64,0.00,,---,0.00,VWS V13.01,2013-05-17 15:36:00,
2013-05-17 09:37:00,50.2,38.1,29.83,NNE,30,0.0,0.0,63,0.00,,---,0.00,VWS V13.01,2013-05-17 15:37:00,
2013-05-17 09:38:00,50.2,38.1,29.83,NNE,30,0.0,0.0,63,0.00,,---,0.00,VWS V13.01,2013-05-17 15:38:00,
2013-05-17 09:39:00,50.4,38.7,29.83,North,11,2.0,3.0,64,0.00,,---,0.00,VWS V13.01,2013-05-17 15:39:00,
2013-05-17 09:40:00,50.4,38.3,29.83,North,11,1.0,3.0,63,0.00,,---,0.00,VWS V13.01,2013-05-17 15:40:00,
2013-05-17 09:41:00,50.5,38.4,29.83,North,11,0.0,1.0,63,0.00,,---,0.00,VWS V13.01,2013-05-17 15:41:00,
2013-05-17 09:42:00,50.7,38.2,29.83,North,11,0.0,1.0,62,0.00,,---,0.00,VWS V13.01,2013-05-17 15:42:00,
2013-05-17 09:43:00,50.8,38.3,29.83,North,11,0.0,1.0,62,0.00,,---,0.00,VWS V13.01,2013-05-17 15:43:00,
2013-05-17 09:44:00,51.0,38.0,29.83,North,11,0.0,1.0,61,0.00,,---,0.00,VWS V13.01,2013-05-17 15:44:00,
2013-05-17 09:45:00,51.1,37.7,29.83,North,11,0.0,1.0,60,0.00,,---,0.00,VWS V13.01,2013-05-17 15:45:00,
2013-05-17 09:46:00,51.3,37.5,29.83,North,11,0.0,0.0,59,0.00,,---,0.00,VWS V13.01,2013-05-17 15:46:00,
2013-05-17 09:47:00,51.4,37.6,29.83,North,11,0.0,0.0,59,0.00,,---,0.00,VWS V13.01,2013-05-17 15:47:00,
2013-05-17 09:48:00,51.4,37.6,29.83,North,11,0.0,0.0,59,0.00,,---,0.00,VWS V13.01,2013-05-17 15:48:00,
2013-05-17 09:49:00,51.4,38.0,29.83,North,11,0.0,1.0,60,0.00,,---,0.00,VWS V13.01,2013-05-17 15:49:00,
2013-05-17 09:50:00,51.6,38.6,29.83,North,11,0.0,1.0,61,0.00,,---,0.00,VWS V13.01,2013-05-17 15:50:00,
2013-05-17 09:51:00,51.6,37.8,29.83,North,11,0.0,2.0,59,0.00,,---,0.00,VWS V13.01,2013-05-17 15:51:00,
2013-05-17 09:52:00,51.7,37.0,29.83,North,11,0.0,2.0,57,0.00,,---,0.00,VWS V13.01,2013-05-17 15:52:00,
2013-05-17 09:53:00,51.7,37.4,29.83,North,11,0.0,2.0,58,0.00,,---,0.00,VWS V13.01,2013-05-17 15:53:00,
2013-05-17 09:54:00,51.7,37.8,29.83,North,11,0.0,2.0,59,0.00,,---,0.00,VWS V13.01,2013-05-17 15:54:00,
2013-05-17 09:55:00,51.7,38.7,29.83,North,11,0.0,2.0,61,0.00,,---,0.00,VWS V13.01,2013-05-17 15:55:00,
2013-05-17 09:56:00,51.7,37.4,29.83,NNW,343,0.0,1.0,58,0.00,,---,0.00,VWS V13.01,2013-05-17 15:56:00,
2013-05-17 09:57:00,51.7,37.4,29.83,NNW,343,0.0,1.0,58,0.00,,---,0.00,VWS V13.01,2013-05-17 15:57:00,
2013-05-17 09:58:00,51.7,37.8,29.83,West,273,0.0,1.0,59,0.00,,---,0.00,VWS V13.01,2013-05-17 15:58:00,
2013-05-17 09:59:00,51.6,37.8,29.82,West,273,0.0,1.0,59,0.00,,---,0.00,VWS V13.01,2013-05-17 15:59:00,
2013-05-17 10:00:00,51.6,37.8,29.82,West,273,0.0,1.0,59,0.00,,---,0.00,VWS V13.01,2013-05-17 16:00:00,
2013-05-17 10:01:00,51.6,38.2,29.82,West,264,0.0,1.0,60,0.00,,---,0.00,VWS V13.01,2013-05-17 16:01:00,
2013-05-17 10:02:00,51.4,38.4,29.82,West,264,0.0,1.0,61,0.00,,---,0.00,VWS V13.01,2013-05-17 16:02:00,
2013-05-17 10:03:00,51.4,38.0,29.82,West,264,0.0,1.0,60,0.00,,---,0.00,VWS V13.01,2013-05-17 16:03:00,
2013-05-17 10:04:00,51.4,38.0,29.82,West,267,0.0,1.0,60,0.00,,---,0.00,VWS V13.01,2013-05-17 16:04:00,
2013-05-17 10:05:00,51.4,38.0,29.82,West,267,0.0,1.0,60,0.00,,---,0.00,VWS V13.01,2013-05-17 16:05:00,
2013-05-17 10:06:00,51.4,37.1,29.82,West,267,0.0,0.0,58,0.00,,---,0.00,VWS V13.01,2013-05-17 16:06:00,
2013-05-17 10:07:00,51.6,37.8,29.82,West,267,0.0,0.0,59,0.00,,---,0.00,VWS V13.01,2013-05-17 16:07:00,
2013-05-17 10:08:00,51.6,38.2,29.82,West,267,0.0,1.0,60,0.00,,---,0.00,VWS V13.01,2013-05-17 16:08:00,
2013-05-17 10:09:00,51.6,37.8,29.82,West,276,0.0,1.0,59,0.00,,---,0.00,VWS V13.01,2013-05-17 16:09:00,
2013-05-17 10:10:00,51.6,37.8,29.82,West,276,0.0,1.0,59,0.00,,---,0.00,VWS V13.01,2013-05-17 16:10:00,
2013-05-17 10:11:00,51.7,37.8,29.82,West,276,0.0,0.0,59,0.00,,---,0.00,VWS V13.01,2013-05-17 16:11:00,
2013-05-17 10:12:00,51.7,37.4,29.82,North,5,1.0,4.0,58,0.00,,---,0.00,VWS V13.01,2013-05-17 16:12:00,
2013-05-17 10:13:00,51.9,37.2,29.82,North,5,0.0,4.0,57,0.00,,---,0.00,VWS V13.01,2013-05-17 16:13:00,
2013-05-17 10:14:00,51.9,37.2,29.82,NNE,17,0.0,4.0,57,0.00,,---,0.00,VWS V13.01,2013-05-17 16:14:00,
2013-05-17 10:15:00,51.9,37.2,29.82,NNE,17,0.0,4.0,57,0.00,,---,0.00,VWS V13.01,2013-05-17 16:15:00,
2013-05-17 10:16:00,51.9,38.5,29.82,North,11,0.0,0.0,60,0.00,,---,0.00,VWS V13.01,2013-05-17 16:16:00,
2013-05-17 10:17:00,51.9,38.5,29.82,North,11,0.0,0.0,60,0.00,,---,0.00,VWS V13.01,2013-05-17 16:17:00,
2013-05-17 10:18:00,51.9,38.0,29.82,North,11,0.0,1.0,59,0.00,,---,0.00,VWS V13.01,2013-05-17 16:18:00,
2013-05-17 10:19:00,51.9,37.6,29.82,North,11,0.0,1.0,58,0.00,,---,0.00,VWS V13.01,2013-05-17 16:19:00,
2013-05-17 10:20:00,51.9,37.6,29.82,North,11,0.0,1.0,58,0.00,,---,0.00,VWS V13.01,2013-05-17 16:20:00,
2013-05-17 10:21:00,51.9,38.0,29.82,North,11,0.0,0.0,59,0.00,,---,0.00,VWS V13.01,2013-05-17 16:21:00,
2013-05-17 10:22:00,51.9,38.0,29.82,North,11,0.0,0.0,59,0.00,,---,0.00,VWS V13.01,2013-05-17 16:22:00,
2013-05-17 10:23:00,51.9,39.3,29.82,North,11,0.0,1.0,62,0.00,,---,0.00,VWS V13.01,2013-05-17 16:23:00,
2013-05-17 10:24:00,51.9,39.7,29.82,North,11,0.0,1.0,63,0.00,,---,0.00,VWS V13.01,2013-05-17 16:24:00,
2013-05-17 10:25:00,51.9,39.7,29.82,North,11,0.0,1.0,63,0.00,,---,0.00,VWS V13.01,2013-05-17 16:25:00,
2013-05-17 10:26:00,51.9,38.0,29.82,North,11,0.0,0.0,59,0.00,,---,0.00,VWS V13.01,2013-05-17 16:26:00,
2013-05-17 10:27:00,52.0,38.6,29.82,North,11,0.0,0.0,60,0.00,,---,0.00,VWS V13.01,2013-05-17 16:27:00,
2013-05-17 10:28:00,52.0,39.4,29.82,North,11,0.0,0.0,62,0.00,,---,0.00,VWS V13.01,2013-05-17 16:28:00,
2013-05-17 10:29:00,52.0,40.6,29.82,North,11,0.0,0.0,65,0.00,,---,0.00,VWS V13.01,2013-05-17 16:29:00,
2013-05-17 10:30:00,52.0,39.8,29.82,North,11,0.0,0.0,63,0.00,,---,0.00,VWS V13.01,2013-05-17 16:30:00,
2013-05-17 10:31:00,52.0,38.1,29.82,North,11,0.0,0.0,59,0.00,,---,0.00,VWS V13.01,2013-05-17 16:31:00,
2013-05-17 10:32:00,52.0,38.6,29.82,North,11,0.0,0.0,60,0.00,,---,0.00,VWS V13.01,2013-05-17 16:32:00,
2013-05-17 10:33:00,52.2,41.2,29.82,North,11,0.0,0.0,66,0.00,,---,0.00,VWS V13.01,2013-05-17 16:33:00,
2013-05-17 10:34:00,52.2,40.8,29.82,North,11,0.0,0.0,65,0.00,,---,0.00,VWS V13.01,2013-05-17 16:34:00,
2013-05-17 10:35:00,52.2,40.0,29.82,North,11,0.0,0.0,63,0.00,,---,0.00,VWS V13.01,2013-05-17 16:35:00,
2013-05-17 10:36:00,52.0,39.4,29.82,North,11,0.0,0.0,62,0.00,,---,0.00,VWS V13.01,2013-05-17 16:36:00,
2013-05-17 10:37:00,52.0,39.4,29.82,North,11,0.0,0.0,62,0.00,,---,0.00,VWS V13.01,2013-05-17 16:37:00,
2013-05-17 10:38:00,52.0,40.6,29.82,North,11,0.0,0.0,65,0.00,,---,0.00,VWS V13.01,2013-05-17 16:38:00,
2013-05-17 10:39:00,52.0,40.2,29.82,North,11,0.0,0.0,64,0.00,,---,0.00,VWS V13.01,2013-05-17 16:39:00,
2013-05-17 10:40:00,51.9,40.1,29.82,North,11,0.0,0.0,64,0.00,,---,0.00,VWS V13.01,2013-05-17 16:40:00,
2013-05-17 10:41:00,52.0,41.0,29.82,North,11,0.0,0.0,66,0.00,,---,0.00,VWS V13.01,2013-05-17 16:41:00,
2013-05-17 10:42:00,52.0,41.8,29.82,North,11,0.0,0.0,68,0.00,,---,0.00,VWS V13.01,2013-05-17 16:42:00,
2013-05-17 10:43:00,52.0,42.2,29.82,North,11,0.0,0.0,69,0.00,,---,0.00,VWS V13.01,2013-05-17 16:43:00,
2013-05-17 10:44:00,52.0,41.4,29.82,North,11,0.0,0.0,67,0.00,,---,0.00,VWS V13.01,2013-05-17 16:44:00,
2013-05-17 10:45:00,51.9,39.7,29.82,North,11,0.0,0.0,63,0.00,,---,0.00,VWS V13.01,2013-05-17 16:45:00,
2013-05-17 10:46:00,51.9,40.5,29.82,North,11,0.0,0.0,65,0.00,,---,0.00,VWS V13.01,2013-05-17 16:46:00,
2013-05-17 10:47:00,51.9,40.5,29.82,North,11,0.0,0.0,65,0.01,,---,0.01,VWS V13.01,2013-05-17 16:47:00,
2013-05-17 10:48:00,51.9,41.3,29.82,North,11,0.0,0.0,67,0.01,,---,0.01,VWS V13.01,2013-05-17 16:48:00,
2013-05-17 10:49:00,51.9,39.7,29.82,North,11,0.0,0.0,63,0.01,,---,0.01,VWS V13.01,2013-05-17 16:49:00,
2013-05-17 10:50:00,51.9,41.3,29.82,North,11,0.0,0.0,67,0.01,,---,0.01,VWS V13.01,2013-05-17 16:50:00,
2013-05-17 10:51:00,51.7,41.5,29.82,North,11,0.0,0.0,68,0.01,,---,0.01,VWS V13.01,2013-05-17 16:51:00,
2013-05-17 10:52:00,51.7,42.2,29.82,North,11,0.0,0.0,70,0.01,,---,0.01,VWS V13.01,2013-05-17 16:52:00,
2013-05-17 10:53:00,51.7,42.2,29.82,North,11,0.0,0.0,70,0.01,,---,0.01,VWS V13.01,2013-05-17 16:53:00,
2013-05-17 10:54:00,51.7,42.2,29.82,North,11,0.0,0.0,70,0.01,,---,0.01,VWS V13.01,2013-05-17 16:54:00,
2013-05-17 10:55:00,51.7,42.6,29.82,North,11,0.0,0.0,71,0.01,,---,0.01,VWS V13.01,2013-05-17 16:55:00,
2013-05-17 10:56:00,51.7,42.6,29.82,North,11,0.0,0.0,71,0.01,,---,0.01,VWS V13.01,2013-05-17 16:56:00,
2013-05-17 10:57:00,51.6,42.9,29.82,North,11,0.0,0.0,72,0.01,,---,0.01,VWS V13.01,2013-05-17 16:57:00,
2013-05-17 10:58:00,51.6,43.2,29.82,North,11,0.0,0.0,73,0.01,,---,0.01,VWS V13.01,2013-05-17 16:58:00,
2013-05-17 10:59:00,51.6,42.5,29.82,North,11,0.0,0.0,71,0.01,,---,0.01,VWS V13.01,2013-05-17 16:59:00,
2013-05-17 11:00:00,51.4,42.0,29.82,North,11,0.0,0.0,70,0.01,,---,0.01,VWS V13.01,2013-05-17 17:00:00,
2013-05-17 11:01:00,51.4,42.3,29.82,North,11,0.0,0.0,71,0.01,,---,0.01,VWS V13.01,2013-05-17 17:01:00,
2013-05-17 11:02:00,51.3,42.6,29.82,North,11,0.0,0.0,72,0.01,,---,0.01,VWS V13.01,2013-05-17 17:02:00,
2013-05-17 11:03:00,51.3,42.6,29.82,North,11,0.0,0.0,72,0.01,,---,0.01,VWS V13.01,2013-05-17 17:03:00,
2013-05-17 11:04:00,51.1,42.4,29.82,North,11,0.0,0.0,72,0.01,,---,0.01,VWS V13.01,2013-05-17 17:04:00,
2013-05-17 11:05:00,51.1,41.7,29.82,North,11,0.0,0.0,70,0.01,,---,0.01,VWS V13.01,2013-05-17 17:05:00,
2013-05-17 11:06:00,51.0,41.6,29.82,North,11,0.0,0.0,70,0.01,,---,0.01,VWS V13.01,2013-05-17 17:06:00,
2013-05-17 11:07:00,50.8,41.8,29.82,North,11,0.0,0.0,71,0.01,,---,0.01,VWS V13.01,2013-05-17 17:07:00,
2013-05-17 11:08:00,50.8,42.1,29.82,North,11,0.0,0.0,72,0.01,,---,0.01,VWS V13.01,2013-05-17 17:08:00,
2013-05-17 11:09:00,50.8,42.8,29.82,North,11,0.0,0.0,74,0.01,,---,0.01,VWS V13.01,2013-05-17 17:09:00,
2013-05-17 11:10:00,50.7,42.4,29.82,North,11,0.0,0.0,73,0.01,,---,0.01,VWS V13.01,2013-05-17 17:10:00,
2013-05-17 11:11:00,50.7,42.0,29.82,North,11,0.0,0.0,72,0.01,,---,0.01,VWS V13.01,2013-05-17 17:11:00,
2013-05-17 11:12:00,50.5,42.2,29.82,North,11,0.0,0.0,73,0.01,,---,0.01,VWS V13.01,2013-05-17 17:12:00,
2013-05-17 11:13:00,50.4,41.7,29.82,North,11,0.0,0.0,72,0.01,,---,0.01,VWS V13.01,2013-05-17 17:13:00,
2013-05-17 11:14:00,50.4,42.4,29.83,North,11,0.0,0.0,74,0.01,,---,0.01,VWS V13.01,2013-05-17 17:14:00,
2013-05-17 11:15:00,50.2,41.9,29.83,North,11,0.0,0.0,73,0.01,,---,0.01,VWS V13.01,2013-05-17 17:15:00,
2013-05-17 11:16:00,50.2,42.2,29.83,North,11,0.0,0.0,74,0.01,,---,0.01,VWS V13.01,2013-05-17 17:16:00,
2013-05-17 11:17:00,50.1,41.8,29.83,North,11,0.0,0.0,73,0.01,,---,0.01,VWS V13.01,2013-05-17 17:17:00,
2013-05-17 11:18:00,50.1,42.2,29.83,North,11,0.0,0.0,74,0.01,,---,0.01,VWS V13.01,2013-05-17 17:18:00,
2013-05-17 11:19:00,49.9,42.7,29.83,North,11,0.0,0.0,76,0.01,,---,0.01,VWS V13.01,2013-05-17 17:19:00,
2013-05-17 11:20:00,49.9,42.7,29.83,North,11,0.0,0.0,76,0.01,,---,0.01,VWS V13.01,2013-05-17 17:20:00,
2013-05-17 11:21:00,49.9,42.7,29.83,North,11,0.0,0.0,76,0.01,,---,0.01,VWS V13.01,2013-05-17 17:21:00,
2013-05-17 11:22:00,49.8,42.2,29.83,North,11,0.0,0.0,75,0.01,,---,0.01,VWS V13.01,2013-05-17 17:22:00,
2013-05-17 11:23:00,49.8,42.2,29.83,North,11,0.0,0.0,75,0.01,,---,0.01,VWS V13.01,2013-05-17 17:23:00,
2013-05-17 11:24:00,49.8,41.9,29.83,North,11,0.0,0.0,74,0.01,,---,0.01,VWS V13.01,2013-05-17 17:24:00,
2013-05-17 11:25:00,49.8,41.9,29.83,North,11,0.0,0.0,74,0.01,,---,0.01,VWS V13.01,2013-05-17 17:25:00,
2013-05-17 11:26:00,49.8,41.9,29.83,North,11,0.0,0.0,74,0.01,,---,0.01,VWS V13.01,2013-05-17 17:26:00,
2013-05-17 11:27:00,49.6,41.0,29.83,North,11,0.0,1.0,72,0.01,,---,0.01,VWS V13.01,2013-05-17 17:27:00,
2013-05-17 11:28:00,49.6,41.0,29.83,North,11,0.0,1.0,72,0.01,,---,0.01,VWS V13.01,2013-05-17 17:28:00,
2013-05-17 11:29:00,49.6,41.0,29.83,North,11,0.0,1.0,72,0.01,,---,0.01,VWS V13.01,2013-05-17 17:29:00,
2013-05-17 11:30:00,49.6,40.2,29.82,North,11,0.0,1.0,70,0.01,,---,0.01,VWS V13.01,2013-05-17 17:30:00,
2013-05-17 11:31:00,49.6,40.6,29.82,North,11,0.0,0.0,71,0.01,,---,0.01,VWS V13.01,2013-05-17 17:31:00,
2013-05-17 11:32:00,49.6,41.0,29.82,North,11,0.0,0.0,72,0.01,,---,0.01,VWS V13.01,2013-05-17 17:32:00,
2013-05-17 11:33:00,49.8,41.5,29.82,North,11,0.0,0.0,73,0.01,,---,0.01,VWS V13.01,2013-05-17 17:33:00,
2013-05-17 11:34:00,49.8,41.5,29.82,North,11,0.0,0.0,73,0.01,,---,0.01,VWS V13.01,2013-05-17 17:34:00,
2013-05-17 11:35:00,49.8,40.8,29.82,North,11,0.0,0.0,71,0.01,,---,0.01,VWS V13.01,2013-05-17 17:35:00,
2013-05-17 11:36:00,49.8,41.2,29.82,North,11,0.0,0.0,72,0.01,,---,0.01,VWS V13.01,2013-05-17 17:36:00,
2013-05-17 11:37:00,49.9,40.9,29.82,North,11,0.0,0.0,71,0.01,,---,0.01,VWS V13.01,2013-05-17 17:37:00,
2013-05-17 11:38:00,49.9,40.9,29.82,North,11,0.0,0.0,71,0.01,,---,0.01,VWS V13.01,2013-05-17 17:38:00,
2013-05-17 11:39:00,49.9,40.9,29.82,North,11,0.0,0.0,71,0.01,,---,0.01,VWS V13.01,2013-05-17 17:39:00,
2013-05-17 11:40:00,50.1,41.4,29.82,North,11,0.0,0.0,72,0.01,,---,0.01,VWS V13.01,2013-05-17 17:40:00,
2013-05-17 11:41:00,50.1,41.8,29.82,North,11,0.0,0.0,73,0.01,,---,0.01,VWS V13.01,2013-05-17 17:41:00,
2013-05-17 11:42:00,50.2,41.9,29.82,North,11,0.0,0.0,73,0.01,,---,0.01,VWS V13.01,2013-05-17 17:42:00,
2013-05-17 11:43:00,50.2,42.2,29.82,North,11,0.0,0.0,74,0.01,,---,0.01,VWS V13.01,2013-05-17 17:43:00,
2013-05-17 11:44:00,50.2,42.2,29.82,North,11,0.0,0.0,74,0.01,,---,0.01,VWS V13.01,2013-05-17 17:44:00,
2013-05-17 11:45:00,50.4,42.1,29.82,North,11,0.0,0.0,73,0.01,,---,0.01,VWS V13.01,2013-05-17 17:45:00,
2013-05-17 11:46:00,50.4,42.1,29.82,North,11,0.0,0.0,73,0.01,,---,0.01,VWS V13.01,2013-05-17 17:46:00,
2013-05-17 11:47:00,50.5,42.2,29.82,North,11,0.0,0.0,73,0.01,,---,0.01,VWS V13.01,2013-05-17 17:47:00,
2013-05-17 11:48:00,50.5,41.8,29.82,North,11,0.0,0.0,72,0.01,,---,0.01,VWS V13.01,2013-05-17 17:48:00,
2013-05-17 11:49:00,50.7,42.4,29.82,North,11,0.0,0.0,73,0.01,,---,0.01,VWS V13.01,2013-05-17 17:49:00,
2013-05-17 11:50:00,50.7,42.7,29.82,North,11,0.0,0.0,74,0.01,,---,0.01,VWS V13.01,2013-05-17 17:50:00,
2013-05-17 11:51:00,50.8,41.4,29.82,North,11,0.0,0.0,70,0.00,,---,0.01,VWS V13.01,2013-05-17 17:51:00,
2013-05-17 11:52:00,50.8,41.4,29.82,North,11,0.0,0.0,70,0.00,,---,0.01,VWS V13.01,2013-05-17 17:52:00,
2013-05-17 11:53:00,51.0,43.0,29.82,North,11,0.0,1.0,74,0.00,,---,0.01,VWS V13.01,2013-05-17 17:53:00,
2013-05-17 11:54:00,51.1,42.8,29.82,North,11,0.0,1.0,73,0.00,,---,0.01,VWS V13.01,2013-05-17 17:54:00,
2013-05-17 11:55:00,51.1,42.0,29.82,North,11,0.0,1.0,71,0.00,,---,0.01,VWS V13.01,2013-05-17 17:55:00,
2013-05-17 11:56:00,51.3,42.6,29.82,North,11,0.0,0.0,72,0.00,,---,0.01,VWS V13.01,2013-05-17 17:56:00,
2013-05-17 11:57:00,51.3,42.2,29.82,North,11,0.0,0.0,71,0.00,,---,0.01,VWS V13.01,2013-05-17 17:57:00,
2013-05-17 11:58:00,51.4,43.0,29.82,North,11,0.0,0.0,73,0.00,,---,0.01,VWS V13.01,2013-05-17 17:58:00,
2013-05-17 11:59:00,51.4,43.0,29.82,North,11,0.0,0.0,73,0.00,,---,0.01,VWS V13.01,2013-05-17 17:59:00,
2013-05-17 12:00:00,51.4,42.0,29.82,North,11,0.0,0.0,70,0.00,,---,0.01,VWS V13.01,2013-05-17 18:00:00,
2013-05-17 12:01:00,51.6,42.9,29.82,North,11,0.0,0.0,72,0.00,,---,0.01,VWS V13.01,2013-05-17 18:01:00,
2013-05-17 12:02:00,51.6,41.8,29.82,North,11,0.0,0.0,69,0.00,,---,0.01,VWS V13.01,2013-05-17 18:02:00,
2013-05-17 12:03:00,51.7,42.6,29.82,North,11,0.0,0.0,71,0.00,,---,0.01,VWS V13.01,2013-05-17 18:03:00,
2013-05-17 12:04:00,51.7,43.0,29.82,North,11,0.0,0.0,72,0.00,,---,0.01,VWS V13.01,2013-05-17 18:04:00,
2013-05-17 12:05:00,51.7,42.2,29.82,North,11,0.0,0.0,70,0.00,,---,0.01,VWS V13.01,2013-05-17 18:05:00,
2013-05-17 12:06:00,51.7,43.0,29.82,North,11,0.0,0.0,72,0.00,,---,0.01,VWS V13.01,2013-05-17 18:06:00,
2013-05-17 12:07:00,51.7,43.0,29.82,North,11,0.0,1.0,72,0.00,,---,0.01,VWS V13.01,2013-05-17 18:07:00,
2013-05-17 12:08:00,51.7,43.0,29.82,North,11,0.0,1.0,72,0.00,,---,0.01,VWS V13.01,2013-05-17 18:08:00,
2013-05-17 12:09:00,51.9,43.5,29.82,North,11,0.0,1.0,73,0.00,,---,0.01,VWS V13.01,2013-05-17 18:09:00,
2013-05-17 12:10:00,51.9,43.2,29.82,North,11,0.0,1.0,72,0.00,,---,0.01,VWS V13.01,2013-05-17 18:10:00,
2013-05-17 12:11:00,51.7,42.6,29.82,North,11,0.0,0.0,71,0.00,,---,0.01,VWS V13.01,2013-05-17 18:11:00,
2013-05-17 12:12:00,51.7,42.6,29.82,North,11,0.0,0.0,71,0.00,,---,0.01,VWS V13.01,2013-05-17 18:12:00,
2013-05-17 12:13:00,51.7,43.7,29.82,North,5,0.0,1.0,74,0.00,,---,0.01,VWS V13.01,2013-05-17 18:13:00,
2013-05-17 12:14:00,51.7,42.6,29.82,North,5,0.0,1.0,71,0.00,,---,0.01,VWS V13.01,2013-05-17 18:14:00,
2013-05-17 12:15:00,51.7,43.0,29.81,North,5,0.0,1.0,72,0.00,,---,0.01,VWS V13.01,2013-05-17 18:15:00,
2013-05-17 12:16:00,51.7,43.0,29.81,North,5,0.0,0.0,72,0.00,,---,0.01,VWS V13.01,2013-05-17 18:16:00,
2013-05-17 12:17:00,51.7,42.6,29.81,NE,42,0.0,0.0,71,0.00,,---,0.01,VWS V13.01,2013-05-17 18:17:00,
2013-05-17 12:18:00,51.6,41.8,29.81,NE,42,0.0,0.0,69,0.00,,---,0.01,VWS V13.01,2013-05-17 18:18:00,
2013-05-17 12:19:00,51.6,41.4,29.81,NE,42,0.0,0.0,68,0.00,,---,0.01,VWS V13.01,2013-05-17 18:19:00,
2013-05-17 12:20:00,51.4,42.0,29.81,NE,42,0.0,0.0,70,0.00,,---,0.01,VWS V13.01,2013-05-17 18:20:00,
2013-05-17 12:21:00,51.4,42.3,29.81,NE,46,1.0,1.0,71,0.00,,---,0.01,VWS V13.01,2013-05-17 18:21:00,
2013-05-17 12:22:00,51.3,41.5,29.81,SW,233,0.0,3.0,69,0.00,,---,0.01,VWS V13.01,2013-05-17 18:22:00,
2013-05-17 12:23:00,51.3,42.2,29.81,SW,233,0.0,3.0,71,0.00,,---,0.01,VWS V13.01,2013-05-17 18:23:00,
2013-05-17 12:24:00,51.3,41.9,29.81,SW,233,0.0,3.0,70,0.00,,---,0.01,VWS V13.01,2013-05-17 18:24:00,
2013-05-17 12:25:00,51.3,43.3,29.81,SW,233,0.0,3.0,74,0.00,,---,0.01,VWS V13.01,2013-05-17 18:25:00,
2013-05-17 12:26:00,51.3,42.2,29.81,SW,236,1.0,2.0,71,0.00,,---,0.01,VWS V13.01,2013-05-17 18:26:00,
2013-05-17 12:27:00,51.3,42.2,29.81,SW,225,0.0,2.0,71,0.00,,---,0.01,VWS V13.01,2013-05-17 18:27:00,
2013-05-17 12:28:00,51.3,41.5,29.81,SW,225,0.0,2.0,69,0.00,,---,0.01,VWS V13.01,2013-05-17 18:28:00,
2013-05-17 12:29:00,51.3,42.2,29.82,SW,217,0.0,3.0,71,0.00,,---,0.01,VWS V13.01,2013-05-17 18:29:00,
2013-05-17 12:30:00,51.3,41.9,29.82,SW,217,0.0,3.0,70,0.00,,---,0.01,VWS V13.01,2013-05-17 18:30:00,
2013-05-17 12:31:00,51.3,41.5,29.82,SW,217,0.0,0.0,69,0.00,,---,0.01,VWS V13.01,2013-05-17 18:31:00,
2013-05-17 12:32:00,51.4,42.3,29.82,SW,217,0.0,0.0,71,0.00,,---,0.01,VWS V13.01,2013-05-17 18:32:00,
2013-05-17 12:33:00,51.4,42.7,29.82,WNW,283,0.0,0.0,72,0.00,,---,0.01,VWS V13.01,2013-05-17 18:33:00,
2013-05-17 12:34:00,51.4,42.3,29.82,WNW,282,0.0,1.0,71,0.00,,---,0.01,VWS V13.01,2013-05-17 18:34:00,
2013-05-17 12:35:00,51.4,41.6,29.82,WNW,283,0.0,1.0,69,0.00,,---,0.01,VWS V13.01,2013-05-17 18:35:00,
2013-05-17 12:36:00,51.4,41.6,29.82,West,261,1.0,2.0,69,0.00,,---,0.01,VWS V13.01,2013-05-17 18:36:00,
2013-05-17 12:37:00,51.6,41.4,29.82,West,261,0.0,2.0,68,0.00,,---,0.01,VWS V13.01,2013-05-17 18:37:00,
2013-05-17 12:38:00,51.6,42.9,29.82,West,261,1.0,2.0,72,0.00,,---,0.01,VWS V13.01,2013-05-17 18:38:00,
2013-05-17 12:39:00,51.6,43.6,29.82,West,261,0.0,2.0,74,0.00,,---,0.01,VWS V13.01,2013-05-17 18:39:00,
2013-05-17 12:40:00,51.7,43.3,29.82,North,351,1.0,2.0,73,0.00,,---,0.01,VWS V13.01,2013-05-17 18:40:00,
2013-05-17 12:41:00,51.7,43.3,29.82,West,263,2.0,2.0,73,0.00,,---,0.01,VWS V13.01,2013-05-17 18:41:00,
2013-05-17 12:42:00,51.7,43.3,29.82,WSW,257,0.0,2.0,73,0.00,,---,0.01,VWS V13.01,2013-05-17 18:42:00,
2013-05-17 12:43:00,51.7,42.2,29.82,WSW,257,0.0,2.0,70,0.00,,---,0.01,VWS V13.01,2013-05-17 18:43:00,
2013-05-17 12:44:00,51.7,41.9,29.81,West,277,0.0,2.0,69,0.00,,---,0.01,VWS V13.01,2013-05-17 18:44:00,
2013-05-17 12:45:00,51.7,43.0,29.81,West,278,0.0,2.0,72,0.00,,---,0.01,VWS V13.01,2013-05-17 18:45:00,
2013-05-17 12:46:00,51.7,42.2,29.81,WSW,240,0.0,2.0,70,0.00,,---,0.01,VWS V13.01,2013-05-17 18:46:00,
2013-05-17 12:47:00,51.7,41.5,29.81,WSW,257,0.0,2.0,68,0.00,,---,0.01,VWS V13.01,2013-05-17 18:47:00,
2013-05-17 12:48:00,51.7,41.5,29.81,WSW,256,1.0,2.0,68,0.00,,---,0.01,VWS V13.01,2013-05-17 18:48:00,
2013-05-17 12:49:00,51.6,41.4,29.81,WSW,252,0.0,2.0,68,0.00,,---,0.01,VWS V13.01,2013-05-17 18:49:00,
2013-05-17 12:50:00,51.6,42.2,29.81,NNW,344,0.0,2.0,70,0.00,,---,0.01,VWS V13.01,2013-05-17 18:50:00,
2013-05-17 12:51:00,51.6,41.8,29.81,NNE,33,0.0,1.0,69,0.00,,---,0.01,VWS V13.01,2013-05-17 18:51:00,
2013-05-17 12:52:00,51.6,42.5,29.81,NE,37,0.0,1.0,71,0.00,,---,0.01,VWS V13.01,2013-05-17 18:52:00,
2013-05-17 12:53:00,51.4,42.0,29.81,NE,37,0.0,1.0,70,0.00,,---,0.01,VWS V13.01,2013-05-17 18:53:00,
2013-05-17 12:54:00,51.4,42.3,29.81,NE,37,0.0,1.0,71,0.00,,---,0.01,VWS V13.01,2013-05-17 18:54:00,
2013-05-17 12:55:00,51.4,42.0,29.81,NE,37,0.0,1.0,70,0.00,,---,0.01,VWS V13.01,2013-05-17 18:55:00,
2013-05-17 12:56:00,51.4,42.0,29.81,WSW,253,0.0,3.0,70,0.00,,---,0.01,VWS V13.01,2013-05-17 18:56:00,
2013-05-17 12:57:00,51.4,42.7,29.81,WSW,253,0.0,3.0,72,0.00,,---,0.01,VWS V13.01,2013-05-17 18:57:00,
2013-05-17 12:58:00,51.3,42.6,29.81,WSW,253,0.0,3.0,72,0.00,,---,0.01,VWS V13.01,2013-05-17 18:58:00,
2013-05-17 12:59:00,51.3,42.6,29.81,WSW,253,0.0,3.0,72,0.00,,---,0.01,VWS V13.01,2013-05-17 18:59:00,
2013-05-17 13:00:00,51.3,43.0,29.82,WSW,253,0.0,3.0,73,0.00,,---,0.01,VWS V13.01,2013-05-17 19:00:00,
2013-05-17 13:01:00,51.3,43.3,29.82,WSW,253,0.0,0.0,74,0.00,,---,0.01,VWS V13.01,2013-05-17 19:01:00,
2013-05-17 13:02:00,51.4,43.4,29.82,WSW,251,0.0,1.0,74,0.00,,---,0.01,VWS V13.01,2013-05-17 19:02:00,
2013-05-17 13:03:00,51.3,43.3,29.82,WSW,251,0.0,1.0,74,0.00,,---,0.01,VWS V13.01,2013-05-17 19:03:00,
2013-05-17 13:04:00,51.3,42.2,29.82,WSW,251,0.0,1.0,71,0.00,,---,0.01,VWS V13.01,2013-05-17 19:04:00,
2013-05-17 13:05:00,51.3,43.7,29.82,WSW,250,1.0,1.0,75,0.00,,---,0.01,VWS V13.01,2013-05-17 19:05:00,
2013-05-17 13:06:00,51.4,44.1,29.82,WSW,250,0.0,1.0,76,0.00,,---,0.01,VWS V13.01,2013-05-17 19:06:00,
2013-05-17 13:07:00,51.4,43.8,29.82,WSW,250,0.0,1.0,75,0.00,,---,0.01,VWS V13.01,2013-05-17 19:07:00,
2013-05-17 13:08:00,51.4,44.1,29.82,WSW,250,0.0,1.0,76,0.00,,---,0.01,VWS V13.01,2013-05-17 19:08:00,
2013-05-17 13:09:00,51.6,43.6,29.82,NNE,22,1.0,1.0,74,0.00,,---,0.01,VWS V13.01,2013-05-17 19:09:00,
2013-05-17 13:10:00,51.6,44.6,29.82,NE,38,0.0,1.0,77,0.00,,---,0.01,VWS V13.01,2013-05-17 19:10:00,
2013-05-17 13:11:00,51.7,44.7,29.82,WSW,252,1.0,1.0,77,0.00,,---,0.01,VWS V13.01,2013-05-17 19:11:00,
2013-05-17 13:12:00,51.7,44.7,29.82,SW,234,0.0,4.0,77,0.00,,---,0.01,VWS V13.01,2013-05-17 19:12:00,
2013-05-17 13:13:00,51.9,43.5,29.82,SW,234,0.0,4.0,73,0.00,,---,0.01,VWS V13.01,2013-05-17 19:13:00,
2013-05-17 13:14:00,51.9,43.5,29.82,SW,227,0.0,4.0,73,0.00,,---,0.01,VWS V13.01,2013-05-17 19:14:00,
2013-05-17 13:15:00,52.0,44.7,29.82,SW,227,0.0,4.0,76,0.00,,---,0.01,VWS V13.01,2013-05-17 19:15:00,
2013-05-17 13:16:00,52.0,45.4,29.82,WSW,248,0.0,1.0,78,0.00,,---,0.01,VWS V13.01,2013-05-17 19:16:00,
2013-05-17 13:17:00,52.2,45.6,29.82,WSW,250,0.0,1.0,78,0.00,,---,0.01,VWS V13.01,2013-05-17 19:17:00,
2013-05-17 13:18:00,52.2,44.9,29.82,WSW,248,0.0,1.0,76,0.00,,---,0.01,VWS V13.01,2013-05-17 19:18:00,
2013-05-17 13:19:00,52.3,43.5,29.82,WSW,248,0.0,1.0,72,0.00,,---,0.01,VWS V13.01,2013-05-17 19:19:00,
2013-05-17 13:20:00,52.3,42.8,29.82,SW,234,1.0,1.0,70,0.00,,---,0.01,VWS V13.01,2013-05-17 19:20:00,
2013-05-17 13:21:00,52.3,43.2,29.82,SSW,211,0.0,1.0,71,0.00,,---,0.01,VWS V13.01,2013-05-17 19:21:00,
2013-05-17 13:22:00,52.3,43.5,29.82,ENE,57,0.0,2.0,72,0.00,,---,0.01,VWS V13.01,2013-05-17 19:22:00,
2013-05-17 13:23:00,52.3,43.5,29.82,East,88,0.0,2.0,72,0.00,,---,0.01,VWS V13.01,2013-05-17 19:23:00,
2013-05-17 13:24:00,52.3,42.5,29.82,ENE,63,0.0,2.0,69,0.00,,---,0.01,VWS V13.01,2013-05-17 19:24:00,
2013-05-17 13:25:00,52.3,43.2,29.82,ENE,63,0.0,2.0,71,0.00,,---,0.01,VWS V13.01,2013-05-17 19:25:00,
2013-05-17 13:26:00,52.3,42.8,29.82,East,79,2.0,2.0,70,0.00,,---,0.01,VWS V13.01,2013-05-17 19:26:00,
2013-05-17 13:27:00,52.3,43.9,29.82,East,79,0.0,2.0,73,0.00,,---,0.01,VWS V13.01,2013-05-17 19:27:00,
2013-05-17 13:28:00,52.5,44.1,29.82,SW,227,2.0,2.0,73,0.00,,---,0.01,VWS V13.01,2013-05-17 19:28:00,
2013-05-17 13:29:00,52.5,43.8,29.80,WSW,244,0.0,4.0,72,0.00,,---,0.01,VWS V13.01,2013-05-17 19:29:00,
2013-05-17 13:30:00,52.3,42.8,29.80,WSW,244,0.0,4.0,70,0.00,,---,0.01,VWS V13.01,2013-05-17 19:30:00,
2013-05-17 13:31:00,52.3,42.8,29.80,ENE,70,0.0,1.0,70,0.00,,---,0.01,VWS V13.01,2013-05-17 19:31:00,
2013-05-17 13:32:00,52.3,42.8,29.80,SW,221,0.0,2.0,70,0.00,,---,0.01,VWS V13.01,2013-05-17 19:32:00,
2013-05-17 13:33:00,52.3,42.5,29.80,North,9,0.0,2.0,69,0.00,,---,0.01,VWS V13.01,2013-05-17 19:33:00,
2013-05-17 13:34:00,52.3,43.2,29.80,NNE,12,1.0,2.0,71,0.00,,---,0.01,VWS V13.01,2013-05-17 19:34:00,
2013-05-17 13:35:00,52.3,43.5,29.80,NNE,25,0.0,2.0,72,0.00,,---,0.01,VWS V13.01,2013-05-17 19:35:00,
2013-05-17 13:36:00,52.5,43.8,29.80,NNW,341,0.0,2.0,72,0.00,,---,0.01,VWS V13.01,2013-05-17 19:36:00,
2013-05-17 13:37:00,52.5,42.6,29.80,NNW,341,0.0,2.0,69,0.00,,---,0.01,VWS V13.01,2013-05-17 19:37:00,
2013-05-17 13:38:00,52.5,43.4,29.80,NNW,341,1.0,2.0,71,0.00,,---,0.01,VWS V13.01,2013-05-17 19:38:00,
2013-05-17 13:39:00,52.5,43.8,29.80,South,180,1.0,3.0,72,0.00,,---,0.01,VWS V13.01,2013-05-17 19:39:00,
2013-05-17 13:40:00,52.5,42.6,29.80,SSW,200,1.0,3.0,69,0.00,,---,0.01,VWS V13.01,2013-05-17 19:40:00,
2013-05-17 13:41:00,52.3,42.5,29.80,SW,225,0.0,3.0,69,0.00,,---,0.01,VWS V13.01,2013-05-17 19:41:00,
2013-05-17 13:42:00,52.3,43.2,29.80,ESE,115,0.0,3.0,71,0.00,,---,0.01,VWS V13.01,2013-05-17 19:42:00,
2013-05-17 13:43:00,52.3,43.5,29.80,ESE,122,0.0,3.0,72,0.00,,---,0.01,VWS V13.01,2013-05-17 19:43:00,
2013-05-17 13:44:00,52.3,43.5,29.81,WSW,257,1.0,3.0,72,0.00,,---,0.01,VWS V13.01,2013-05-17 19:44:00,
2013-05-17 13:45:00,52.3,43.2,29.81,WSW,250,0.0,3.0,71,0.00,,---,0.01,VWS V13.01,2013-05-17 19:45:00,
2013-05-17 13:46:00,52.3,43.2,29.81,WSW,250,0.0,1.0,71,0.00,,---,0.01,VWS V13.01,2013-05-17 19:46:00,
2013-05-17 13:47:00,52.3,43.2,29.81,WSW,250,0.0,1.0,71,0.00,,---,0.01,VWS V13.01,2013-05-17 19:47:00,
2013-05-17 13:48:00,52.3,43.2,29.81,WSW,241,0.0,2.0,71,0.00,,---,0.01,VWS V13.01,2013-05-17 19:48:00,
2013-05-17 13:49:00,52.3,44.3,29.81,WSW,242,0.0,2.0,74,0.00,,---,0.01,VWS V13.01,2013-05-17 19:49:00,
2013-05-17 13:50:00,52.3,43.2,29.81,SW,227,0.0,2.0,71,0.00,,---,0.01,VWS V13.01,2013-05-17 19:50:00,
2013-05-17 13:51:00,52.3,43.2,29.81,WSW,250,3.0,3.0,71,0.00,,---,0.01,VWS V13.01,2013-05-17 19:51:00,
2013-05-17 13:52:00,52.2,42.7,29.81,SW,221,0.0,4.0,70,0.00,,---,0.01,VWS V13.01,2013-05-17 19:52:00,
2013-05-17 13:53:00,52.2,42.7,29.81,South,177,0.0,4.0,70,0.00,,---,0.01,VWS V13.01,2013-05-17 19:53:00,
2013-05-17 13:54:00,52.2,42.3,29.81,South,177,0.0,4.0,69,0.00,,---,0.01,VWS V13.01,2013-05-17 19:54:00,
2013-05-17 13:55:00,52.2,42.7,29.81,West,274,0.0,4.0,70,0.00,,---,0.01,VWS V13.01,2013-05-17 19:55:00,
2013-05-17 13:56:00,52.0,42.5,29.81,NNW,328,0.0,4.0,70,0.00,,---,0.01,VWS V13.01,2013-05-17 19:56:00,
2013-05-17 13:57:00,52.0,42.2,29.81,NNW,327,0.0,4.0,69,0.00,,---,0.01,VWS V13.01,2013-05-17 19:57:00,
2013-05-17 13:58:00,52.0,41.8,29.81,NNW,327,0.0,4.0,68,0.00,,---,0.01,VWS V13.01,2013-05-17 19:58:00,
2013-05-17 13:59:00,52.0,42.2,29.81,WSW,250,2.0,4.0,69,0.00,,---,0.01,VWS V13.01,2013-05-17 19:59:00,
2013-05-17 14:00:00,52.0,41.8,29.81,SSW,202,0.0,4.0,68,0.00,,---,0.01,VWS V13.01,2013-05-17 20:00:00,
2013-05-17 14:01:00,51.9,41.7,29.81,NE,41,0.0,1.0,68,0.00,,---,0.01,VWS V13.01,2013-05-17 20:01:00,
2013-05-17 14:02:00,51.9,42.1,29.81,SW,218,0.0,2.0,69,0.00,,---,0.01,VWS V13.01,2013-05-17 20:02:00,
2013-05-17 14:03:00,51.9,41.7,29.81,NE,41,0.0,2.0,68,0.00,,---,0.01,VWS V13.01,2013-05-17 20:03:00,
2013-05-17 14:04:00,51.7,41.5,29.81,West,261,0.0,3.0,68,0.00,,---,0.01,VWS V13.01,2013-05-17 20:04:00,
2013-05-17 14:05:00,51.7,41.5,29.81,WSW,250,1.0,3.0,68,0.00,,---,0.01,VWS V13.01,2013-05-17 20:05:00,
2013-05-17 14:06:00,51.7,41.5,29.81,SE,134,0.0,1.0,68,0.00,,---,0.01,VWS V13.01,2013-05-17 20:06:00,
2013-05-17 14:07:00,51.7,41.5,29.81,SE,134,0.0,1.0,68,0.00,,---,0.01,VWS V13.01,2013-05-17 20:07:00,
2013-05-17 14:08:00,51.6,41.8,29.81,ESE,120,3.0,4.0,69,0.00,,---,0.01,VWS V13.01,2013-05-17 20:08:00,
2013-05-17 14:09:00,51.6,41.8,29.81,ENE,63,0.0,4.0,69,0.00,,---,0.01,VWS V13.01,2013-05-17 20:09:00,
2013-05-17 14:10:00,51.4,41.6,29.81,WSW,242,1.0,4.0,69,0.00,,---,0.01,VWS V13.01,2013-05-17 20:10:00,
2013-05-17 14:11:00,51.4,42.0,29.81,West,261,0.0,5.0,70,0.00,,---,0.01,VWS V13.01,2013-05-17 20:11:00,
2013-05-17 14:12:00,51.3,42.2,29.81,WSW,240,0.0,5.0,71,0.00,,---,0.01,VWS V13.01,2013-05-17 20:12:00,
2013-05-17 14:13:00,51.3,42.2,29.81,NNE,30,3.0,5.0,71,0.00,,---,0.01,VWS V13.01,2013-05-17 20:13:00,
2013-05-17 14:14:00,51.3,42.2,29.82,NNE,30,0.0,6.0,71,0.00,,---,0.01,VWS V13.01,2013-05-17 20:14:00,
2013-05-17 14:15:00,51.1,41.7,29.82,NE,49,0.0,6.0,70,0.00,,---,0.01,VWS V13.01,2013-05-17 20:15:00,
2013-05-17 14:16:00,51.1,42.4,29.82,South,170,0.0,2.0,72,0.00,,---,0.01,VWS V13.01,2013-05-17 20:16:00,
2013-05-17 14:17:00,51.1,42.8,29.82,South,170,0.0,2.0,73,0.00,,---,0.01,VWS V13.01,2013-05-17 20:17:00,
2013-05-17 14:18:00,51.1,42.4,29.82,South,170,0.0,2.0,72,0.00,,---,0.01,VWS V13.01,2013-05-17 20:18:00,
2013-05-17 14:19:00,51.0,42.3,29.82,South,170,0.0,2.0,72,0.00,,---,0.01,VWS V13.01,2013-05-17 20:19:00,
2013-05-17 14:20:00,51.0,42.3,29.82,South,171,0.0,2.0,72,0.00,,---,0.01,VWS V13.01,2013-05-17 20:20:00,
2013-05-17 14:21:00,51.0,43.0,29.82,SW,229,1.0,4.0,74,0.00,,---,0.01,VWS V13.01,2013-05-17 20:21:00,
2013-05-17 14:22:00,51.0,42.7,29.82,SW,229,2.0,4.0,73,0.00,,---,0.01,VWS V13.01,2013-05-17 20:22:00,
2013-05-17 14:23:00,51.0,43.0,29.82,SW,215,7.0,10.0,74,0.00,,---,0.01,VWS V13.01,2013-05-17 20:23:00,
2013-05-17 14:24:00,51.0,43.0,29.82,South,182,1.0,10.0,74,0.00,,---,0.01,VWS V13.01,2013-05-17 20:24:00,
2013-05-17 14:25:00,50.8,42.8,29.82,SW,217,4.0,10.0,74,0.00,,---,0.01,VWS V13.01,2013-05-17 20:25:00,
2013-05-17 14:26:00,50.8,43.2,29.82,SE,145,0.0,4.0,75,0.00,,---,0.01,VWS V13.01,2013-05-17 20:26:00,
2013-05-17 14:27:00,50.7,43.4,29.82,East,94,0.0,4.0,76,0.00,,---,0.01,VWS V13.01,2013-05-17 20:27:00,
2013-05-17 14:28:00,50.7,43.4,29.82,East,94,0.0,4.0,76,0.00,,---,0.01,VWS V13.01,2013-05-17 20:28:00,
2013-05-17 14:29:00,50.7,43.8,29.82,SW,236,0.0,4.0,77,0.00,,---,0.01,VWS V13.01,2013-05-17 20:29:00,
2013-05-17 14:30:00,50.5,43.6,29.83,SW,236,0.0,4.0,77,0.00,,---,0.01,VWS V13.01,2013-05-17 20:30:00,
2013-05-17 14:31:00,50.5,43.9,29.83,SW,236,0.0,0.0,78,0.00,,---,0.01,VWS V13.01,2013-05-17 20:31:00,
2013-05-17 14:32:00,50.5,43.9,29.83,ENE,68,0.0,2.0,78,0.01,,---,0.02,VWS V13.01,2013-05-17 20:32:00,
2013-05-17 14:33:00,50.5,44.2,29.83,NNE,24,0.0,3.0,79,0.01,,---,0.02,VWS V13.01,2013-05-17 20:33:00,
2013-05-17 14:34:00,50.5,44.2,29.83,NNE,24,0.0,3.0,79,0.01,,---,0.02,VWS V13.01,2013-05-17 20:34:00,
2013-05-17 14:35:00,50.5,43.9,29.83,NNE,14,0.0,3.0,78,0.01,,---,0.02,VWS V13.01,2013-05-17 20:35:00,
2013-05-17 14:36:00,50.5,43.9,29.83,NNE,14,0.0,0.0,78,0.01,,---,0.02,VWS V13.01,2013-05-17 20:36:00,
2013-05-17 14:37:00,50.5,44.2,29.83,SW,221,1.0,4.0,79,0.01,,---,0.02,VWS V13.01,2013-05-17 20:37:00,
2013-05-17 14:38:00,50.4,43.8,29.83,SW,225,1.0,4.0,78,0.01,,---,0.02,VWS V13.01,2013-05-17 20:38:00,
2013-05-17 14:39:00,50.4,44.5,29.83,SW,225,0.0,4.0,80,0.01,,---,0.02,VWS V13.01,2013-05-17 20:39:00,
2013-05-17 14:40:00,50.4,44.5,29.83,SW,225,0.0,4.0,80,0.01,,---,0.02,VWS V13.01,2013-05-17 20:40:00,
2013-05-17 14:41:00,50.2,44.3,29.83,WSW,254,1.0,3.0,80,0.01,,---,0.02,VWS V13.01,2013-05-17 20:41:00,
2013-05-17 14:42:00,50.2,44.3,29.83,WSW,254,0.0,3.0,80,0.01,,---,0.02,VWS V13.01,2013-05-17 20:42:00,
2013-05-17 14:43:00,50.1,44.2,29.83,WSW,252,1.0,3.0,80,0.01,,---,0.02,VWS V13.01,2013-05-17 20:43:00,
2013-05-17 14:44:00,50.1,44.5,29.83,WSW,242,0.0,3.0,81,0.01,,---,0.02,VWS V13.01,2013-05-17 20:44:00,
2013-05-17 14:45:00,50.1,44.5,29.83,WSW,242,0.0,3.0,81,0.01,,---,0.02,VWS V13.01,2013-05-17 20:45:00,
2013-05-17 14:46:00,49.9,44.6,29.83,WSW,242,0.0,1.0,82,0.01,,---,0.02,VWS V13.01,2013-05-17 20:46:00,
2013-05-17 14:47:00,49.9,45.0,29.83,WSW,238,0.0,2.0,83,0.01,,---,0.02,VWS V13.01,2013-05-17 20:47:00,
2013-05-17 14:48:00,49.9,44.6,29.83,WSW,239,1.0,2.0,82,0.01,,---,0.02,VWS V13.01,2013-05-17 20:48:00,
2013-05-17 14:49:00,49.8,44.5,29.83,WSW,239,0.0,2.0,82,0.01,,---,0.02,VWS V13.01,2013-05-17 20:49:00,
2013-05-17 14:50:00,49.8,44.8,29.83,WSW,247,0.0,4.0,83,0.01,,---,0.02,VWS V13.01,2013-05-17 20:50:00,
2013-05-17 14:51:00,49.8,44.5,29.83,SW,236,0.0,2.0,82,0.01,,---,0.02,VWS V13.01,2013-05-17 20:51:00,
2013-05-17 14:52:00,49.6,44.0,29.83,WSW,241,0.0,2.0,81,0.01,,---,0.02,VWS V13.01,2013-05-17 20:52:00,
2013-05-17 14:53:00,49.6,44.3,29.83,WSW,240,0.0,2.0,82,0.01,,---,0.02,VWS V13.01,2013-05-17 20:53:00,
2013-05-17 14:54:00,49.6,44.3,29.83,WSW,241,0.0,2.0,82,0.01,,---,0.02,VWS V13.01,2013-05-17 20:54:00,
2013-05-17 14:55:00,49.5,44.2,29.83,South,175,0.0,2.0,82,0.01,,---,0.02,VWS V13.01,2013-05-17 20:55:00,
2013-05-17 14:56:00,49.5,44.2,29.83,South,175,0.0,1.0,82,0.01,,---,0.02,VWS V13.01,2013-05-17 20:56:00,
2013-05-17 14:57:00,49.5,44.2,29.83,South,175,0.0,1.0,82,0.01,,---,0.02,VWS V13.01,2013-05-17 20:57:00,
2013-05-17 14:58:00,49.5,44.6,29.83,South,175,0.0,1.0,83,0.01,,---,0.02,VWS V13.01,2013-05-17 20:58:00,
2013-05-17 14:59:00,49.5,44.6,29.82,South,175,0.0,1.0,83,0.01,,---,0.02,VWS V13.01,2013-05-17 20:59:00,
2013-05-17 15:00:00,49.4,44.5,29.82,East,94,0.0,1.0,83,0.01,,---,0.02,VWS V13.01,2013-05-17 21:00:00,
2013-05-17 15:01:00,49.4,44.5,29.82,SW,235,1.0,4.0,83,0.01,,---,0.02,VWS V13.01,2013-05-17 21:01:00,
2013-05-17 15:02:00,49.4,44.1,29.82,SW,233,0.0,4.0,82,0.01,,---,0.02,VWS V13.01,2013-05-17 21:02:00,
2013-05-17 15:03:00,49.4,44.5,29.82,WSW,244,0.0,4.0,83,0.01,,---,0.02,VWS V13.01,2013-05-17 21:03:00,
2013-05-17 15:04:00,49.4,44.5,29.82,SW,225,1.0,4.0,83,0.01,,---,0.02,VWS V13.01,2013-05-17 21:04:00,
2013-05-17 15:05:00,49.4,44.1,29.82,SW,217,4.0,4.0,82,0.01,,---,0.02,VWS V13.01,2013-05-17 21:05:00,
2013-05-17 15:06:00,49.4,44.1,29.82,WSW,242,1.0,4.0,82,0.01,,---,0.02,VWS V13.01,2013-05-17 21:06:00,
2013-05-17 15:07:00,49.4,44.1,29.82,South,173,0.0,4.0,82,0.01,,---,0.02,VWS V13.01,2013-05-17 21:07:00,
2013-05-17 15:08:00,49.4,44.5,29.82,SSW,199,0.0,4.0,83,0.01,,---,0.02,VWS V13.01,2013-05-17 21:08:00,
2013-05-17 15:09:00,49.5,44.6,29.82,SSW,200,0.0,4.0,83,0.01,,---,0.02,VWS V13.01,2013-05-17 21:09:00,
2013-05-17 15:10:00,49.5,44.6,29.82,SW,234,2.0,4.0,83,0.01,,---,0.02,VWS V13.01,2013-05-17 21:10:00,
2013-05-17 15:11:00,49.5,44.6,29.82,West,266,0.0,3.0,83,0.01,,---,0.02,VWS V13.01,2013-05-17 21:11:00,
2013-05-17 15:12:00,49.5,44.2,29.82,West,266,0.0,3.0,82,0.01,,---,0.02,VWS V13.01,2013-05-17 21:12:00,
2013-05-17 15:13:00,49.6,44.7,29.82,ESE,115,0.0,3.0,83,0.01,,---,0.02,VWS V13.01,2013-05-17 21:13:00,
2013-05-17 15:14:00,49.6,44.7,29.84,SSW,195,1.0,3.0,83,0.01,,---,0.02,VWS V13.01,2013-05-17 21:14:00,
2013-05-17 15:15:00,49.6,44.7,29.84,SSW,205,0.0,3.0,83,0.01,,---,0.02,VWS V13.01,2013-05-17 21:15:00,
2013-05-17 15:16:00,49.8,44.8,29.84,WNW,294,0.0,1.0,83,0.01,,---,0.02,VWS V13.01,2013-05-17 21:16:00,
2013-05-17 15:17:00,49.8,45.2,29.84,WNW,294,0.0,1.0,84,0.01,,---,0.02,VWS V13.01,2013-05-17 21:17:00,
2013-05-17 15:18:00,49.8,45.2,29.84,WNW,293,0.0,1.0,84,0.01,,---,0.02,VWS V13.01,2013-05-17 21:18:00,
2013-05-17 15:19:00,49.8,44.5,29.84,WSW,246,0.0,2.0,82,0.01,,---,0.02,VWS V13.01,2013-05-17 21:19:00,
2013-05-17 15:20:00,49.8,44.5,29.84,WSW,247,0.0,2.0,82,0.01,,---,0.02,VWS V13.01,2013-05-17 21:20:00,
2013-05-17 15:21:00,49.8,44.5,29.84,WSW,254,2.0,2.0,82,0.01,,---,0.02,VWS V13.01,2013-05-17 21:21:00,
2013-05-17 15:22:00,49.8,44.2,29.84,WSW,250,1.0,2.0,81,0.01,,---,0.02,VWS V13.01,2013-05-17 21:22:00,
2013-05-17 15:23:00,49.8,44.2,29.84,South,188,0.0,2.0,81,0.01,,---,0.02,VWS V13.01,2013-05-17 21:23:00,
2013-05-17 15:24:00,49.8,44.2,29.84,South,188,0.0,2.0,81,0.01,,---,0.02,VWS V13.01,2013-05-17 21:24:00,
2013-05-17 15:25:00,49.8,44.2,29.84,SSW,192,0.0,2.0,81,0.01,,---,0.02,VWS V13.01,2013-05-17 21:25:00,
2013-05-17 15:26:00,49.8,44.5,29.84,SSW,192,0.0,0.0,82,0.01,,---,0.02,VWS V13.01,2013-05-17 21:26:00,
2013-05-17 15:27:00,49.8,44.2,29.84,SSW,200,0.0,1.0,81,0.01,,---,0.02,VWS V13.01,2013-05-17 21:27:00,
2013-05-17 15:28:00,49.8,44.2,29.84,SSW,199,0.0,1.0,81,0.01,,---,0.02,VWS V13.01,2013-05-17 21:28:00,
2013-05-17 15:29:00,49.8,44.5,29.83,SSW,204,1.0,1.0,82,0.01,,---,0.02,VWS V13.01,2013-05-17 21:29:00,
2013-05-17 15:30:00,49.8,44.5,29.83,SW,236,0.0,2.0,82,0.01,,---,0.02,VWS V13.01,2013-05-17 21:30:00,
2013-05-17 15:31:00,49.9,44.3,29.83,SW,236,0.0,0.0,81,0.01,,---,0.02,VWS V13.01,2013-05-17 21:31:00,
2013-05-17 15:32:00,49.9,44.6,29.83,SW,236,0.0,0.0,82,0.01,,---,0.02,VWS V13.01,2013-05-17 21:32:00,
2013-05-17 15:33:00,49.9,44.6,29.83,SW,236,0.0,0.0,82,0.01,,---,0.02,VWS V13.01,2013-05-17 21:33:00,
2013-05-17 15:34:00,49.9,45.0,29.83,SW,229,0.0,1.0,83,0.01,,---,0.02,VWS V13.01,2013-05-17 21:34:00,
2013-05-17 15:35:00,49.9,44.6,29.83,SW,229,0.0,1.0,82,0.01,,---,0.02,VWS V13.01,2013-05-17 21:35:00,
2013-05-17 15:36:00,50.1,45.2,29.83,SW,227,0.0,1.0,83,0.00,,---,0.02,VWS V13.01,2013-05-17 21:36:00,
2013-05-17 15:37:00,50.1,44.5,29.83,SW,227,0.0,1.0,81,0.00,,---,0.02,VWS V13.01,2013-05-17 21:37:00,
2013-05-17 15:38:00,50.1,44.8,29.83,SW,227,0.0,1.0,82,0.00,,---,0.02,VWS V13.01,2013-05-17 21:38:00,
2013-05-17 15:39:00,50.1,44.8,29.83,SW,227,0.0,1.0,82,0.00,,---,0.02,VWS V13.01,2013-05-17 21:39:00,
2013-05-17 15:40:00,50.1,44.8,29.83,SW,227,0.0,1.0,82,0.00,,---,0.02,VWS V13.01,2013-05-17 21:40:00,
2013-05-17 15:41:00,50.1,44.8,29.83,SW,227,1.0,1.0,82,0.00,,---,0.02,VWS V13.01,2013-05-17 21:41:00,
2013-05-17 15:42:00,50.1,44.8,29.83,SW,227,0.0,1.0,82,0.00,,---,0.02,VWS V13.01,2013-05-17 21:42:00,
2013-05-17 15:43:00,50.1,44.8,29.83,SW,227,0.0,1.0,82,0.00,,---,0.02,VWS V13.01,2013-05-17 21:43:00,
2013-05-17 15:44:00,50.1,44.8,29.84,SW,227,0.0,1.0,82,0.00,,---,0.02,VWS V13.01,2013-05-17 21:44:00,
2013-05-17 15:45:00,50.1,44.8,29.84,SW,227,0.0,1.0,82,0.00,,---,0.02,VWS V13.01,2013-05-17 21:45:00,
2013-05-17 15:46:00,50.1,44.8,29.84,SW,227,0.0,0.0,82,0.00,,---,0.02,VWS V13.01,2013-05-17 21:46:00,
2013-05-17 15:47:00,50.1,44.8,29.84,SW,227,0.0,0.0,82,0.00,,---,0.02,VWS V13.01,2013-05-17 21:47:00,
2013-05-17 15:48:00,50.1,44.5,29.84,SW,227,0.0,0.0,81,0.00,,---,0.02,VWS V13.01,2013-05-17 21:48:00,
2013-05-17 15:49:00,50.1,44.8,29.84,SW,227,0.0,0.0,82,0.00,,---,0.02,VWS V13.01,2013-05-17 21:49:00,
2013-05-17 15:50:00,50.1,44.5,29.84,WSW,242,1.0,3.0,81,0.00,,---,0.02,VWS V13.01,2013-05-17 21:50:00,
2013-05-17 15:51:00,50.1,44.2,29.84,WSW,242,0.0,1.0,80,0.00,,---,0.02,VWS V13.01,2013-05-17 21:51:00,
2013-05-17 15:52:00,50.1,44.2,29.84,WSW,242,0.0,1.0,80,0.00,,---,0.02,VWS V13.01,2013-05-17 21:52:00,
2013-05-17 15:53:00,49.9,44.0,29.84,WSW,242,0.0,1.0,80,0.00,,---,0.02,VWS V13.01,2013-05-17 21:53:00,
2013-05-17 15:54:00,49.9,44.0,29.84,WSW,242,0.0,1.0,80,0.00,,---,0.02,VWS V13.01,2013-05-17 21:54:00,
2013-05-17 15:55:00,49.9,44.0,29.84,WSW,242,0.0,1.0,80,0.00,,---,0.02,VWS V13.01,2013-05-17 21:55:00,
2013-05-17 15:56:00,49.9,44.0,29.84,SSW,198,1.0,1.0,80,0.00,,---,0.02,VWS V13.01,2013-05-17 21:56:00,
2013-05-17 15:57:00,49.9,44.3,29.84,SSW,198,0.0,1.0,81,0.00,,---,0.02,VWS V13.01,2013-05-17 21:57:00,
2013-05-17 15:58:00,49.9,44.3,29.84,SSW,198,0.0,1.0,81,0.00,,---,0.02,VWS V13.01,2013-05-17 21:58:00,
2013-05-17 15:59:00,49.8,44.2,29.84,SSW,198,0.0,1.0,81,0.00,,---,0.02,VWS V13.01,2013-05-17 21:59:00,
2013-05-17 16:00:00,49.8,44.2,29.84,SSW,198,0.0,1.0,81,0.00,,---,0.02,VWS V13.01,2013-05-17 22:00:00,
2013-05-17 16:01:00,49.8,44.2,29.84,SSW,198,0.0,0.0,81,0.00,,---,0.02,VWS V13.01,2013-05-17 22:01:00,
2013-05-17 16:02:00,49.8,44.2,29.84,SSW,198,0.0,0.0,81,0.00,,---,0.02,VWS V13.01,2013-05-17 22:02:00,
2013-05-17 16:03:00,49.8,44.2,29.84,SSW,198,0.0,0.0,81,0.00,,---,0.02,VWS V13.01,2013-05-17 22:03:00,
2013-05-17 16:04:00,49.8,44.5,29.84,SSW,198,0.0,0.0,82,0.00,,---,0.02,VWS V13.01,2013-05-17 22:04:00,
2013-05-17 16:05:00,49.8,44.5,29.84,SSW,198,0.0,0.0,82,0.00,,---,0.02,VWS V13.01,2013-05-17 22:05:00,
2013-05-17 16:06:00,49.8,44.2,29.84,SSW,198,0.0,0.0,81,0.00,,---,0.02,VWS V13.01,2013-05-17 22:06:00,
2013-05-17 16:07:00,49.8,44.2,29.84,SSW,198,0.0,0.0,81,0.00,,---,0.02,VWS V13.01,2013-05-17 22:07:00,
2013-05-17 16:08:00,49.8,44.5,29.84,WSW,254,1.0,1.0,82,0.00,,---,0.02,VWS V13.01,2013-05-17 22:08:00,
2013-05-17 16:09:00,49.8,44.2,29.84,WSW,254,0.0,2.0,81,0.00,,---,0.02,VWS V13.01,2013-05-17 22:09:00,
2013-05-17 16:10:00,49.9,44.6,29.84,WSW,254,0.0,2.0,82,0.00,,---,0.02,VWS V13.01,2013-05-17 22:10:00,
2013-05-17 16:11:00,49.9,44.6,29.84,WSW,254,0.0,0.0,82,0.00,,---,0.02,VWS V13.01,2013-05-17 22:11:00,
2013-05-17 16:12:00,49.9,44.6,29.84,WSW,245,0.0,3.0,82,0.00,,---,0.02,VWS V13.01,2013-05-17 22:12:00,
2013-05-17 16:13:00,49.9,44.6,29.84,WSW,245,0.0,3.0,82,0.00,,---,0.02,VWS V13.01,2013-05-17 22:13:00,
2013-05-17 16:14:00,49.9,44.6,29.84,WSW,246,0.0,3.0,82,0.00,,---,0.02,VWS V13.01,2013-05-17 22:14:00,
2013-05-17 16:15:00,49.9,44.6,29.84,WSW,248,0.0,3.0,82,0.00,,---,0.02,VWS V13.01,2013-05-17 22:15:00,
2013-05-17 16:16:00,49.9,44.3,29.84,WSW,248,0.0,0.0,81,0.00,,---,0.02,VWS V13.01,2013-05-17 22:16:00,
2013-05-17 16:17:00,49.9,44.3,29.84,WSW,248,0.0,0.0,81,0.00,,---,0.02,VWS V13.01,2013-05-17 22:17:00,
2013-05-17 16:18:00,49.8,44.5,29.84,WSW,248,0.0,0.0,82,0.00,,---,0.02,VWS V13.01,2013-05-17 22:18:00,
2013-05-17 16:19:00,49.8,44.5,29.84,WSW,248,0.0,1.0,82,0.00,,---,0.02,VWS V13.01,2013-05-17 22:19:00,
2013-05-17 16:20:00,49.8,44.5,29.84,WSW,248,0.0,1.0,82,0.00,,---,0.02,VWS V13.01,2013-05-17 22:20:00,
2013-05-17 16:21:00,49.8,44.5,29.84,WSW,248,0.0,0.0,82,0.00,,---,0.02,VWS V13.01,2013-05-17 22:21:00,
2013-05-17 16:22:00,49.8,44.5,29.84,NNE,23,0.0,2.0,82,0.00,,---,0.02,VWS V13.01,2013-05-17 22:22:00,
2013-05-17 16:23:00,49.8,44.8,29.84,NNE,23,0.0,2.0,83,0.00,,---,0.02,VWS V13.01,2013-05-17 22:23:00,
2013-05-17 16:24:00,49.8,44.8,29.84,NNE,23,0.0,2.0,83,0.00,,---,0.02,VWS V13.01,2013-05-17 22:24:00,
2013-05-17 16:25:00,49.8,44.5,29.84,NNE,23,0.0,2.0,82,0.00,,---,0.02,VWS V13.01,2013-05-17 22:25:00,
2013-05-17 16:26:00,49.8,44.8,29.84,NNE,23,0.0,0.0,83,0.00,,---,0.02,VWS V13.01,2013-05-17 22:26:00,
2013-05-17 16:27:00,49.6,44.7,29.84,NNE,23,0.0,1.0,83,0.00,,---,0.02,VWS V13.01,2013-05-17 22:27:00,
2013-05-17 16:28:00,49.6,44.7,29.84,WSW,238,0.0,1.0,83,0.00,,---,0.02,VWS V13.01,2013-05-17 22:28:00,
2013-05-17 16:29:00,49.6,44.7,29.84,WSW,238,0.0,1.0,83,0.00,,---,0.02,VWS V13.01,2013-05-17 22:29:00,
2013-05-17 16:30:00,49.6,44.7,29.84,WSW,238,0.0,1.0,83,0.00,,---,0.02,VWS V13.01,2013-05-17 22:30:00,
2013-05-17 16:31:00,49.6,44.7,29.84,WSW,238,0.0,0.0,83,0.00,,---,0.02,VWS V13.01,2013-05-17 22:31:00,
2013-05-17 16:32:00,49.6,44.7,29.84,WSW,238,0.0,0.0,83,0.00,,---,0.02,VWS V13.01,2013-05-17 22:32:00,
2013-05-17 16:33:00,49.6,44.7,29.84,WSW,238,0.0,0.0,83,0.00,,---,0.02,VWS V13.01,2013-05-17 22:33:00,
2013-05-17 16:34:00,49.6,44.7,29.84,WSW,238,0.0,0.0,83,0.00,,---,0.02,VWS V13.01,2013-05-17 22:34:00,
2013-05-17 16:35:00,49.5,44.6,29.84,WSW,238,0.0,0.0,83,0.00,,---,0.02,VWS V13.01,2013-05-17 22:35:00,
2013-05-17 16:36:00,49.5,44.9,29.84,WSW,238,0.0,0.0,84,0.00,,---,0.02,VWS V13.01,2013-05-17 22:36:00,
2013-05-17 16:37:00,49.6,45.0,29.84,WSW,238,0.0,0.0,84,0.00,,---,0.02,VWS V13.01,2013-05-17 22:37:00,
2013-05-17 16:38:00,49.6,45.0,29.84,WSW,238,0.0,0.0,84,0.00,,---,0.02,VWS V13.01,2013-05-17 22:38:00,
2013-05-17 16:39:00,49.6,45.3,29.84,WSW,238,0.0,0.0,85,0.00,,---,0.02,VWS V13.01,2013-05-17 22:39:00,
2013-05-17 16:40:00,49.6,45.3,29.84,WSW,238,0.0,0.0,85,0.00,,---,0.02,VWS V13.01,2013-05-17 22:40:00,
2013-05-17 16:41:00,49.5,44.9,29.84,WSW,238,0.0,0.0,84,0.01,,---,0.03,VWS V13.01,2013-05-17 22:41:00,
2013-05-17 16:42:00,49.5,44.9,29.84,WSW,238,0.0,0.0,84,0.01,,---,0.03,VWS V13.01,2013-05-17 22:42:00,
2013-05-17 16:43:00,49.5,44.9,29.84,WSW,238,0.0,0.0,84,0.01,,---,0.03,VWS V13.01,2013-05-17 22:43:00,
2013-05-17 16:44:00,49.5,45.2,29.84,WSW,238,0.0,0.0,85,0.01,,---,0.03,VWS V13.01,2013-05-17 22:44:00,
2013-05-17 16:45:00,49.5,45.2,29.85,WSW,238,0.0,0.0,85,0.01,,---,0.03,VWS V13.01,2013-05-17 22:45:00,
2013-05-17 16:46:00,49.6,45.3,29.85,WSW,238,0.0,0.0,85,0.01,,---,0.03,VWS V13.01,2013-05-17 22:46:00,
2013-05-17 16:47:00,49.6,45.0,29.85,WSW,238,0.0,0.0,84,0.01,,---,0.03,VWS V13.01,2013-05-17 22:47:00,
2013-05-17 16:48:00,49.6,45.0,29.85,WSW,238,0.0,0.0,84,0.01,,---,0.03,VWS V13.01,2013-05-17 22:48:00,
2013-05-17 16:49:00,49.6,45.0,29.85,WSW,238,0.0,0.0,84,0.01,,---,0.03,VWS V13.01,2013-05-17 22:49:00,
2013-05-17 16:50:00,49.5,44.9,29.85,WSW,238,0.0,0.0,84,0.01,,---,0.03,VWS V13.01,2013-05-17 22:50:00,
2013-05-17 16:51:00,49.5,44.9,29.85,WSW,238,0.0,0.0,84,0.01,,---,0.03,VWS V13.01,2013-05-17 22:51:00,
2013-05-17 16:52:00,49.5,44.9,29.85,WSW,238,0.0,0.0,84,0.01,,---,0.03,VWS V13.01,2013-05-17 22:52:00,
2013-05-17 16:53:00,49.5,44.9,29.85,WSW,238,0.0,0.0,84,0.01,,---,0.03,VWS V13.01,2013-05-17 22:53:00,
2013-05-17 16:54:00,49.5,45.2,29.85,WSW,238,0.0,0.0,85,0.01,,---,0.03,VWS V13.01,2013-05-17 22:54:00,
2013-05-17 16:55:00,49.5,45.2,29.85,WSW,238,0.0,0.0,85,0.01,,---,0.03,VWS V13.01,2013-05-17 22:55:00,
2013-05-17 16:56:00,49.5,45.2,29.85,WSW,238,0.0,0.0,85,0.01,,---,0.03,VWS V13.01,2013-05-17 22:56:00,
2013-05-17 16:57:00,49.5,45.2,29.85,WSW,238,0.0,0.0,85,0.01,,---,0.03,VWS V13.01,2013-05-17 22:57:00,
2013-05-17 16:58:00,49.5,45.2,29.85,WSW,238,0.0,0.0,85,0.01,,---,0.03,VWS V13.01,2013-05-17 22:58:00,
2013-05-17 16:59:00,49.5,45.2,29.85,WSW,238,0.0,0.0,85,0.01,,---,0.03,VWS V13.01,2013-05-17 22:59:00,
2013-05-17 17:00:00,49.5,45.2,29.85,WSW,238,0.0,0.0,85,0.01,,---,0.03,VWS V13.01,2013-05-17 23:00:00,
2013-05-17 17:01:00,49.5,45.2,29.85,WSW,238,0.0,0.0,85,0.01,,---,0.03,VWS V13.01,2013-05-17 23:01:00,
2013-05-17 17:02:00,49.5,45.5,29.85,WSW,238,0.0,0.0,86,0.01,,---,0.03,VWS V13.01,2013-05-17 23:02:00,
2013-05-17 17:03:00,49.5,45.5,29.85,WSW,238,0.0,0.0,86,0.01,,---,0.03,VWS V13.01,2013-05-17 23:03:00,
2013-05-17 17:04:00,49.5,45.5,29.85,WSW,238,0.0,0.0,86,0.01,,---,0.03,VWS V13.01,2013-05-17 23:04:00,
2013-05-17 17:05:00,49.5,45.5,29.85,WSW,238,0.0,0.0,86,0.01,,---,0.03,VWS V13.01,2013-05-17 23:05:00,
2013-05-17 17:06:00,49.5,44.9,29.85,WSW,238,0.0,0.0,84,0.01,,---,0.03,VWS V13.01,2013-05-17 23:06:00,
2013-05-17 17:07:00,49.5,45.2,29.85,WSW,238,0.0,0.0,85,0.01,,---,0.03,VWS V13.01,2013-05-17 23:07:00,
2013-05-17 17:08:00,49.5,45.2,29.85,WSW,238,0.0,0.0,85,0.01,,---,0.03,VWS V13.01,2013-05-17 23:08:00,
2013-05-17 17:09:00,49.5,45.2,29.85,WSW,238,0.0,0.0,85,0.01,,---,0.03,VWS V13.01,2013-05-17 23:09:00,
2013-05-17 17:10:00,49.5,45.2,29.85,WSW,238,0.0,0.0,85,0.01,,---,0.03,VWS V13.01,2013-05-17 23:10:00,
2013-05-17 17:11:00,49.4,45.1,29.85,WSW,238,0.0,0.0,85,0.01,,---,0.03,VWS V13.01,2013-05-17 23:11:00,
2013-05-17 17:12:00,49.4,45.1,29.85,WSW,238,0.0,0.0,85,0.01,,---,0.03,VWS V13.01,2013-05-17 23:12:00,
2013-05-17 17:13:00,49.4,45.1,29.85,WSW,238,0.0,0.0,85,0.01,,---,0.03,VWS V13.01,2013-05-17 23:13:00,
2013-05-17 17:14:00,49.4,45.1,29.84,WSW,238,0.0,0.0,85,0.01,,---,0.03,VWS V13.01,2013-05-17 23:14:00,
2013-05-17 17:15:00,49.4,45.1,29.84,WSW,238,0.0,0.0,85,0.01,,---,0.03,VWS V13.01,2013-05-17 23:15:00,
2013-05-17 17:16:00,49.4,45.1,29.84,WSW,238,0.0,0.0,85,0.01,,---,0.03,VWS V13.01,2013-05-17 23:16:00,
2013-05-17 17:17:00,49.4,45.1,29.84,WSW,238,0.0,0.0,85,0.01,,---,0.03,VWS V13.01,2013-05-17 23:17:00,
2013-05-17 17:18:00,49.4,45.1,29.84,WSW,238,0.0,0.0,85,0.01,,---,0.03,VWS V13.01,2013-05-17 23:18:00,
2013-05-17 17:19:00,49.2,44.9,29.84,WSW,238,0.0,0.0,85,0.01,,---,0.03,VWS V13.01,2013-05-17 23:19:00,
2013-05-17 17:20:00,49.2,44.9,29.84,WSW,238,0.0,0.0,85,0.01,,---,0.03,VWS V13.01,2013-05-17 23:20:00,
2013-05-17 17:21:00,49.2,44.9,29.84,WSW,238,0.0,0.0,85,0.01,,---,0.03,VWS V13.01,2013-05-17 23:21:00,
2013-05-17 17:22:00,49.2,44.9,29.84,WSW,238,0.0,0.0,85,0.01,,---,0.03,VWS V13.01,2013-05-17 23:22:00,
2013-05-17 17:23:00,49.2,44.9,29.84,WSW,238,0.0,0.0,85,0.01,,---,0.03,VWS V13.01,2013-05-17 23:23:00,
2013-05-17 17:24:00,49.2,44.9,29.84,WSW,238,0.0,0.0,85,0.01,,---,0.03,VWS V13.01,2013-05-17 23:24:00,
2013-05-17 17:25:00,49.2,45.2,29.84,WSW,238,0.0,0.0,86,0.01,,---,0.03,VWS V13.01,2013-05-17 23:25:00,
2013-05-17 17:26:00,49.2,45.2,29.84,WSW,238,0.0,0.0,86,0.01,,---,0.03,VWS V13.01,2013-05-17 23:26:00,
2013-05-17 17:27:00,49.2,45.2,29.84,WSW,238,0.0,0.0,86,0.01,,---,0.03,VWS V13.01,2013-05-17 23:27:00,
2013-05-17 17:28:00,49.2,45.2,29.84,WSW,238,0.0,0.0,86,0.01,,---,0.03,VWS V13.01,2013-05-17 23:28:00,
2013-05-17 17:29:00,49.2,45.2,29.84,WSW,238,0.0,0.0,86,0.01,,---,0.03,VWS V13.01,2013-05-17 23:29:00,
2013-05-17 17:30:00,49.2,45.2,29.84,WSW,238,0.0,0.0,86,0.01,,---,0.03,VWS V13.01,2013-05-17 23:30:00,
2013-05-17 17:31:00,49.2,45.2,29.84,WSW,238,0.0,0.0,86,0.01,,---,0.03,VWS V13.01,2013-05-17 23:31:00,
2013-05-17 17:32:00,49.2,45.2,29.84,WSW,238,0.0,0.0,86,0.01,,---,0.03,VWS V13.01,2013-05-17 23:32:00,
2013-05-17 17:33:00,49.2,45.2,29.84,WSW,238,0.0,0.0,86,0.01,,---,0.03,VWS V13.01,2013-05-17 23:33:00,
2013-05-17 17:34:00,49.2,45.2,29.84,WSW,238,0.0,0.0,86,0.01,,---,0.03,VWS V13.01,2013-05-17 23:34:00,
2013-05-17 17:35:00,49.2,45.2,29.84,WSW,238,0.0,0.0,86,0.01,,---,0.03,VWS V13.01,2013-05-17 23:35:00,
2013-05-17 17:36:00,49.2,45.2,29.84,WSW,238,0.0,0.0,86,0.01,,---,0.03,VWS V13.01,2013-05-17 23:36:00,
2013-05-17 17:37:00,49.2,45.2,29.84,WSW,238,0.0,0.0,86,0.01,,---,0.03,VWS V13.01,2013-05-17 23:37:00,
2013-05-17 17:38:00,49.2,45.2,29.84,WSW,238,0.0,0.0,86,0.01,,---,0.03,VWS V13.01,2013-05-17 23:38:00,
2013-05-17 17:39:00,49.2,45.2,29.84,WSW,238,0.0,0.0,86,0.01,,---,0.03,VWS V13.01,2013-05-17 23:39:00,
2013-05-17 17:40:00,49.2,45.2,29.84,WSW,238,0.0,0.0,86,0.01,,---,0.03,VWS V13.01,2013-05-17 23:40:00,
2013-05-17 17:41:00,49.1,45.1,29.84,WSW,238,0.0,0.0,86,0.01,,---,0.03,VWS V13.01,2013-05-17 23:41:00,
2013-05-17 17:42:00,49.1,45.1,29.84,WSW,238,0.0,0.0,86,0.01,,---,0.03,VWS V13.01,2013-05-17 23:42:00,
2013-05-17 17:43:00,49.1,45.1,29.84,WSW,238,0.0,0.0,86,0.01,,---,0.03,VWS V13.01,2013-05-17 23:43:00,
2013-05-17 17:44:00,49.1,45.1,29.84,WSW,238,0.0,0.0,86,0.01,,---,0.03,VWS V13.01,2013-05-17 23:44:00,
2013-05-17 17:45:00,49.1,45.1,29.84,WSW,238,0.0,0.0,86,0.01,,---,0.03,VWS V13.01,2013-05-17 23:45:00,
2013-05-17 17:46:00,49.1,45.1,29.84,WSW,238,0.0,0.0,86,0.00,,---,0.03,VWS V13.01,2013-05-17 23:46:00,
2013-05-17 17:47:00,49.1,45.1,29.84,WSW,238,0.0,0.0,86,0.00,,---,0.03,VWS V13.01,2013-05-17 23:47:00,
2013-05-17 17:48:00,49.1,45.1,29.84,WSW,238,0.0,0.0,86,0.00,,---,0.03,VWS V13.01,2013-05-17 23:48:00,
2013-05-17 17:49:00,49.1,45.1,29.84,WSW,238,0.0,0.0,86,0.00,,---,0.03,VWS V13.01,2013-05-17 23:49:00,
2013-05-17 17:50:00,49.1,45.4,29.84,WSW,238,0.0,1.0,87,0.00,,---,0.03,VWS V13.01,2013-05-17 23:50:00,
2013-05-17 17:51:00,49.1,45.4,29.84,WSW,237,0.0,0.0,87,0.00,,---,0.03,VWS V13.01,2013-05-17 23:51:00,
2013-05-17 17:52:00,49.1,45.1,29.84,WSW,237,0.0,0.0,86,0.00,,---,0.03,VWS V13.01,2013-05-17 23:52:00,
2013-05-17 17:53:00,49.1,45.1,29.84,WSW,237,0.0,0.0,86,0.00,,---,0.03,VWS V13.01,2013-05-17 23:53:00,
2013-05-17 17:54:00,49.1,45.1,29.84,WSW,237,0.0,0.0,86,0.00,,---,0.03,VWS V13.01,2013-05-17 23:54:00,
2013-05-17 17:55:00,49.1,44.8,29.84,WSW,237,0.0,0.0,85,0.00,,---,0.03,VWS V13.01,2013-05-17 23:55:00,
2013-05-17 17:56:00,48.9,44.6,29.84,WSW,237,0.0,0.0,85,0.00,,---,0.03,VWS V13.01,2013-05-17 23:56:00,
2013-05-17 17:57:00,48.9,44.6,29.84,WSW,237,0.0,0.0,85,0.00,,---,0.03,VWS V13.01,2013-05-17 23:57:00,
2013-05-17 17:58:00,48.9,44.6,29.84,WSW,237,0.0,0.0,85,0.00,,---,0.03,VWS V13.01,2013-05-17 23:58:00,
2013-05-17 17:59:00,48.9,44.6,29.84,WSW,237,0.0,0.0,85,0.00,,---,0.03,VWS V13.01,2013-05-17 23:59:00,
2013-05-17 18:00:00,48.9,44.6,29.84,WSW,237,0.0,0.0,85,0.00,,---,0.03,VWS V13.01,2013-05-18 00:00:00,
2013-05-17 18:01:00,48.9,44.6,29.84,WSW,237,0.0,0.0,85,0.00,,---,0.03,VWS V13.01,2013-05-18 00:01:00,
2013-05-17 18:02:00,48.8,44.5,29.84,WSW,237,0.0,0.0,85,0.00,,---,0.03,VWS V13.01,2013-05-18 00:02:00,
2013-05-17 18:03:00,48.8,44.5,29.84,WSW,237,0.0,0.0,85,0.00,,---,0.03,VWS V13.01,2013-05-18 00:03:00,
2013-05-17 18:04:00,48.8,44.5,29.84,WSW,237,0.0,0.0,85,0.00,,---,0.03,VWS V13.01,2013-05-18 00:04:00,
2013-05-17 18:05:00,48.8,44.5,29.84,WSW,237,0.0,0.0,85,0.00,,---,0.03,VWS V13.01,2013-05-18 00:05:00,
2013-05-17 18:06:00,48.8,44.5,29.84,WSW,237,0.0,0.0,85,0.00,,---,0.03,VWS V13.01,2013-05-18 00:06:00,
2013-05-17 18:07:00,48.8,44.5,29.84,WSW,237,0.0,0.0,85,0.00,,---,0.03,VWS V13.01,2013-05-18 00:07:00,
2013-05-17 18:08:00,48.8,44.5,29.84,WSW,237,0.0,0.0,85,0.00,,---,0.03,VWS V13.01,2013-05-18 00:08:00,
2013-05-17 18:09:00,48.8,44.5,29.84,WSW,237,0.0,0.0,85,0.00,,---,0.03,VWS V13.01,2013-05-18 00:09:00,
2013-05-17 18:10:00,48.6,44.3,29.84,WSW,237,0.0,0.0,85,0.00,,---,0.03,VWS V13.01,2013-05-18 00:10:00,
2013-05-17 18:11:00,48.6,44.6,29.84,WSW,237,0.0,0.0,86,0.00,,---,0.03,VWS V13.01,2013-05-18 00:11:00,
2013-05-17 18:12:00,48.6,44.6,29.84,WSW,237,0.0,0.0,86,0.00,,---,0.03,VWS V13.01,2013-05-18 00:12:00,
2013-05-17 18:13:00,48.6,44.6,29.84,WSW,237,0.0,0.0,86,0.00,,---,0.03,VWS V13.01,2013-05-18 00:13:00,
2013-05-17 18:14:00,48.6,44.6,29.84,WSW,237,0.0,0.0,86,0.00,,---,0.03,VWS V13.01,2013-05-18 00:14:00,
2013-05-17 18:15:00,48.6,44.6,29.84,WSW,237,0.0,0.0,86,0.00,,---,0.03,VWS V13.01,2013-05-18 00:15:00,
2013-05-17 18:16:00,48.6,44.6,29.84,WSW,237,0.0,0.0,86,0.00,,---,0.03,VWS V13.01,2013-05-18 00:16:00,
2013-05-17 18:17:00,48.6,44.6,29.84,WSW,237,0.0,0.0,86,0.00,,---,0.04,VWS V13.01,2013-05-18 00:17:00,
2013-05-17 18:18:00,48.6,44.6,29.84,WSW,237,0.0,0.0,86,0.01,,---,0.04,VWS V13.01,2013-05-18 00:18:00,
2013-05-17 18:19:00,48.6,44.9,29.84,WSW,237,0.0,0.0,87,0.01,,---,0.04,VWS V13.01,2013-05-18 00:19:00,
2013-05-17 18:20:00,48.6,44.9,29.84,WSW,237,0.0,0.0,87,0.01,,---,0.04,VWS V13.01,2013-05-18 00:20:00,
2013-05-17 18:21:00,48.6,44.9,29.84,WSW,237,0.0,0.0,87,0.01,,---,0.04,VWS V13.01,2013-05-18 00:21:00,
2013-05-17 18:22:00,48.6,44.9,29.84,WSW,237,0.0,0.0,87,0.01,,---,0.04,VWS V13.01,2013-05-18 00:22:00,
2013-05-17 18:23:00,48.6,44.9,29.84,WSW,237,0.0,0.0,87,0.01,,---,0.04,VWS V13.01,2013-05-18 00:23:00,
2013-05-17 18:24:00,48.6,44.9,29.84,WSW,237,0.0,0.0,87,0.01,,---,0.04,VWS V13.01,2013-05-18 00:24:00,
2013-05-17 18:25:00,48.6,44.9,29.84,WSW,237,0.0,0.0,87,0.01,,---,0.04,VWS V13.01,2013-05-18 00:25:00,
2013-05-17 18:26:00,48.6,45.2,29.84,WSW,237,0.0,0.0,88,0.01,,---,0.04,VWS V13.01,2013-05-18 00:26:00,
2013-05-17 18:27:00,48.6,45.2,29.84,WSW,237,0.0,0.0,88,0.01,,---,0.04,VWS V13.01,2013-05-18 00:27:00,
2013-05-17 18:28:00,48.6,45.2,29.84,WSW,237,0.0,0.0,88,0.01,,---,0.04,VWS V13.01,2013-05-18 00:28:00,
2013-05-17 18:29:00,48.6,45.2,29.84,WSW,237,0.0,0.0,88,0.01,,---,0.04,VWS V13.01,2013-05-18 00:29:00,
2013-05-17 18:30:00,48.5,45.1,29.84,WSW,237,0.0,0.0,88,0.01,,---,0.04,VWS V13.01,2013-05-18 00:30:00,
2013-05-17 18:31:00,48.5,45.1,29.84,WSW,237,0.0,0.0,88,0.01,,---,0.04,VWS V13.01,2013-05-18 00:31:00,
2013-05-17 18:32:00,48.5,45.1,29.84,WSW,237,0.0,0.0,88,0.01,,---,0.04,VWS V13.01,2013-05-18 00:32:00,
2013-05-17 18:33:00,48.5,45.1,29.84,WSW,237,0.0,0.0,88,0.01,,---,0.04,VWS V13.01,2013-05-18 00:33:00,
2013-05-17 18:34:00,48.5,45.1,29.84,WSW,237,0.0,0.0,88,0.01,,---,0.04,VWS V13.01,2013-05-18 00:34:00,
2013-05-17 18:35:00,48.5,45.1,29.84,WSW,237,0.0,0.0,88,0.01,,---,0.04,VWS V13.01,2013-05-18 00:35:00,
2013-05-17 18:36:00,48.5,45.1,29.84,WSW,237,0.0,0.0,88,0.01,,---,0.04,VWS V13.01,2013-05-18 00:36:00,
2013-05-17 18:37:00,48.5,45.1,29.84,WSW,237,0.0,0.0,88,0.01,,---,0.04,VWS V13.01,2013-05-18 00:37:00,
2013-05-17 18:38:00,48.5,45.1,29.84,WSW,237,0.0,0.0,88,0.01,,---,0.04,VWS V13.01,2013-05-18 00:38:00,
2013-05-17 18:39:00,48.5,45.1,29.84,WSW,237,0.0,0.0,88,0.01,,---,0.04,VWS V13.01,2013-05-18 00:39:00,
2013-05-17 18:40:00,48.5,45.1,29.84,WSW,237,0.0,0.0,88,0.01,,---,0.04,VWS V13.01,2013-05-18 00:40:00,
2013-05-17 18:41:00,48.5,45.1,29.84,WSW,237,0.0,0.0,88,0.01,,---,0.04,VWS V13.01,2013-05-18 00:41:00,
2013-05-17 18:42:00,48.5,45.1,29.84,WSW,237,0.0,0.0,88,0.01,,---,0.04,VWS V13.01,2013-05-18 00:42:00,
2013-05-17 18:43:00,48.3,44.9,29.84,WSW,237,0.0,0.0,88,0.01,,---,0.04,VWS V13.01,2013-05-18 00:43:00,
2013-05-17 18:44:00,48.3,44.9,29.84,WSW,237,0.0,0.0,88,0.01,,---,0.04,VWS V13.01,2013-05-18 00:44:00,
2013-05-17 18:45:00,48.3,44.9,29.84,WSW,237,0.0,0.0,88,0.01,,---,0.04,VWS V13.01,2013-05-18 00:45:00,
2013-05-17 18:46:00,48.3,44.9,29.84,WSW,237,0.0,0.0,88,0.01,,---,0.04,VWS V13.01,2013-05-18 00:46:00,
2013-05-17 18:47:00,48.3,44.9,29.84,WSW,237,0.0,0.0,88,0.01,,---,0.04,VWS V13.01,2013-05-18 00:47:00,
2013-05-17 18:48:00,48.3,44.9,29.84,WSW,237,0.0,0.0,88,0.01,,---,0.04,VWS V13.01,2013-05-18 00:48:00,
2013-05-17 18:49:00,48.3,44.9,29.84,WSW,237,0.0,0.0,88,0.01,,---,0.04,VWS V13.01,2013-05-18 00:49:00,
2013-05-17 18:50:00,48.3,44.9,29.84,WSW,237,0.0,0.0,88,0.01,,---,0.04,VWS V13.01,2013-05-18 00:50:00,
2013-05-17 18:51:00,48.2,45.1,29.84,WSW,237,0.0,0.0,89,0.01,,---,0.04,VWS V13.01,2013-05-18 00:51:00,
2013-05-17 18:52:00,48.2,45.1,29.84,WSW,237,0.0,0.0,89,0.01,,---,0.05,VWS V13.01,2013-05-18 00:52:00,
2013-05-17 18:53:00,48.2,45.1,29.84,WSW,237,0.0,0.0,89,0.02,,---,0.05,VWS V13.01,2013-05-18 00:53:00,
2013-05-17 18:54:00,48.2,45.1,29.84,WSW,237,0.0,0.0,89,0.02,,---,0.05,VWS V13.01,2013-05-18 00:54:00,
2013-05-17 18:55:00,48.2,45.1,29.84,WSW,237,0.0,0.0,89,0.02,,---,0.05,VWS V13.01,2013-05-18 00:55:00,
2013-05-17 18:56:00,48.2,45.1,29.84,WSW,237,0.0,0.0,89,0.02,,---,0.05,VWS V13.01,2013-05-18 00:56:00,
2013-05-17 18:57:00,48.2,45.1,29.84,WSW,237,0.0,0.0,89,0.02,,---,0.05,VWS V13.01,2013-05-18 00:57:00,
2013-05-17 18:58:00,48.2,45.1,29.84,WSW,237,0.0,0.0,89,0.02,,---,0.05,VWS V13.01,2013-05-18 00:58:00,
2013-05-17 18:59:00,48.2,45.1,29.85,WSW,237,0.0,0.0,89,0.02,,---,0.05,VWS V13.01,2013-05-18 00:59:00,
2013-05-17 19:00:00,48.2,45.1,29.85,WSW,237,0.0,0.0,89,0.02,,---,0.05,VWS V13.01,2013-05-18 01:00:00,
2013-05-17 19:01:00,48.2,45.1,29.85,WSW,237,0.0,0.0,89,0.02,,---,0.05,VWS V13.01,2013-05-18 01:01:00,
2013-05-17 19:02:00,48.2,45.1,29.85,WSW,237,0.0,0.0,89,0.02,,---,0.05,VWS V13.01,2013-05-18 01:02:00,
2013-05-17 19:03:00,48.2,45.1,29.85,WSW,237,0.0,0.0,89,0.02,,---,0.05,VWS V13.01,2013-05-18 01:03:00,
2013-05-17 19:04:00,48.2,45.1,29.85,WSW,237,0.0,0.0,89,0.02,,---,0.05,VWS V13.01,2013-05-18 01:04:00,
2013-05-17 19:05:00,48.2,45.1,29.85,WSW,237,0.0,0.0,89,0.02,,---,0.05,VWS V13.01,2013-05-18 01:05:00,
2013-05-17 19:06:00,48.2,45.1,29.85,WSW,237,0.0,0.0,89,0.02,,---,0.05,VWS V13.01,2013-05-18 01:06:00,
2013-05-17 19:07:00,48.2,45.1,29.85,WSW,237,0.0,0.0,89,0.02,,---,0.05,VWS V13.01,2013-05-18 01:07:00,
2013-05-17 19:08:00,48.2,45.1,29.85,WSW,237,0.0,0.0,89,0.02,,---,0.05,VWS V13.01,2013-05-18 01:08:00,
2013-05-17 19:09:00,48.2,45.1,29.85,WSW,237,0.0,0.0,89,0.02,,---,0.05,VWS V13.01,2013-05-18 01:09:00,
2013-05-17 19:10:00,48.2,45.1,29.85,WSW,237,0.0,0.0,89,0.02,,---,0.05,VWS V13.01,2013-05-18 01:10:00,
2013-05-17 19:11:00,48.2,45.1,29.85,WSW,237,0.0,0.0,89,0.02,,---,0.05,VWS V13.01,2013-05-18 01:11:00,
2013-05-17 19:12:00,48.2,45.1,29.85,WSW,237,0.0,0.0,89,0.02,,---,0.05,VWS V13.01,2013-05-18 01:12:00,
2013-05-17 19:13:00,48.2,45.1,29.85,WSW,237,0.0,0.0,89,0.02,,---,0.05,VWS V13.01,2013-05-18 01:13:00,
2013-05-17 19:14:00,48.2,45.1,29.83,WSW,237,0.0,0.0,89,0.02,,---,0.05,VWS V13.01,2013-05-18 01:14:00,
2013-05-17 19:15:00,48.2,45.1,29.83,WSW,237,0.0,0.0,89,0.02,,---,0.05,VWS V13.01,2013-05-18 01:15:00,
2013-05-17 19:16:00,48.2,45.1,29.83,WSW,237,0.0,0.0,89,0.02,,---,0.05,VWS V13.01,2013-05-18 01:16:00,
2013-05-17 19:17:00,48.2,45.1,29.83,WSW,237,0.0,0.0,89,0.02,,---,0.05,VWS V13.01,2013-05-18 01:17:00,
2013-05-17 19:18:00,48.0,44.9,29.83,WSW,237,0.0,0.0,89,0.02,,---,0.05,VWS V13.01,2013-05-18 01:18:00,
2013-05-17 19:20:00,48.0,44.9,29.83,WSW,237,0.0,0.0,89,0.02,,---,0.05,VWS V13.01,2013-05-18 01:20:00,
2013-05-17 19:21:00,48.0,44.9,29.83,WSW,237,0.0,0.0,89,0.01,,---,0.05,VWS V13.01,2013-05-18 01:21:00,
2013-05-17 19:22:00,48.0,44.9,29.83,WSW,237,0.0,0.0,89,0.01,,---,0.05,VWS V13.01,2013-05-18 01:22:00,
2013-05-17 19:23:00,48.0,44.9,29.83,WSW,237,0.0,0.0,89,0.01,,---,0.05,VWS V13.01,2013-05-18 01:23:00,
2013-05-17 19:24:00,48.0,44.9,29.83,WSW,237,0.0,0.0,89,0.01,,---,0.05,VWS V13.01,2013-05-18 01:24:00,
2013-05-17 19:25:00,48.0,44.9,29.83,WSW,237,0.0,0.0,89,0.01,,---,0.05,VWS V13.01,2013-05-18 01:25:00,
2013-05-17 19:26:00,47.9,44.8,29.83,WSW,237,0.0,0.0,89,0.01,,---,0.05,VWS V13.01,2013-05-18 01:26:00,
2013-05-17 19:27:00,47.9,44.8,29.83,WSW,237,0.0,0.0,89,0.01,,---,0.05,VWS V13.01,2013-05-18 01:27:00,
2013-05-17 19:28:00,47.9,44.8,29.83,WSW,237,0.0,0.0,89,0.01,,---,0.05,VWS V13.01,2013-05-18 01:28:00,
2013-05-17 19:29:00,47.9,44.8,29.83,WSW,237,0.0,0.0,89,0.01,,---,0.05,VWS V13.01,2013-05-18 01:29:00,
2013-05-17 19:30:00,47.9,44.8,29.83,WSW,237,0.0,0.0,89,0.01,,---,0.05,VWS V13.01,2013-05-18 01:30:00,
2013-05-17 19:31:00,47.9,45.1,29.83,WSW,237,0.0,0.0,90,0.01,,---,0.05,VWS V13.01,2013-05-18 01:31:00,
2013-05-17 19:32:00,47.9,45.1,29.83,WSW,237,0.0,0.0,90,0.01,,---,0.05,VWS V13.01,2013-05-18 01:32:00,
2013-05-17 19:33:00,47.9,45.1,29.83,WSW,237,0.0,0.0,90,0.01,,---,0.05,VWS V13.01,2013-05-18 01:33:00,
2013-05-17 19:34:00,47.9,45.1,29.83,WSW,237,0.0,0.0,90,0.01,,---,0.05,VWS V13.01,2013-05-18 01:34:00,
2013-05-17 19:35:00,47.9,45.1,29.83,WSW,237,0.0,0.0,90,0.01,,---,0.05,VWS V13.01,2013-05-18 01:35:00,
2013-05-17 19:36:00,47.9,45.1,29.83,WSW,237,0.0,0.0,90,0.01,,---,0.05,VWS V13.01,2013-05-18 01:36:00,
2013-05-17 19:37:00,47.7,44.9,29.83,WSW,237,0.0,0.0,90,0.01,,---,0.05,VWS V13.01,2013-05-18 01:37:00,
2013-05-17 19:38:00,47.7,44.9,29.83,WSW,237,0.0,0.0,90,0.01,,---,0.05,VWS V13.01,2013-05-18 01:38:00,
2013-05-17 19:39:00,47.7,44.9,29.83,WSW,237,0.0,0.0,90,0.01,,---,0.05,VWS V13.01,2013-05-18 01:39:00,
2013-05-17 19:40:00,47.7,44.9,29.83,WSW,237,0.0,0.0,90,0.01,,---,0.05,VWS V13.01,2013-05-18 01:40:00,
2013-05-17 19:41:00,47.7,44.9,29.83,WSW,237,0.0,0.0,90,0.01,,---,0.05,VWS V13.01,2013-05-18 01:41:00,
2013-05-17 19:42:00,47.7,44.9,29.83,WSW,237,0.0,0.0,90,0.01,,---,0.05,VWS V13.01,2013-05-18 01:42:00,
2013-05-17 19:43:00,47.7,44.9,29.83,WSW,237,0.0,0.0,90,0.01,,---,0.05,VWS V13.01,2013-05-18 01:43:00,
2013-05-17 19:44:00,47.7,44.9,29.83,WSW,237,0.0,0.0,90,0.01,,---,0.05,VWS V13.01,2013-05-18 01:44:00,
2013-05-17 19:45:00,47.7,44.9,29.83,WSW,237,0.0,0.0,90,0.01,,---,0.05,VWS V13.01,2013-05-18 01:45:00,
2013-05-17 19:46:00,47.6,44.8,29.83,WSW,237,0.0,0.0,90,0.01,,---,0.05,VWS V13.01,2013-05-18 01:46:00,
2013-05-17 19:47:00,47.6,44.8,29.83,WSW,237,0.0,0.0,90,0.01,,---,0.05,VWS V13.01,2013-05-18 01:47:00,
2013-05-17 19:48:00,47.6,44.8,29.83,WSW,237,0.0,0.0,90,0.01,,---,0.05,VWS V13.01,2013-05-18 01:48:00,
2013-05-17 19:49:00,47.6,44.8,29.83,WSW,237,0.0,0.0,90,0.01,,---,0.05,VWS V13.01,2013-05-18 01:49:00,
2013-05-17 19:50:00,47.6,44.8,29.83,WSW,237,0.0,0.0,90,0.01,,---,0.05,VWS V13.01,2013-05-18 01:50:00,
2013-05-17 19:51:00,47.6,44.8,29.83,WSW,237,0.0,0.0,90,0.01,,---,0.05,VWS V13.01,2013-05-18 01:51:00,
2013-05-17 19:52:00,47.6,44.8,29.83,WSW,237,0.0,0.0,90,0.01,,---,0.05,VWS V13.01,2013-05-18 01:52:00,
2013-05-17 19:53:00,47.4,44.6,29.83,WSW,237,0.0,0.0,90,0.01,,---,0.05,VWS V13.01,2013-05-18 01:53:00,
2013-05-17 19:54:00,47.4,44.6,29.83,WSW,237,0.0,0.0,90,0.01,,---,0.05,VWS V13.01,2013-05-18 01:54:00,
2013-05-17 19:55:00,47.4,44.6,29.83,WSW,237,0.0,0.0,90,0.01,,---,0.05,VWS V13.01,2013-05-18 01:55:00,
2013-05-17 19:56:00,47.4,44.6,29.83,WSW,237,0.0,0.0,90,0.00,,---,0.05,VWS V13.01,2013-05-18 01:56:00,
2013-05-17 19:57:00,47.4,44.6,29.83,WSW,237,0.0,0.0,90,0.00,,---,0.05,VWS V13.01,2013-05-18 01:57:00,
2013-05-17 19:58:00,47.4,44.6,29.83,WSW,237,0.0,0.0,90,0.00,,---,0.05,VWS V13.01,2013-05-18 01:58:00,
2013-05-17 19:59:00,47.4,44.6,29.85,WSW,237,0.0,0.0,90,0.00,,---,0.05,VWS V13.01,2013-05-18 01:59:00,
2013-05-17 20:00:00,47.3,44.5,29.85,WSW,237,0.0,0.0,90,0.00,,---,0.05,VWS V13.01,2013-05-18 02:00:00,
2013-05-17 20:01:00,47.3,44.5,29.85,WSW,237,0.0,0.0,90,0.00,,---,0.05,VWS V13.01,2013-05-18 02:01:00,
2013-05-17 20:02:00,47.3,44.5,29.85,WSW,237,0.0,0.0,90,0.00,,---,0.05,VWS V13.01,2013-05-18 02:02:00,
2013-05-17 20:03:00,47.3,44.5,29.85,WSW,237,0.0,0.0,90,0.00,,---,0.05,VWS V13.01,2013-05-18 02:03:00,
2013-05-17 20:04:00,47.3,44.5,29.85,WSW,237,0.0,0.0,90,0.00,,---,0.05,VWS V13.01,2013-05-18 02:04:00,
2013-05-17 20:05:00,47.3,44.5,29.85,WSW,237,0.0,0.0,90,0.00,,---,0.05,VWS V13.01,2013-05-18 02:05:00,
2013-05-17 20:06:00,47.3,44.5,29.85,WSW,237,0.0,0.0,90,0.00,,---,0.05,VWS V13.01,2013-05-18 02:06:00,
2013-05-17 20:07:00,47.1,44.3,29.85,WSW,237,0.0,0.0,90,0.00,,---,0.05,VWS V13.01,2013-05-18 02:07:00,
2013-05-17 20:08:00,47.1,44.3,29.85,WSW,237,0.0,0.0,90,0.00,,---,0.05,VWS V13.01,2013-05-18 02:08:00,
2013-05-17 20:09:00,47.1,44.3,29.85,WSW,237,0.0,0.0,90,0.00,,---,0.05,VWS V13.01,2013-05-18 02:09:00,
2013-05-17 20:10:00,47.1,44.3,29.85,WSW,237,0.0,0.0,90,0.00,,---,0.05,VWS V13.01,2013-05-18 02:10:00,
2013-05-17 20:11:00,47.1,44.3,29.85,WSW,237,0.0,0.0,90,0.00,,---,0.05,VWS V13.01,2013-05-18 02:11:00,
2013-05-17 20:12:00,47.1,44.3,29.85,WSW,237,0.0,0.0,90,0.00,,---,0.05,VWS V13.01,2013-05-18 02:12:00,
2013-05-17 20:13:00,47.1,44.3,29.85,WSW,237,0.0,0.0,90,0.00,,---,0.05,VWS V13.01,2013-05-18 02:13:00,
2013-05-17 20:14:00,47.1,44.3,29.86,WSW,237,0.0,0.0,90,0.00,,---,0.05,VWS V13.01,2013-05-18 02:14:00,
2013-05-17 20:15:00,47.0,44.2,29.86,WSW,237,0.0,0.0,90,0.00,,---,0.05,VWS V13.01,2013-05-18 02:15:00,
2013-05-17 20:16:00,47.0,44.2,29.86,WSW,237,0.0,0.0,90,0.00,,---,0.05,VWS V13.01,2013-05-18 02:16:00,
2013-05-17 20:17:00,47.0,44.2,29.86,WSW,237,0.0,0.0,90,0.00,,---,0.05,VWS V13.01,2013-05-18 02:17:00,
2013-05-17 20:18:00,47.0,44.2,29.86,WSW,237,0.0,0.0,90,0.00,,---,0.05,VWS V13.01,2013-05-18 02:18:00,
2013-05-17 20:19:00,47.0,44.2,29.86,WSW,237,0.0,0.0,90,0.00,,---,0.05,VWS V13.01,2013-05-18 02:19:00,
2013-05-17 20:20:00,47.0,44.2,29.86,WSW,237,0.0,0.0,90,0.00,,---,0.05,VWS V13.01,2013-05-18 02:20:00,
2013-05-17 20:21:00,47.0,44.2,29.86,WSW,237,0.0,0.0,90,0.00,,---,0.05,VWS V13.01,2013-05-18 02:21:00,
2013-05-17 20:22:00,47.0,44.2,29.86,WSW,237,0.0,0.0,90,0.00,,---,0.05,VWS V13.01,2013-05-18 02:22:00,
2013-05-17 20:23:00,46.8,44.0,29.86,WSW,237,0.0,0.0,90,0.00,,---,0.05,VWS V13.01,2013-05-18 02:23:00,
2013-05-17 20:24:00,46.8,44.0,29.86,WSW,237,0.0,0.0,90,0.00,,---,0.05,VWS V13.01,2013-05-18 02:24:00,
2013-05-17 20:25:00,46.8,44.0,29.86,WSW,237,0.0,0.0,90,0.00,,---,0.05,VWS V13.01,2013-05-18 02:25:00,
2013-05-17 20:26:00,46.8,44.0,29.86,WSW,237,0.0,0.0,90,0.00,,---,0.05,VWS V13.01,2013-05-18 02:26:00,
2013-05-17 20:27:00,46.7,43.9,29.86,WSW,237,0.0,0.0,90,0.00,,---,0.05,VWS V13.01,2013-05-18 02:27:00,
2013-05-17 20:28:00,46.7,43.9,29.86,WSW,237,0.0,0.0,90,0.00,,---,0.05,VWS V13.01,2013-05-18 02:28:00,
2013-05-17 20:29:00,46.7,43.9,29.86,WSW,237,0.0,0.0,90,0.00,,---,0.05,VWS V13.01,2013-05-18 02:29:00,
2013-05-17 20:30:00,46.7,43.9,29.86,WSW,237,0.0,0.0,90,0.00,,---,0.05,VWS V13.01,2013-05-18 02:30:00,
2013-05-17 20:31:00,46.7,43.9,29.86,WSW,237,0.0,0.0,90,0.00,,---,0.05,VWS V13.01,2013-05-18 02:31:00,
2013-05-17 20:32:00,46.7,43.9,29.86,WSW,237,0.0,0.0,90,0.00,,---,0.05,VWS V13.01,2013-05-18 02:32:00,
2013-05-17 20:33:00,46.7,43.9,29.86,WSW,237,0.0,0.0,90,0.00,,---,0.05,VWS V13.01,2013-05-18 02:33:00,
2013-05-17 20:34:00,46.5,43.7,29.86,WSW,237,0.0,0.0,90,0.00,,---,0.05,VWS V13.01,2013-05-18 02:34:00,
2013-05-17 20:35:00,46.5,43.4,29.86,WSW,237,0.0,0.0,89,0.00,,---,0.05,VWS V13.01,2013-05-18 02:35:00,
2013-05-17 20:36:00,46.5,43.7,29.86,WSW,237,0.0,0.0,90,0.00,,---,0.05,VWS V13.01,2013-05-18 02:36:00,
2013-05-17 20:37:00,46.5,43.7,29.86,WSW,237,0.0,0.0,90,0.00,,---,0.05,VWS V13.01,2013-05-18 02:37:00,
2013-05-17 20:38:00,46.5,43.7,29.86,WSW,237,0.0,0.0,90,0.00,,---,0.05,VWS V13.01,2013-05-18 02:38:00,
2013-05-17 20:39:00,46.5,43.7,29.86,WSW,237,0.0,0.0,90,0.00,,---,0.05,VWS V13.01,2013-05-18 02:39:00,
2013-05-17 20:40:00,46.5,43.7,29.86,WSW,237,0.0,0.0,90,0.00,,---,0.05,VWS V13.01,2013-05-18 02:40:00,
2013-05-17 20:41:00,46.5,43.7,29.86,WSW,237,0.0,0.0,90,0.00,,---,0.05,VWS V13.01,2013-05-18 02:41:00,
2013-05-17 20:42:00,46.5,43.7,29.86,WSW,237,0.0,0.0,90,0.00,,---,0.05,VWS V13.01,2013-05-18 02:42:00,
2013-05-17 20:43:00,46.4,43.6,29.86,WSW,237,0.0,0.0,90,0.00,,---,0.05,VWS V13.01,2013-05-18 02:43:00,
2013-05-17 20:44:00,46.4,43.6,29.86,WSW,237,0.0,0.0,90,0.00,,---,0.05,VWS V13.01,2013-05-18 02:44:00,
2013-05-17 20:45:00,46.4,43.6,29.86,WSW,237,0.0,0.0,90,0.00,,---,0.05,VWS V13.01,2013-05-18 02:45:00,
2013-05-17 20:46:00,46.4,43.6,29.86,WSW,237,0.0,0.0,90,0.00,,---,0.05,VWS V13.01,2013-05-18 02:46:00,
2013-05-17 20:47:00,46.4,43.6,29.86,WSW,237,0.0,0.0,90,0.00,,---,0.05,VWS V13.01,2013-05-18 02:47:00,
2013-05-17 20:48:00,46.4,43.6,29.86,WSW,237,0.0,0.0,90,0.00,,---,0.05,VWS V13.01,2013-05-18 02:48:00,
2013-05-17 20:49:00,46.4,43.6,29.86,WSW,237,0.0,0.0,90,0.00,,---,0.05,VWS V13.01,2013-05-18 02:49:00,
2013-05-17 20:50:00,46.4,43.6,29.86,WSW,237,0.0,0.0,90,0.00,,---,0.05,VWS V13.01,2013-05-18 02:50:00,
2013-05-17 20:51:00,46.4,43.6,29.86,WSW,237,0.0,0.0,90,0.00,,---,0.05,VWS V13.01,2013-05-18 02:51:00,
2013-05-17 20:52:00,46.4,43.6,29.86,WSW,237,0.0,0.0,90,0.00,,---,0.05,VWS V13.01,2013-05-18 02:52:00,
2013-05-17 20:53:00,46.2,43.4,29.86,WSW,237,0.0,0.0,90,0.00,,---,0.05,VWS V13.01,2013-05-18 02:53:00,
2013-05-17 20:54:00,46.2,43.4,29.86,WSW,237,0.0,0.0,90,0.00,,---,0.05,VWS V13.01,2013-05-18 02:54:00,
2013-05-17 20:55:00,46.2,43.4,29.86,WSW,237,0.0,0.0,90,0.00,,---,0.05,VWS V13.01,2013-05-18 02:55:00,
2013-05-17 20:56:00,46.2,43.4,29.86,WSW,237,0.0,0.0,90,0.00,,---,0.05,VWS V13.01,2013-05-18 02:56:00,
2013-05-17 20:57:00,46.2,43.4,29.86,WSW,237,0.0,0.0,90,0.00,,---,0.05,VWS V13.01,2013-05-18 02:57:00,
2013-05-17 20:58:00,46.2,43.4,29.86,WSW,237,0.0,0.0,90,0.00,,---,0.05,VWS V13.01,2013-05-18 02:58:00,
2013-05-17 20:59:00,46.2,43.4,29.86,WSW,237,0.0,0.0,90,0.00,,---,0.05,VWS V13.01,2013-05-18 02:59:00,
2013-05-17 21:00:00,46.2,43.4,29.86,WSW,237,0.0,0.0,90,0.00,,---,0.05,VWS V13.01,2013-05-18 03:00:00,
2013-05-17 21:01:00,46.2,43.4,29.86,WSW,237,0.0,0.0,90,0.00,,---,0.05,VWS V13.01,2013-05-18 03:01:00,
2013-05-17 21:02:00,46.2,43.4,29.86,WSW,237,0.0,0.0,90,0.00,,---,0.05,VWS V13.01,2013-05-18 03:02:00,
2013-05-17 21:03:00,46.2,43.4,29.86,WSW,237,0.0,0.0,90,0.00,,---,0.05,VWS V13.01,2013-05-18 03:03:00,
2013-05-17 21:04:00,46.1,43.3,29.86,WSW,237,0.0,0.0,90,0.00,,---,0.05,VWS V13.01,2013-05-18 03:04:00,
2013-05-17 21:05:00,46.1,43.3,29.86,WSW,237,0.0,0.0,90,0.00,,---,0.05,VWS V13.01,2013-05-18 03:05:00,
2013-05-17 21:06:00,46.1,43.3,29.86,WSW,237,0.0,0.0,90,0.00,,---,0.05,VWS V13.01,2013-05-18 03:06:00,
2013-05-17 21:07:00,46.1,43.3,29.86,WSW,237,0.0,0.0,90,0.00,,---,0.05,VWS V13.01,2013-05-18 03:07:00,
2013-05-17 21:08:00,46.1,43.3,29.86,WSW,237,0.0,0.0,90,0.00,,---,0.05,VWS V13.01,2013-05-18 03:08:00,
2013-05-17 21:09:00,46.1,43.3,29.86,WSW,237,0.0,0.0,90,0.00,,---,0.05,VWS V13.01,2013-05-18 03:09:00,
2013-05-17 21:10:00,46.1,43.3,29.86,WSW,237,0.0,0.0,90,0.00,,---,0.05,VWS V13.01,2013-05-18 03:10:00,
2013-05-17 21:11:00,46.1,43.3,29.86,WSW,237,0.0,0.0,90,0.00,,---,0.05,VWS V13.01,2013-05-18 03:11:00,
2013-05-17 21:12:00,46.1,43.3,29.86,WSW,237,0.0,0.0,90,0.00,,---,0.05,VWS V13.01,2013-05-18 03:12:00,
2013-05-17 21:13:00,46.1,43.3,29.86,WSW,237,0.0,0.0,90,0.00,,---,0.05,VWS V13.01,2013-05-18 03:13:00,
2013-05-17 21:14:00,46.1,43.3,29.86,WSW,237,0.0,0.0,90,0.00,,---,0.05,VWS V13.01,2013-05-18 03:14:00,
2013-05-17 21:15:00,46.1,43.3,29.86,WSW,237,0.0,0.0,90,0.00,,---,0.05,VWS V13.01,2013-05-18 03:15:00,
2013-05-17 21:16:00,46.1,43.3,29.86,WSW,237,0.0,0.0,90,0.00,,---,0.05,VWS V13.01,2013-05-18 03:16:00,
2013-05-17 21:17:00,46.1,43.3,29.86,WSW,237,0.0,0.0,90,0.00,,---,0.05,VWS V13.01,2013-05-18 03:17:00,
2013-05-17 21:18:00,46.1,43.3,29.86,WSW,237,0.0,0.0,90,0.00,,---,0.05,VWS V13.01,2013-05-18 03:18:00,
2013-05-17 21:19:00,46.1,43.3,29.86,WSW,237,0.0,0.0,90,0.00,,---,0.05,VWS V13.01,2013-05-18 03:19:00,
2013-05-17 21:20:00,46.1,43.3,29.86,WSW,237,0.0,0.0,90,0.01,,---,0.06,VWS V13.01,2013-05-18 03:20:00,
2013-05-17 21:21:00,46.1,43.3,29.86,WSW,237,0.0,0.0,90,0.01,,---,0.06,VWS V13.01,2013-05-18 03:21:00,
2013-05-17 21:22:00,46.1,43.3,29.86,WSW,237,0.0,0.0,90,0.01,,---,0.06,VWS V13.01,2013-05-18 03:22:00,
2013-05-17 21:23:00,46.1,43.3,29.86,WSW,237,0.0,0.0,90,0.01,,---,0.06,VWS V13.01,2013-05-18 03:23:00,
2013-05-17 21:24:00,46.1,43.3,29.86,WSW,237,0.0,0.0,90,0.01,,---,0.06,VWS V13.01,2013-05-18 03:24:00,
2013-05-17 21:25:00,46.1,43.3,29.86,WSW,237,0.0,0.0,90,0.01,,---,0.06,VWS V13.01,2013-05-18 03:25:00,
2013-05-17 21:26:00,46.1,43.3,29.86,WSW,237,0.0,0.0,90,0.01,,---,0.06,VWS V13.01,2013-05-18 03:26:00,
2013-05-17 21:27:00,46.1,43.3,29.86,WSW,237,0.0,0.0,90,0.01,,---,0.06,VWS V13.01,2013-05-18 03:27:00,
2013-05-17 21:28:00,46.1,43.3,29.86,WSW,237,0.0,0.0,90,0.01,,---,0.06,VWS V13.01,2013-05-18 03:28:00,
2013-05-17 21:29:00,46.1,43.3,29.86,WSW,237,0.0,0.0,90,0.01,,---,0.06,VWS V13.01,2013-05-18 03:29:00,
2013-05-17 21:30:00,46.1,43.3,29.86,WSW,237,0.0,0.0,90,0.01,,---,0.06,VWS V13.01,2013-05-18 03:30:00,
2013-05-17 21:31:00,46.1,43.3,29.86,WSW,237,0.0,0.0,90,0.01,,---,0.06,VWS V13.01,2013-05-18 03:31:00,
2013-05-17 21:32:00,46.1,43.3,29.86,WSW,237,0.0,0.0,90,0.01,,---,0.06,VWS V13.01,2013-05-18 03:32:00,
2013-05-17 21:33:00,46.1,43.3,29.86,WSW,237,0.0,0.0,90,0.01,,---,0.06,VWS V13.01,2013-05-18 03:33:00,
2013-05-17 21:34:00,46.1,43.3,29.86,WSW,237,0.0,0.0,90,0.01,,---,0.06,VWS V13.01,2013-05-18 03:34:00,
2013-05-17 21:35:00,46.1,43.3,29.86,WSW,237,0.0,0.0,90,0.01,,---,0.06,VWS V13.01,2013-05-18 03:35:00,
2013-05-17 21:36:00,46.1,43.3,29.86,WSW,237,0.0,0.0,90,0.01,,---,0.06,VWS V13.01,2013-05-18 03:36:00,
2013-05-17 21:37:00,46.1,43.3,29.86,WSW,237,0.0,0.0,90,0.01,,---,0.06,VWS V13.01,2013-05-18 03:37:00,
2013-05-17 21:38:00,46.1,43.3,29.86,WSW,237,0.0,0.0,90,0.01,,---,0.06,VWS V13.01,2013-05-18 03:38:00,
2013-05-17 21:39:00,46.1,43.3,29.86,WSW,237,0.0,0.0,90,0.01,,---,0.06,VWS V13.01,2013-05-18 03:39:00,
2013-05-17 21:40:00,46.1,43.3,29.86,WSW,237,0.0,0.0,90,0.01,,---,0.06,VWS V13.01,2013-05-18 03:40:00,
2013-05-17 21:41:00,46.1,43.3,29.86,WSW,237,0.0,0.0,90,0.01,,---,0.06,VWS V13.01,2013-05-18 03:41:00,
2013-05-17 21:42:00,46.1,43.3,29.86,WSW,237,0.0,0.0,90,0.01,,---,0.06,VWS V13.01,2013-05-18 03:42:00,
2013-05-17 21:43:00,46.1,43.3,29.86,WSW,237,0.0,0.0,90,0.01,,---,0.06,VWS V13.01,2013-05-18 03:43:00,
2013-05-17 21:44:00,46.1,43.3,29.86,WSW,237,0.0,0.0,90,0.01,,---,0.06,VWS V13.01,2013-05-18 03:44:00,
2013-05-17 21:45:00,46.1,43.3,29.86,WSW,237,0.0,0.0,90,0.01,,---,0.06,VWS V13.01,2013-05-18 03:45:00,
2013-05-17 21:46:00,46.1,43.3,29.86,WSW,237,0.0,0.0,90,0.01,,---,0.06,VWS V13.01,2013-05-18 03:46:00,
2013-05-17 21:47:00,46.1,43.3,29.86,WSW,237,0.0,0.0,90,0.01,,---,0.06,VWS V13.01,2013-05-18 03:47:00,
2013-05-17 21:48:00,46.1,43.3,29.86,WSW,237,0.0,0.0,90,0.01,,---,0.06,VWS V13.01,2013-05-18 03:48:00,
2013-05-17 21:49:00,46.1,43.3,29.86,WSW,237,0.0,0.0,90,0.01,,---,0.06,VWS V13.01,2013-05-18 03:49:00,
2013-05-17 21:50:00,46.1,43.3,29.86,WSW,237,0.0,0.0,90,0.01,,---,0.06,VWS V13.01,2013-05-18 03:50:00,
2013-05-17 21:51:00,46.1,43.3,29.86,WSW,237,0.0,0.0,90,0.01,,---,0.06,VWS V13.01,2013-05-18 03:51:00,
2013-05-17 21:52:00,46.1,43.3,29.86,WSW,237,0.0,0.0,90,0.01,,---,0.06,VWS V13.01,2013-05-18 03:52:00,
2013-05-17 21:53:00,46.1,43.3,29.86,WSW,237,0.0,0.0,90,0.01,,---,0.06,VWS V13.01,2013-05-18 03:53:00,
2013-05-17 21:54:00,46.1,43.3,29.86,WSW,237,0.0,0.0,90,0.01,,---,0.06,VWS V13.01,2013-05-18 03:54:00,
2013-05-17 21:55:00,46.1,43.3,29.86,WSW,237,0.0,0.0,90,0.01,,---,0.06,VWS V13.01,2013-05-18 03:55:00,
2013-05-17 21:56:00,46.1,43.3,29.86,WSW,237,0.0,0.0,90,0.01,,---,0.06,VWS V13.01,2013-05-18 03:56:00,
2013-05-17 21:57:00,46.1,43.3,29.86,WSW,237,0.0,0.0,90,0.01,,---,0.06,VWS V13.01,2013-05-18 03:57:00,
2013-05-17 21:58:00,46.1,43.3,29.86,WSW,237,0.0,0.0,90,0.01,,---,0.06,VWS V13.01,2013-05-18 03:58:00,
2013-05-17 21:59:00,46.1,43.3,29.86,WSW,237,0.0,0.0,90,0.01,,---,0.06,VWS V13.01,2013-05-18 03:59:00,
2013-05-17 22:00:00,46.1,43.3,29.86,WSW,237,0.0,0.0,90,0.01,,---,0.06,VWS V13.01,2013-05-18 04:00:00,
2013-05-17 22:01:00,46.1,43.3,29.86,WSW,237,0.0,0.0,90,0.01,,---,0.06,VWS V13.01,2013-05-18 04:01:00,
2013-05-17 22:02:00,46.1,43.3,29.86,WSW,237,0.0,0.0,90,0.01,,---,0.06,VWS V13.01,2013-05-18 04:02:00,
2013-05-17 22:03:00,46.1,43.3,29.86,WSW,237,0.0,0.0,90,0.01,,---,0.06,VWS V13.01,2013-05-18 04:03:00,
2013-05-17 22:04:00,46.1,43.3,29.86,WSW,237,0.0,0.0,90,0.01,,---,0.06,VWS V13.01,2013-05-18 04:04:00,
2013-05-17 22:05:00,46.1,43.3,29.86,WSW,237,0.0,0.0,90,0.01,,---,0.06,VWS V13.01,2013-05-18 04:05:00,
2013-05-17 22:06:00,46.1,43.3,29.86,WSW,237,0.0,0.0,90,0.01,,---,0.06,VWS V13.01,2013-05-18 04:06:00,
2013-05-17 22:07:00,46.1,43.3,29.86,WSW,237,0.0,0.0,90,0.01,,---,0.06,VWS V13.01,2013-05-18 04:07:00,
2013-05-17 22:08:00,46.1,43.6,29.86,WSW,237,0.0,0.0,91,0.01,,---,0.06,VWS V13.01,2013-05-18 04:08:00,
2013-05-17 22:09:00,46.1,43.6,29.86,WSW,237,0.0,0.0,91,0.01,,---,0.06,VWS V13.01,2013-05-18 04:09:00,
2013-05-17 22:10:00,46.1,43.6,29.86,WSW,237,0.0,0.0,91,0.01,,---,0.06,VWS V13.01,2013-05-18 04:10:00,
2013-05-17 22:11:00,46.1,43.6,29.86,WSW,237,0.0,0.0,91,0.01,,---,0.06,VWS V13.01,2013-05-18 04:11:00,
2013-05-17 22:12:00,46.1,43.6,29.86,WSW,237,0.0,0.0,91,0.01,,---,0.06,VWS V13.01,2013-05-18 04:12:00,
2013-05-17 22:13:00,46.1,43.6,29.86,WSW,237,0.0,0.0,91,0.01,,---,0.06,VWS V13.01,2013-05-18 04:13:00,
2013-05-17 22:14:00,46.1,43.6,29.87,WSW,237,0.0,0.0,91,0.01,,---,0.06,VWS V13.01,2013-05-18 04:14:00,
2013-05-17 22:15:00,46.1,43.6,29.87,WSW,237,0.0,0.0,91,0.01,,---,0.06,VWS V13.01,2013-05-18 04:15:00,
2013-05-17 22:16:00,46.1,43.6,29.87,WSW,237,0.0,0.0,91,0.01,,---,0.06,VWS V13.01,2013-05-18 04:16:00,
2013-05-17 22:17:00,46.1,43.6,29.87,WSW,237,0.0,0.0,91,0.01,,---,0.06,VWS V13.01,2013-05-18 04:17:00,
2013-05-17 22:18:00,46.1,43.6,29.87,WSW,237,0.0,0.0,91,0.01,,---,0.06,VWS V13.01,2013-05-18 04:18:00,
2013-05-17 22:19:00,46.1,43.6,29.87,WSW,237,0.0,0.0,91,0.01,,---,0.06,VWS V13.01,2013-05-18 04:19:00,
2013-05-17 22:20:00,46.1,43.6,29.87,WSW,237,0.0,0.0,91,0.01,,---,0.06,VWS V13.01,2013-05-18 04:20:00,
2013-05-17 22:21:00,46.1,43.6,29.87,WSW,237,0.0,0.0,91,0.00,,---,0.06,VWS V13.01,2013-05-18 04:21:00,
2013-05-17 22:22:00,46.1,43.6,29.87,WSW,237,0.0,0.0,91,0.00,,---,0.06,VWS V13.01,2013-05-18 04:22:00,
2013-05-17 22:23:00,46.1,43.6,29.87,WSW,237,0.0,0.0,91,0.00,,---,0.06,VWS V13.01,2013-05-18 04:23:00,
2013-05-17 22:24:00,46.2,43.7,29.87,WSW,237,0.0,0.0,91,0.00,,---,0.06,VWS V13.01,2013-05-18 04:24:00,
2013-05-17 22:25:00,46.2,43.7,29.87,WSW,237,0.0,0.0,91,0.00,,---,0.06,VWS V13.01,2013-05-18 04:25:00,
2013-05-17 22:26:00,46.2,43.7,29.87,WSW,237,0.0,0.0,91,0.00,,---,0.06,VWS V13.01,2013-05-18 04:26:00,
2013-05-17 22:27:00,46.2,43.7,29.87,WSW,237,0.0,0.0,91,0.00,,---,0.06,VWS V13.01,2013-05-18 04:27:00,
2013-05-17 22:28:00,46.2,43.7,29.87,WSW,237,0.0,0.0,91,0.00,,---,0.06,VWS V13.01,2013-05-18 04:28:00,
2013-05-17 22:29:00,46.2,43.7,29.87,WSW,237,0.0,0.0,91,0.00,,---,0.06,VWS V13.01,2013-05-18 04:29:00,
2013-05-17 22:30:00,46.2,43.7,29.87,WSW,237,0.0,0.0,91,0.00,,---,0.06,VWS V13.01,2013-05-18 04:30:00,
2013-05-17 22:31:00,46.2,43.7,29.87,WSW,237,0.0,0.0,91,0.00,,---,0.06,VWS V13.01,2013-05-18 04:31:00,
2013-05-17 22:32:00,46.2,43.7,29.87,WSW,237,0.0,0.0,91,0.00,,---,0.06,VWS V13.01,2013-05-18 04:32:00,
2013-05-17 22:33:00,46.2,43.7,29.87,WSW,237,0.0,0.0,91,0.00,,---,0.06,VWS V13.01,2013-05-18 04:33:00,
2013-05-17 22:34:00,46.2,43.7,29.87,WSW,237,0.0,0.0,91,0.00,,---,0.06,VWS V13.01,2013-05-18 04:34:00,
2013-05-17 22:35:00,46.2,43.7,29.87,WSW,237,0.0,0.0,91,0.00,,---,0.06,VWS V13.01,2013-05-18 04:35:00,
2013-05-17 22:36:00,46.2,43.7,29.87,WSW,237,0.0,0.0,91,0.00,,---,0.06,VWS V13.01,2013-05-18 04:36:00,
2013-05-17 22:37:00,46.2,43.7,29.87,WSW,237,0.0,0.0,91,0.00,,---,0.06,VWS V13.01,2013-05-18 04:37:00,
2013-05-17 22:38:00,46.2,43.7,29.87,WSW,237,0.0,0.0,91,0.00,,---,0.06,VWS V13.01,2013-05-18 04:38:00,
2013-05-17 22:39:00,46.2,43.7,29.87,WSW,237,0.0,0.0,91,0.00,,---,0.06,VWS V13.01,2013-05-18 04:39:00,
2013-05-17 22:40:00,46.2,43.7,29.87,WSW,237,0.0,0.0,91,0.00,,---,0.06,VWS V13.01,2013-05-18 04:40:00,
2013-05-17 22:41:00,46.2,43.7,29.87,WSW,237,0.0,0.0,91,0.00,,---,0.06,VWS V13.01,2013-05-18 04:41:00,
2013-05-17 22:42:00,46.2,43.7,29.87,WSW,237,0.0,0.0,91,0.00,,---,0.06,VWS V13.01,2013-05-18 04:42:00,
2013-05-17 22:43:00,46.2,43.7,29.87,WSW,237,0.0,0.0,91,0.00,,---,0.06,VWS V13.01,2013-05-18 04:43:00,
2013-05-17 22:44:00,46.2,43.7,29.87,WSW,237,0.0,0.0,91,0.00,,---,0.06,VWS V13.01,2013-05-18 04:44:00,
2013-05-17 22:45:00,46.2,43.7,29.87,WSW,237,0.0,0.0,91,0.00,,---,0.06,VWS V13.01,2013-05-18 04:45:00,
2013-05-17 22:46:00,46.2,43.7,29.87,WSW,237,0.0,0.0,91,0.00,,---,0.06,VWS V13.01,2013-05-18 04:46:00,
2013-05-17 22:47:00,46.2,43.7,29.87,WSW,237,0.0,0.0,91,0.00,,---,0.06,VWS V13.01,2013-05-18 04:47:00,
2013-05-17 22:48:00,46.2,43.7,29.87,WSW,237,0.0,0.0,91,0.00,,---,0.06,VWS V13.01,2013-05-18 04:48:00,
2013-05-17 22:49:00,46.2,43.7,29.87,WSW,237,0.0,0.0,91,0.00,,---,0.06,VWS V13.01,2013-05-18 04:49:00,
2013-05-17 22:50:00,46.2,43.7,29.87,WSW,237,0.0,0.0,91,0.00,,---,0.06,VWS V13.01,2013-05-18 04:50:00,
2013-05-17 22:51:00,46.2,43.7,29.87,WSW,237,0.0,0.0,91,0.00,,---,0.06,VWS V13.01,2013-05-18 04:51:00,
2013-05-17 22:52:00,46.2,43.7,29.87,WSW,237,0.0,0.0,91,0.00,,---,0.06,VWS V13.01,2013-05-18 04:52:00,
2013-05-17 22:53:00,46.2,43.7,29.87,WSW,237,0.0,0.0,91,0.00,,---,0.06,VWS V13.01,2013-05-18 04:53:00,
2013-05-17 22:54:00,46.2,43.7,29.87,WSW,237,0.0,0.0,91,0.00,,---,0.06,VWS V13.01,2013-05-18 04:54:00,
2013-05-17 22:55:00,46.2,43.7,29.87,WSW,237,0.0,0.0,91,0.00,,---,0.06,VWS V13.01,2013-05-18 04:55:00,
2013-05-17 22:56:00,46.2,43.7,29.87,WSW,237,0.0,0.0,91,0.00,,---,0.06,VWS V13.01,2013-05-18 04:56:00,
2013-05-17 22:57:00,46.2,43.7,29.87,WSW,237,0.0,0.0,91,0.00,,---,0.06,VWS V13.01,2013-05-18 04:57:00,
2013-05-17 22:58:00,46.2,43.7,29.87,WSW,237,0.0,0.0,91,0.00,,---,0.06,VWS V13.01,2013-05-18 04:58:00,
2013-05-17 22:59:00,46.2,43.7,29.87,WSW,237,0.0,0.0,91,0.00,,---,0.06,VWS V13.01,2013-05-18 04:59:00,
2013-05-17 23:00:00,46.2,43.7,29.87,WSW,237,0.0,0.0,91,0.00,,---,0.06,VWS V13.01,2013-05-18 05:00:00,
2013-05-17 23:01:00,46.2,43.7,29.87,WSW,237,0.0,0.0,91,0.00,,---,0.06,VWS V13.01,2013-05-18 05:01:00,
2013-05-17 23:02:00,46.2,43.7,29.87,WSW,237,0.0,0.0,91,0.00,,---,0.06,VWS V13.01,2013-05-18 05:02:00,
2013-05-17 23:03:00,46.2,43.7,29.87,WSW,237,0.0,0.0,91,0.00,,---,0.06,VWS V13.01,2013-05-18 05:03:00,
2013-05-17 23:04:00,46.2,43.7,29.87,WSW,237,0.0,0.0,91,0.00,,---,0.06,VWS V13.01,2013-05-18 05:04:00,
2013-05-17 23:05:00,46.2,43.7,29.87,WSW,237,0.0,0.0,91,0.00,,---,0.06,VWS V13.01,2013-05-18 05:05:00,
2013-05-17 23:06:00,46.2,43.7,29.87,WSW,237,0.0,0.0,91,0.00,,---,0.06,VWS V13.01,2013-05-18 05:06:00,
2013-05-17 23:07:00,46.2,43.7,29.87,WSW,237,0.0,0.0,91,0.00,,---,0.06,VWS V13.01,2013-05-18 05:07:00,
2013-05-17 23:08:00,46.2,43.7,29.87,WSW,237,0.0,0.0,91,0.00,,---,0.06,VWS V13.01,2013-05-18 05:08:00,
2013-05-17 23:09:00,46.2,43.7,29.87,WSW,237,0.0,0.0,91,0.00,,---,0.06,VWS V13.01,2013-05-18 05:09:00,
2013-05-17 23:10:00,46.2,43.7,29.87,WSW,237,0.0,0.0,91,0.00,,---,0.06,VWS V13.01,2013-05-18 05:10:00,
2013-05-17 23:11:00,46.2,43.7,29.87,WSW,237,0.0,0.0,91,0.00,,---,0.06,VWS V13.01,2013-05-18 05:11:00,
2013-05-17 23:12:00,46.2,43.7,29.87,WSW,237,0.0,0.0,91,0.00,,---,0.06,VWS V13.01,2013-05-18 05:12:00,
2013-05-17 23:13:00,46.2,43.7,29.87,WSW,237,0.0,0.0,91,0.00,,---,0.06,VWS V13.01,2013-05-18 05:13:00,
2013-05-17 23:14:00,46.2,43.7,29.87,WSW,237,0.0,0.0,91,0.00,,---,0.06,VWS V13.01,2013-05-18 05:14:00,
2013-05-17 23:15:00,46.2,43.7,29.87,WSW,237,0.0,0.0,91,0.00,,---,0.06,VWS V13.01,2013-05-18 05:15:00,
2013-05-17 23:16:00,46.2,43.7,29.87,WSW,237,0.0,0.0,91,0.00,,---,0.06,VWS V13.01,2013-05-18 05:16:00,
2013-05-17 23:17:00,46.2,43.7,29.87,WSW,237,0.0,0.0,91,0.00,,---,0.07,VWS V13.01,2013-05-18 05:17:00,
2013-05-17 23:18:00,46.2,43.7,29.87,WSW,237,0.0,0.0,91,0.01,,---,0.07,VWS V13.01,2013-05-18 05:18:00,
2013-05-17 23:19:00,46.2,43.7,29.87,WSW,237,0.0,0.0,91,0.01,,---,0.07,VWS V13.01,2013-05-18 05:19:00,
2013-05-17 23:20:00,46.2,43.7,29.87,WSW,237,0.0,0.0,91,0.01,,---,0.07,VWS V13.01,2013-05-18 05:20:00,
2013-05-17 23:21:00,46.2,43.7,29.87,WSW,237,0.0,0.0,91,0.01,,---,0.07,VWS V13.01,2013-05-18 05:21:00,
2013-05-17 23:22:00,46.2,43.7,29.87,WSW,237,0.0,0.0,91,0.01,,---,0.07,VWS V13.01,2013-05-18 05:22:00,
2013-05-17 23:23:00,46.2,43.7,29.87,WSW,237,0.0,0.0,91,0.01,,---,0.07,VWS V13.01,2013-05-18 05:23:00,
2013-05-17 23:24:00,46.2,43.7,29.87,WSW,237,0.0,0.0,91,0.01,,---,0.07,VWS V13.01,2013-05-18 05:24:00,
2013-05-17 23:25:00,46.2,43.7,29.87,WSW,237,0.0,0.0,91,0.01,,---,0.07,VWS V13.01,2013-05-18 05:25:00,
2013-05-17 23:26:00,46.2,43.7,29.87,WSW,237,0.0,0.0,91,0.01,,---,0.07,VWS V13.01,2013-05-18 05:26:00,
2013-05-17 23:27:00,46.2,43.7,29.87,WSW,237,0.0,0.0,91,0.01,,---,0.07,VWS V13.01,2013-05-18 05:27:00,
2013-05-17 23:28:00,46.2,43.7,29.87,WSW,237,0.0,0.0,91,0.01,,---,0.07,VWS V13.01,2013-05-18 05:28:00,
2013-05-17 23:29:00,46.2,43.7,29.87,WSW,237,0.0,0.0,91,0.01,,---,0.07,VWS V13.01,2013-05-18 05:29:00,
2013-05-17 23:30:00,46.2,43.7,29.87,WSW,237,0.0,0.0,91,0.01,,---,0.07,VWS V13.01,2013-05-18 05:30:00,
2013-05-17 23:31:00,46.2,43.7,29.87,WSW,237,0.0,0.0,91,0.01,,---,0.07,VWS V13.01,2013-05-18 05:31:00,
2013-05-17 23:32:00,46.2,43.7,29.87,WSW,237,0.0,0.0,91,0.01,,---,0.07,VWS V13.01,2013-05-18 05:32:00,
2013-05-17 23:33:00,46.2,43.7,29.87,WSW,237,0.0,0.0,91,0.01,,---,0.07,VWS V13.01,2013-05-18 05:33:00,
2013-05-17 23:34:00,46.2,43.7,29.87,WSW,237,0.0,0.0,91,0.01,,---,0.07,VWS V13.01,2013-05-18 05:34:00,
2013-05-17 23:35:00,46.2,43.7,29.87,WSW,237,0.0,0.0,91,0.01,,---,0.07,VWS V13.01,2013-05-18 05:35:00,
2013-05-17 23:36:00,46.4,43.9,29.87,WSW,237,0.0,0.0,91,0.01,,---,0.07,VWS V13.01,2013-05-18 05:36:00,
2013-05-17 23:37:00,46.2,43.7,29.87,WSW,237,0.0,0.0,91,0.01,,---,0.07,VWS V13.01,2013-05-18 05:37:00,
2013-05-17 23:38:00,46.2,43.7,29.87,WSW,237,0.0,0.0,91,0.01,,---,0.07,VWS V13.01,2013-05-18 05:38:00,
2013-05-17 23:39:00,46.2,43.7,29.87,WSW,237,0.0,0.0,91,0.01,,---,0.07,VWS V13.01,2013-05-18 05:39:00,
2013-05-17 23:40:00,46.2,43.7,29.87,WSW,237,0.0,0.0,91,0.01,,---,0.07,VWS V13.01,2013-05-18 05:40:00,
2013-05-17 23:41:00,46.2,43.7,29.87,WSW,237,0.0,0.0,91,0.01,,---,0.07,VWS V13.01,2013-05-18 05:41:00,
2013-05-17 23:42:00,46.2,43.7,29.87,WSW,237,0.0,0.0,91,0.01,,---,0.07,VWS V13.01,2013-05-18 05:42:00,
2013-05-17 23:43:00,46.2,43.7,29.87,WSW,237,0.0,0.0,91,0.01,,---,0.07,VWS V13.01,2013-05-18 05:43:00,
2013-05-17 23:44:00,46.2,43.7,29.87,WSW,237,0.0,0.0,91,0.01,,---,0.07,VWS V13.01,2013-05-18 05:44:00,
2013-05-17 23:45:00,46.2,43.7,29.87,WSW,237,0.0,0.0,91,0.01,,---,0.07,VWS V13.01,2013-05-18 05:45:00,
2013-05-17 23:46:00,46.2,43.7,29.87,WSW,237,0.0,0.0,91,0.01,,---,0.07,VWS V13.01,2013-05-18 05:46:00,
2013-05-17 23:47:00,46.2,43.7,29.87,WSW,237,0.0,0.0,91,0.01,,---,0.07,VWS V13.01,2013-05-18 05:47:00,
2013-05-17 23:48:00,46.2,43.7,29.87,WSW,237,0.0,0.0,91,0.01,,---,0.07,VWS V13.01,2013-05-18 05:48:00,
2013-05-17 23:49:00,46.2,43.7,29.87,WSW,237,0.0,0.0,91,0.01,,---,0.07,VWS V13.01,2013-05-18 05:49:00,
2013-05-17 23:50:00,46.2,43.7,29.87,WSW,237,0.0,0.0,91,0.01,,---,0.07,VWS V13.01,2013-05-18 05:50:00,
2013-05-17 23:51:00,46.2,43.7,29.87,WSW,237,0.0,0.0,91,0.01,,---,0.07,VWS V13.01,2013-05-18 05:51:00,
2013-05-17 23:52:00,46.2,43.7,29.87,WSW,237,0.0,0.0,91,0.01,,---,0.07,VWS V13.01,2013-05-18 05:52:00,
2013-05-17 23:53:00,46.2,43.7,29.87,WSW,237,0.0,0.0,91,0.01,,---,0.07,VWS V13.01,2013-05-18 05:53:00,
2013-05-17 23:54:00,46.2,43.7,29.87,WSW,237,0.0,0.0,91,0.01,,---,0.07,VWS V13.01,2013-05-18 05:54:00,
2013-05-17 23:55:00,46.2,43.7,29.87,WSW,237,0.0,0.0,91,0.01,,---,0.07,VWS V13.01,2013-05-18 05:55:00,
2013-05-17 23:56:00,46.2,43.7,29.87,WSW,237,0.0,0.0,91,0.01,,---,0.07,VWS V13.01,2013-05-18 05:56:00,
2013-05-17 23:57:00,46.2,43.7,29.87,WSW,237,0.0,0.0,91,0.01,,---,0.07,VWS V13.01,2013-05-18 05:57:00,
2013-05-17 23:58:00,46.2,43.7,29.87,WSW,237,0.0,0.0,91,0.01,,---,0.07,VWS V13.01,2013-05-18 05:58:00,
2013-05-17 23:59:00,46.2,43.7,29.87,WSW,237,0.0,0.0,91,0.01,,---,0.07,VWS V13.01,2013-05-18 05:59:00,